[[{"header":{"parameterUnit":"m.s-1","parameterCategory":1,"la1":30.6,"la2":28.766,"lo1":-90.7593,"lo2":-88.6598,"dy":0.0162,"dx":0.0183,"nx":116,"ny":114,"refTime":"2024-04-10T18:00:00:Z","depth":0,"parameterNumber":2,"parameterNumberName":"U-component_of_WINDS"},"data":[0.0,0.0,0.0,0.0,0.0,0.0,0.0,0.0,0.0,0.0,0.0,0.0,0.0,0.0,0.0,0.0,0.0,0.0,0.0,0.0,0.0,0.0,0.0,0.0,0.0,0.0,0.0,0.0,0.0,0.0,0.0,0.0,0.0,0.0,0.0,0.0,0.0,0.0,0.0,0.0,0.0,0.0,0.0,0.0,0.0,0.0,0.0,0.0,0.0,0.0,0.0,0.0,0.0,0.0,0.0,0.0,0.0,0.0,0.0,0.0,0.0,0.0,0.0,0.0,0.0,0.0,0.0,0.0,0.0,0.0,0.0,0.0,0.0,0.0,0.0,0.0,0.0,0.0,0.0,0.0,0.0,0.0,0.0,0.0,0.0,0.0,0.0,0.0,0.0,0.0,0.0,0.0,0.0,0.0,0.0,0.0,0.0,0.0,0.0,0.0,0.0,0.0,0.0,0.0,0.0,0.0,0.0,0.0,0.0,0.0,0.0,0.0,0.0,0.0,0.0,0.0,0.0,0.0,0.0,0.0,0.0,0.0,0.0,0.0,0.0,0.0,0.0,0.0,0.0,0.0,0.0,0.0,0.0,0.0,0.0,0.0,0.0,0.0,0.0,0.0,0.0,0.0,0.0,0.0,0.0,0.0,0.0,0.0,0.0,0.0,0.0,0.0,0.0,0.0,0.0,0.0,0.0,0.0,0.0,0.0,0.0,0.0,0.0,0.0,0.0,0.0,0.0,0.0,0.0,0.0,0.0,0.0,0.0,0.0,0.0,0.0,0.0,0.0,0.0,0.0,0.0,0.0,0.0,0.0,0.0,0.0,0.0,0.0,0.0,0.0,0.0,0.0,0.0,0.0,0.0,0.0,0.0,0.0,0.0,0.0,0.0,0.0,0.0,0.0,0.0,0.0,0.0,0.0,0.0,0.0,0.0,0.0,0.0,0.0,0.0,0.0,0.0,0.0,0.0,0.0,0.0,0.0,0.0,0.0,0.0,0.0,0.0,0.0,0.0,0.0,0.0,0.0,0.0,0.0,0.0,0.0,0.0,0.0,0.0,0.0,0.0,0.0,0.0,0.0,0.0,0.0,0.0,0.0,0.0,0.0,0.0,0.0,0.0,0.0,0.0,0.0,0.0,0.0,0.0,0.0,0.0,0.0,0.0,0.0,0.0,0.0,0.0,0.0,0.0,0.0,0.0,0.0,0.0,0.0,0.0,0.0,0.0,0.0,0.0,0.0,0.0,0.0,0.0,0.0,0.0,0.0,0.0,0.0,0.0,0.0,0.0,0.0,0.0,0.0,0.0,0.0,0.0,0.0,0.0,0.0,0.0,0.0,0.0,0.0,0.0,0.0,0.0,0.0,0.0,0.0,0.0,0.0,0.0,0.0,0.0,0.0,0.0,0.0,0.0,0.0,0.0,0.0,0.0,0.0,0.0,0.0,0.0,0.0,0.0,0.0,0.0,0.0,0.0,0.0,0.0,0.0,0.0,0.0,0.0,0.0,0.0,0.0,0.0,0.0,0.0,0.0,0.0,0.0,0.0,0.0,0.0,0.0,0.0,0.0,0.0,0.0,0.0,0.0,0.0,0.0,0.0,0.0,0.0,0.0,0.0,0.0,0.0,0.0,0.0,0.0,0.0,0.0,0.0,0.0,0.0,0.0,0.0,0.0,0.0,0.0,0.0,0.0,0.0,0.0,0.0,0.0,0.0,0.0,0.0,0.0,0.0,0.0,0.0,0.0,0.0,0.0,0.0,0.0,0.0,0.0,0.0,0.0,0.0,0.0,0.0,0.0,0.0,0.0,0.0,0.0,0.0,0.0,0.0,0.0,0.0,0.0,0.0,0.0,0.0,0.0,0.0,0.0,0.0,0.0,0.0,0.0,0.0,0.0,0.0,0.0,0.0,0.0,0.0,0.0,0.0,0.0,0.0,0.0,0.0,0.0,0.0,0.0,0.0,0.0,0.0,0.0,0.0,0.0,0.0,0.0,0.0,0.0,0.0,0.0,0.0,0.0,0.0,0.0,0.0,0.0,0.0,0.0,0.0,0.0,0.0,0.0,0.0,0.0,0.0,0.0,0.0,0.0,0.0,0.0,0.0,0.0,0.0,0.0,0.0,0.0,0.0,0.0,0.0,0.0,0.0,0.0,0.0,0.0,0.0,0.0,0.0,0.0,0.0,0.0,0.0,0.0,0.0,0.0,0.0,0.0,0.0,0.0,0.0,0.0,0.0,0.0,0.0,0.0,0.0,0.0,0.0,0.0,0.0,0.0,0.0,0.0,0.0,0.0,0.0,0.0,0.0,0.0,0.0,0.0,0.0,0.0,0.0,0.0,0.0,0.0,0.0,0.0,0.0,0.0,0.0,0.0,0.0,0.0,0.0,0.0,0.0,0.0,0.0,0.0,0.0,0.0,0.0,0.0,0.0,0.0,0.0,0.0,0.0,0.0,0.0,0.0,0.0,0.0,0.0,0.0,0.0,0.0,0.0,0.0,0.0,0.0,0.0,0.0,0.0,0.0,0.0,0.0,0.0,0.0,0.0,0.0,0.0,0.0,0.0,0.0,0.0,0.0,0.0,0.0,0.0,0.0,0.0,0.0,0.0,0.0,0.0,0.0,0.0,0.0,0.0,0.0,0.0,0.0,0.0,0.0,0.0,0.0,0.0,0.0,0.0,0.0,0.0,0.0,0.0,0.0,0.0,0.0,0.0,0.0,0.0,0.0,0.0,0.0,0.0,0.0,0.0,0.0,0.0,0.0,0.0,0.0,0.0,0.0,0.0,0.0,0.0,0.0,0.0,0.0,0.0,0.0,0.0,0.0,0.0,0.0,0.0,0.0,0.0,0.0,0.0,0.0,0.0,0.0,0.0,0.0,0.0,0.0,0.0,0.0,0.0,0.0,0.0,0.0,0.0,0.0,0.0,0.0,0.0,0.0,0.0,0.0,0.0,0.0,0.0,0.0,0.0,0.0,0.0,0.0,0.0,0.0,0.0,0.0,0.0,0.0,0.0,0.0,0.0,0.0,0.0,0.0,0.0,0.0,0.0,0.0,0.0,0.0,0.0,0.0,0.0,0.0,0.0,0.0,0.0,0.0,0.0,0.0,0.0,0.0,0.0,0.0,0.0,0.0,0.0,0.0,0.0,0.0,0.0,0.0,0.0,0.0,0.0,0.0,0.0,0.0,0.0,0.0,0.0,0.0,0.0,0.0,0.0,0.0,0.0,0.0,0.0,0.0,0.0,0.0,0.0,0.0,0.0,0.0,0.0,0.0,0.0,0.0,0.0,0.0,0.0,0.0,0.0,0.0,0.0,0.0,0.0,0.0,0.0,0.0,0.0,0.0,0.0,0.0,0.0,0.0,0.0,0.0,0.0,0.0,0.0,0.0,0.0,0.0,0.0,0.0,0.0,0.0,0.0,0.0,0.0,0.0,0.0,0.0,0.0,0.0,0.0,0.0,0.0,0.0,0.0,0.0,0.0,0.0,0.0,0.0,0.0,0.0,0.0,0.0,0.0,0.0,0.0,0.0,0.0,0.0,0.0,0.0,0.0,0.0,0.0,0.0,0.0,0.0,0.0,0.0,0.0,0.0,0.0,0.0,0.0,0.0,0.0,0.0,0.0,0.0,0.0,0.0,0.0,0.0,0.0,0.0,0.0,0.0,0.0,0.0,0.0,0.0,0.0,0.0,0.0,0.0,0.0,0.0,0.0,0.0,0.0,0.0,0.0,0.0,0.0,0.0,0.0,0.0,0.0,0.0,0.0,0.0,0.0,0.0,0.0,0.0,0.0,0.0,0.0,0.0,0.0,0.0,0.0,0.0,0.0,0.0,0.0,0.0,0.0,0.0,0.0,0.0,0.0,0.0,0.0,0.0,0.0,0.0,0.0,0.0,0.0,0.0,0.0,0.0,0.0,0.0,0.0,0.0,0.0,0.0,0.0,0.0,0.0,0.0,0.0,0.0,0.0,0.0,0.0,0.0,0.0,0.0,0.0,0.0,0.0,0.0,0.0,0.0,0.0,0.0,0.0,0.0,0.0,0.0,0.0,0.0,0.0,0.0,0.0,0.0,0.0,0.0,0.0,0.0,0.0,0.0,0.0,0.0,0.0,0.0,0.0,0.0,0.0,0.0,0.0,0.0,0.0,0.0,0.0,0.0,0.0,0.0,0.0,0.0,0.0,0.0,0.0,0.0,0.0,0.0,0.0,0.0,0.0,0.0,0.0,0.0,0.0,0.0,0.0,0.0,0.0,0.0,0.0,0.0,0.0,0.0,0.0,0.0,0.0,0.0,0.0,0.0,0.0,0.0,0.0,0.0,0.0,0.0,0.0,0.0,0.0,0.0,0.0,0.0,0.0,0.0,0.0,0.0,0.0,0.0,0.0,0.0,0.0,0.0,0.0,0.0,0.0,0.0,0.0,0.0,0.0,0.0,0.0,0.0,0.0,0.0,0.0,0.0,0.0,0.0,0.0,0.0,0.0,0.0,0.0,0.0,0.0,0.0,0.0,0.0,0.0,0.0,0.0,0.0,0.0,0.0,0.0,0.0,0.0,0.0,0.0,0.0,0.0,0.0,0.0,0.0,0.0,0.0,0.0,0.0,0.0,0.0,0.0,0.0,0.0,0.0,0.0,0.0,0.0,0.0,0.0,0.0,0.0,0.0,0.0,0.0,0.0,0.0,0.0,0.0,0.0,0.0,0.0,0.0,0.0,0.0,0.0,0.0,0.0,0.0,0.0,0.0,0.0,0.0,0.0,0.0,0.0,0.0,0.0,0.0,0.0,0.0,0.0,0.0,0.0,0.0,0.0,0.0,0.0,0.0,0.0,0.0,0.0,0.0,0.0,0.0,0.0,0.0,0.0,0.0,0.0,0.0,0.0,0.0,0.0,0.0,0.0,0.0,0.0,0.0,0.0,0.0,0.0,0.0,0.0,0.0,0.0,0.0,0.0,0.0,0.0,0.0,0.0,0.0,0.0,0.0,0.0,0.0,0.0,0.0,0.0,0.0,0.0,0.0,0.0,0.0,0.0,0.0,0.0,0.0,0.0,0.0,0.0,0.0,0.0,0.0,0.0,0.0,0.0,0.0,0.0,0.0,0.0,0.0,0.0,0.0,0.0,0.0,0.0,0.0,0.0,0.0,0.0,0.0,0.0,0.0,0.0,0.0,0.0,0.0,0.0,0.0,0.0,0.0,0.0,0.0,0.0,0.0,0.0,0.0,0.0,0.0,0.0,0.0,0.0,0.0,0.0,0.0,0.0,0.0,0.0,0.0,0.0,0.0,0.0,0.0,0.0,0.0,0.0,0.0,0.0,0.0,0.0,0.0,0.0,0.0,0.0,0.0,0.0,0.0,0.0,0.0,0.0,0.0,0.0,0.0,0.0,0.0,0.0,0.0,0.0,0.0,0.0,0.0,0.0,0.0,0.0,0.0,0.0,0.0,0.0,0.0,0.0,0.0,0.0,0.0,0.0,0.0,0.0,0.0,0.0,0.0,0.0,0.0,0.0,0.0,0.0,0.0,0.0,0.0,0.0,0.0,0.0,0.0,0.0,0.0,0.0,0.0,0.0,0.0,0.0,0.0,0.0,0.0,0.0,0.0,0.0,0.0,0.0,0.0,0.0,0.0,0.0,0.0,0.0,0.0,0.0,0.0,0.0,0.0,0.0,0.0,0.0,0.0,0.0,0.0,0.0,0.0,0.0,0.0,0.0,0.0,0.0,0.0,0.0,0.0,0.0,0.0,0.0,0.0,0.0,0.0,0.0,0.0,0.0,0.0,0.0,0.0,0.0,0.0,0.0,0.0,0.0,0.0,0.0,0.0,0.0,0.0,0.0,0.0,0.0,0.0,0.0,0.0,0.0,0.0,0.0,0.0,0.0,0.0,0.0,0.0,0.0,0.0,0.0,0.0,0.0,0.0,0.0,0.0,0.0,0.0,0.0,0.0,0.0,0.0,0.0,0.0,0.0,0.0,0.0,0.0,0.0,0.0,0.0,0.0,0.0,0.0,0.0,0.0,0.0,0.0,0.0,0.0,0.0,0.0,0.0,0.0,0.0,0.0,0.0,0.0,0.0,0.0,0.0,0.0,0.0,0.0,0.0,0.0,-6.9864,-6.8253,0.0,0.0,0.0,0.0,0.0,0.0,0.0,0.0,0.0,0.0,0.0,0.0,0.0,0.0,0.0,0.0,0.0,0.0,0.0,0.0,0.0,0.0,0.0,-7.313,-7.5318,-7.6045,-7.9157,-8.0794,-8.0132,-8.1505,-8.171,-8.0259,-8.0209,-8.0209,-8.0209,-8.0175,-7.9727,-7.8914,-7.6321,-7.3282,-6.9806,-7.0787,-7.0936,-7.0402,0.0,0.0,0.0,0.0,0.0,0.0,0.0,0.0,0.0,0.0,0.0,0.0,0.0,0.0,0.0,0.0,0.0,0.0,0.0,0.0,0.0,0.0,0.0,0.0,0.0,0.0,0.0,0.0,0.0,0.0,0.0,0.0,0.0,0.0,0.0,0.0,0.0,0.0,0.0,0.0,0.0,0.0,0.0,0.0,0.0,0.0,0.0,0.0,0.0,0.0,0.0,0.0,0.0,0.0,0.0,0.0,0.0,0.0,0.0,0.0,0.0,0.0,0.0,0.0,0.0,0.0,0.0,0.0,0.0,0.0,-7.0455,-7.0706,0.0,0.0,0.0,0.0,0.0,0.0,0.0,0.0,0.0,0.0,0.0,0.0,0.0,0.0,0.0,0.0,0.0,0.0,0.0,0.0,0.0,-6.8138,-7.009,-7.332,-7.5859,-7.7079,-8.0339,-8.1833,-8.0665,-8.215,-8.234,-8.0665,-8.0581,-8.0581,-8.0581,-8.0899,-8.0108,-7.8061,-7.4407,-7.0828,-6.7291,-6.5783,-6.6128,-6.7882,-6.8756,0.0,0.0,0.0,0.0,0.0,0.0,0.0,0.0,0.0,0.0,0.0,0.0,0.0,0.0,0.0,0.0,0.0,0.0,0.0,0.0,0.0,0.0,0.0,0.0,0.0,0.0,0.0,0.0,0.0,0.0,0.0,0.0,0.0,0.0,0.0,0.0,0.0,0.0,0.0,0.0,0.0,0.0,0.0,0.0,0.0,0.0,0.0,0.0,0.0,0.0,0.0,0.0,0.0,0.0,0.0,0.0,0.0,0.0,0.0,0.0,0.0,0.0,0.0,-5.7031,-6.1723,-7.0348,-7.0348,-7.0414,-7.0489,-6.8445,-6.9533,-7.2866,-7.4724,0.0,0.0,0.0,0.0,0.0,0.0,0.0,0.0,0.0,0.0,0.0,0.0,0.0,0.0,0.0,0.0,0.0,0.0,0.0,-6.8708,-7.0203,-7.414,-7.6684,-7.6693,-8.0173,-8.1729,-8.0198,-8.2191,-8.3055,-8.2137,-8.2137,-8.2137,-8.2137,-8.0801,-7.8389,-7.4613,-6.7576,-6.4284,-6.4691,-6.3201,-6.2911,-6.3584,-6.3737,-6.4526,-6.5679,0.0,0.0,0.0,0.0,0.0,0.0,0.0,0.0,0.0,0.0,0.0,0.0,0.0,0.0,0.0,0.0,0.0,0.0,0.0,0.0,0.0,0.0,0.0,0.0,0.0,0.0,0.0,0.0,0.0,0.0,0.0,0.0,0.0,0.0,0.0,0.0,0.0,0.0,0.0,0.0,0.0,-7.8481,-7.6393,0.0,0.0,0.0,0.0,0.0,0.0,0.0,0.0,0.0,0.0,0.0,0.0,0.0,-5.6029,-5.918,-5.918,-5.9062,-5.8848,-5.8848,-5.9585,-6.0935,-6.0935,-6.616,-7.4661,-6.4759,0.0,-7.274,-7.3042,0.0,0.0,0.0,0.0,0.0,0.0,0.0,0.0,0.0,0.0,0.0,0.0,0.0,0.0,0.0,0.0,0.0,0.0,0.0,0.0,0.0,-7.4416,-7.557,-7.6683,-7.6893,-7.7107,-7.748,-7.9407,-8.0629,-8.1021,-8.1956,-8.2008,-8.1055,-7.9649,-7.6085,-7.0336,-6.5981,-6.3592,-6.2917,-6.3007,-6.3073,-6.3324,-6.3324,-6.3792,-6.4687,-6.3634,0.0,0.0,0.0,0.0,0.0,0.0,0.0,0.0,0.0,0.0,0.0,0.0,0.0,0.0,0.0,0.0,0.0,0.0,0.0,0.0,0.0,0.0,0.0,0.0,0.0,0.0,0.0,0.0,0.0,0.0,0.0,0.0,0.0,0.0,0.0,0.0,0.0,0.0,0.0,-7.7196,-7.37,-7.4147,-7.4197,-7.4674,0.0,0.0,0.0,0.0,0.0,0.0,0.0,0.0,0.0,-5.914,-5.1616,-5.1785,-6.0491,-6.0625,-5.6893,-4.9695,-5.7126,-6.0625,-6.0566,-5.9629,-6.194,-6.6349,-6.13,-6.1489,-6.5008,-6.4114,-6.7814,-7.4222,0.0,0.0,0.0,0.0,-7.9899,-7.8977,0.0,0.0,0.0,0.0,0.0,0.0,0.0,0.0,0.0,0.0,0.0,0.0,-7.5337,-7.4432,-7.4306,-7.5829,-7.4596,-7.4356,-7.5664,-7.7163,-7.8759,-8.0494,-8.1315,-8.137,-8.056,-7.7366,-7.2952,-6.7358,-6.4942,-6.3204,-6.2019,-6.3174,-6.3701,-6.3701,-6.3701,-6.3827,-6.4002,-6.2697,-6.2605,-6.3117,0.0,0.0,0.0,0.0,0.0,0.0,0.0,0.0,0.0,0.0,0.0,0.0,0.0,0.0,0.0,0.0,0.0,0.0,0.0,0.0,0.0,0.0,0.0,0.0,0.0,0.0,0.0,0.0,0.0,0.0,0.0,0.0,0.0,0.0,0.0,0.0,0.0,-7.5633,-7.1535,-7.259,-7.3242,-7.4222,0.0,0.0,0.0,0.0,0.0,0.0,-7.1893,-6.2508,-5.8027,-5.9765,-5.0838,-4.9503,-5.7069,-5.7207,-5.2301,-4.28,-5.6084,-6.2129,-6.166,-6.039,-5.9824,-5.9824,-5.9355,-5.918,-5.9062,-5.7793,-6.1956,-6.9381,-7.0626,-7.2807,-7.5201,-7.5201,-7.4146,-7.2816,0.0,0.0,0.0,0.0,0.0,0.0,0.0,0.0,0.0,0.0,0.0,-7.1659,-7.4454,-7.41,-7.355,-7.3409,-7.5356,-7.6486,-7.6273,-7.7255,-7.9089,-8.1976,-8.0696,-8.0637,-8.2042,-7.3678,-6.8556,-6.7045,-6.2634,-6.1018,-6.2019,-6.3174,-6.3701,-6.3701,-6.3701,-6.34,-6.2759,-6.105,-6.1022,-6.2008,-6.0808,0.0,0.0,0.0,0.0,0.0,0.0,0.0,0.0,0.0,0.0,0.0,0.0,0.0,0.0,0.0,0.0,0.0,0.0,0.0,0.0,0.0,0.0,0.0,0.0,0.0,0.0,0.0,0.0,0.0,0.0,0.0,0.0,0.0,0.0,0.0,0.0,0.0,0.0,-7.2966,-7.4598,0.0,0.0,0.0,0.0,-7.3042,-7.2891,-6.9102,-6.0487,-5.9397,-5.9824,-6.1543,-6.0999,-5.5635,-4.5042,-4.4939,-4.4531,-4.4046,-5.7705,-6.332,-6.1719,-6.1601,-6.1601,-6.1484,-5.9883,-5.918,-5.918,-5.9082,-5.9358,-5.9735,-5.8149,-6.3805,-7.2891,-7.2891,-7.2816,-7.3042,0.0,0.0,0.0,0.0,0.0,-6.2735,-6.7367,-7.0653,-7.3769,-7.7096,-7.5391,-7.4972,-7.7846,-7.4186,-7.1956,-7.3197,-7.1596,-7.0985,-7.2189,-7.3943,-7.5822,-7.7667,-7.9077,-7.8786,-7.6581,-7.0296,-6.6576,-6.5633,-6.2793,-6.1793,-6.2546,-6.3676,-6.4178,-6.4203,-6.4555,-6.3598,-6.1523,-5.9811,-5.8648,-5.8094,-5.8817,-5.8955,0.0,0.0,0.0,0.0,0.0,0.0,0.0,0.0,0.0,0.0,0.0,0.0,0.0,0.0,0.0,0.0,0.0,0.0,0.0,0.0,0.0,0.0,0.0,0.0,0.0,0.0,0.0,0.0,0.0,0.0,0.0,0.0,0.0,0.0,0.0,0.0,0.0,-7.495,-7.5578,0.0,-7.4046,-7.392,-7.4171,-7.4824,-6.8113,-6.3108,-6.0932,-6.1894,-6.2754,-6.3379,-6.3379,-5.7159,-4.4113,-4.3233,-4.7633,-5.7096,-6.2022,-6.3398,-6.1719,-6.1719,-6.1133,-6.0039,-5.9473,-5.918,-5.918,-5.918,-5.918,-5.9121,-5.8496,-6.0653,-6.382,-6.28,-6.2346,-6.3455,0.0,0.0,0.0,0.0,0.0,-6.5329,-7.0749,-7.3844,-7.6458,-7.9128,-7.6892,-7.5756,-7.7683,-7.33,-7.074,-7.212,-6.9814,-6.9153,-7.1158,-7.2317,-7.3937,-7.6236,-7.7748,-7.6401,-7.1671,-6.8872,-6.6524,-6.4617,-6.3492,-6.297,-6.2847,-6.3776,-6.4203,-6.4228,-6.458,-6.2947,-5.9675,-5.8352,-5.7108,-5.608,-5.6596,-5.6762,-5.7017,0.0,0.0,0.0,0.0,0.0,0.0,0.0,0.0,0.0,0.0,0.0,0.0,0.0,0.0,0.0,0.0,0.0,0.0,0.0,0.0,0.0,0.0,0.0,0.0,0.0,0.0,0.0,0.0,0.0,0.0,0.0,0.0,0.0,0.0,-7.8652,-7.4372,-7.5879,-7.6733,-7.6607,-7.5126,-7.4975,-7.4191,-7.2265,-6.5706,-6.2246,-6.3398,-6.4551,-6.5176,-6.5176,-6.5176,-6.0525,-5.088,-5.0076,-5.4933,-6.5176,-6.459,-6.373,-6.2578,-6.1992,-6.1094,-6.0,-5.9414,-5.918,-5.918,-5.918,-5.918,-5.918,-5.918,-5.918,-5.9062,-5.791,-5.7461,-5.9001,0.0,0.0,0.0,0.0,0.0,-6.928,-7.3178,-7.681,-7.8889,-7.8111,-7.5509,-7.3676,-7.3588,-7.1383,-6.9961,-7.0021,-7.056,-7.1727,-7.3702,-7.2624,-7.3809,-7.7992,-7.6789,-7.3547,-6.8266,-6.935,-6.8009,-6.4002,-6.4658,-6.4167,-6.2847,-6.3425,-6.3701,-6.3701,-6.3726,-6.1352,-5.738,-5.6776,-5.6509,-5.6287,-5.4385,-5.492,-5.7067,0.0,0.0,0.0,0.0,0.0,0.0,0.0,0.0,0.0,0.0,0.0,0.0,0.0,0.0,0.0,0.0,0.0,0.0,0.0,0.0,0.0,0.0,0.0,0.0,0.0,0.0,0.0,0.0,0.0,0.0,0.0,0.0,0.0,-7.4733,-7.1745,-7.1259,-7.5628,-7.8139,-7.9495,-7.9495,-7.9545,-7.5326,-6.5187,-6.5937,-6.6875,-6.6875,-6.6875,-6.6875,-6.6875,-6.6875,-6.593,-6.3785,-6.4112,-6.5195,-6.6758,-6.5117,-6.4297,-6.4199,-6.2461,-6.1719,-6.1601,-5.998,-5.9238,-5.9238,-5.918,-5.918,-5.918,-5.918,-5.918,-5.9199,-5.9607,-5.9698,-6.128,0.0,0.0,0.0,-5.8398,-6.4306,-6.9493,-7.3835,-7.7547,-7.9634,-7.8889,-7.6691,-7.5029,-7.4914,-7.1967,-7.035,-7.1278,-7.1068,-7.1338,-7.2355,-7.2565,-7.3364,-7.5073,-7.2105,-7.0068,-6.9436,-6.8342,-6.6742,-6.4658,-6.3822,-6.3215,-6.2847,-6.3425,-6.3701,-6.3726,-6.4505,-6.2996,-5.9879,-5.8683,-5.7314,-5.5927,-5.463,-5.3808,-5.3678,0.0,0.0,0.0,0.0,0.0,0.0,0.0,0.0,0.0,0.0,0.0,0.0,0.0,0.0,0.0,0.0,0.0,0.0,0.0,0.0,0.0,0.0,0.0,0.0,0.0,0.0,0.0,0.0,0.0,0.0,0.0,-7.024,-7.0942,-7.0942,-7.2807,-7.5301,-7.8139,-8.0424,-8.1779,-8.1779,-8.3236,-7.9142,-6.709,-6.6582,-6.6875,-6.6875,-6.6875,-6.6875,-6.6875,-6.6875,-6.1747,-5.088,-6.1057,-6.5762,-6.5,-6.4551,-6.3672,-6.2402,-6.1933,-6.1719,-6.1699,-6.1211,-6.1015,-6.0918,-5.9707,-5.918,-5.918,-5.918,-5.918,-6.0254,-6.8459,-7.1406,-7.1601,0.0,0.0,0.0,-6.1679,-6.665,-7.1004,-7.5451,-7.8707,-7.9702,-7.7179,-7.6387,-7.5278,-7.3006,-7.1566,-7.0979,-7.1427,-7.1906,-7.2445,-7.3103,-7.3023,-7.2148,-7.0337,-6.8634,-6.7355,-6.6696,-6.711,-6.6126,-6.3724,-6.3895,-6.3665,-6.2847,-6.3174,-6.345,-6.3726,-6.4329,-6.3337,-6.1193,-6.0578,-5.8662,-5.6005,-5.5838,-5.4602,-5.2992,-5.394,-5.4904,-5.6487,-6.2538,-6.4731,-6.453,-6.3249,0.0,0.0,0.0,0.0,0.0,0.0,0.0,0.0,0.0,0.0,0.0,0.0,0.0,0.0,0.0,0.0,0.0,0.0,0.0,0.0,0.0,0.0,0.0,0.0,-6.9325,-7.2539,-7.3494,-7.5829,-7.8264,-8.0499,-8.2734,-8.4089,-8.4089,-8.5244,-8.0721,-6.7824,-6.6875,-6.6875,-6.6875,-6.6875,-6.6875,-6.6875,-6.1173,-5.6853,-5.4576,-6.2755,-6.6348,-6.5371,-6.4668,-6.0763,-5.4462,-5.946,-6.1719,-6.1719,-6.1719,-6.1719,-6.166,-6.0664,-5.9824,-5.918,0.0,0.0,0.0,0.0,-7.5477,-7.4473,0.0,0.0,0.0,-6.6433,-6.9888,-7.3054,-7.736,-7.9938,-7.9651,-7.4604,-7.5524,-7.486,-6.9863,-7.0641,-7.1338,-7.0829,-7.2565,-7.3971,-7.4719,-7.3416,-7.0535,-6.5945,-6.6574,-6.5589,-6.2602,-6.587,-6.5822,-6.2094,-6.4319,-6.4551,-6.2822,-6.2822,-6.3149,-6.3701,-6.3751,-6.3101,-6.2059,-6.2344,-6.0341,-5.6959,-5.7585,-5.6352,-5.4043,-5.3496,-5.2637,-5.2511,-5.9191,-6.2068,-6.2822,-6.2822,0.0,0.0,0.0,0.0,0.0,0.0,0.0,0.0,0.0,0.0,0.0,0.0,0.0,0.0,0.0,0.0,0.0,0.0,0.0,0.0,0.0,0.0,0.0,0.0,-7.3895,-7.7057,-7.7601,-7.9087,-8.085,-8.2809,-8.4818,-8.5998,-8.5998,-8.6249,-8.0983,-6.8101,-6.7148,-6.7148,-6.7148,-6.7148,0.0,0.0,0.0,-5.2478,-6.6748,-6.6875,-6.6758,-6.6582,-6.5058,-5.7971,-4.6624,-5.697,-6.1719,-6.1719,-6.1719,-6.1719,-6.1719,-6.1719,-6.0723,-5.9291,-6.0547,-6.7197,-7.603,-7.5778,-7.5143,-7.43,0.0,0.0,-6.0568,-6.6637,-6.9888,-7.3054,-7.736,-8.0378,-8.0513,-7.5912,-7.618,-7.5234,-7.1132,-7.0035,-6.9722,-7.0141,-7.1457,-7.2774,-7.4001,-7.1483,-6.9696,-6.9021,-6.7797,-6.629,-6.4394,-6.5573,-6.5004,-6.2672,-6.3154,-6.3204,-6.2822,-6.2822,-6.3149,-6.3701,-6.4128,-6.4403,-6.4516,-6.3073,-6.1464,-5.9732,-5.7919,-5.615,-5.4512,-5.4043,-5.373,-5.3482,-5.3589,-5.7557,-6.2822,-6.2822,-6.2822,-6.247,-6.0636,-6.0417,0.0,0.0,0.0,0.0,0.0,0.0,0.0,0.0,0.0,0.0,0.0,0.0,0.0,0.0,0.0,0.0,0.0,0.0,0.0,-7.4272,-7.849,-7.8137,-6.855,-7.7322,-8.4893,-8.532,-8.5747,-8.5998,-8.5998,-8.7605,-8.3108,-6.9925,-6.8926,-6.8926,-6.8926,-6.8926,-6.8926,-6.8926,-5.3857,-5.2478,-6.6748,-6.6875,-6.6172,-6.4785,-6.4492,0.0,-6.0434,-6.1258,-6.1719,-6.1719,-6.1719,-6.1719,-6.1719,-6.1719,-6.0723,-6.0163,-6.9294,-7.4138,-7.5829,-7.4046,-7.7825,-8.3976,0.0,-6.0322,-6.3059,-6.8644,-7.1302,-7.4004,-7.7916,-8.075,-8.1086,-7.7413,-7.8157,-7.7552,-7.3868,-7.3411,-7.3663,-7.4408,-7.461,-7.4191,-7.3043,-7.1162,-6.901,-6.6695,-6.6216,-6.5296,-6.3488,-6.3975,-6.3801,-6.2822,-6.2822,-6.2973,-6.3249,-6.2973,-6.3425,-6.4479,-6.4479,-6.4931,-6.5649,-6.5024,-6.3083,-6.0273,-5.937,-5.7139,-5.4336,-5.4121,-5.4981,-5.6068,-5.3094,-5.667,-6.2822,-6.2822,-6.2822,-6.2822,-6.2822,-6.2069,-6.1592,0.0,0.0,0.0,0.0,0.0,0.0,0.0,0.0,0.0,0.0,0.0,0.0,0.0,0.0,-7.9208,-8.0524,0.0,-7.3845,-7.7185,-8.1453,-8.2228,-7.6016,-8.1389,-8.5998,-8.5998,-8.5998,-8.6425,-8.7529,-8.263,-7.6902,-7.1138,-7.0722,-7.0722,-7.0722,-6.9902,-6.9433,-6.9433,-6.0947,-5.9747,-6.6855,-6.6875,-6.5996,-6.4316,-6.3437,-6.2988,-6.2988,-6.2109,-6.1719,-6.1719,-6.1719,-6.1719,-6.166,-6.0801,-5.9941,-6.0345,-7.161,-7.6055,-7.6415,-7.8849,-8.2645,-8.6689,0.0,0.0,-6.6472,-7.0942,-7.2942,-7.5086,-7.8555,-8.0987,-8.1402,-7.8664,-7.9892,-7.9744,-7.6379,-7.6824,-7.7869,-7.8991,-7.7464,-7.5505,-7.3363,-7.1954,-6.9238,-6.4876,-6.5418,-6.4769,-6.2763,-6.2759,-6.2873,-6.2998,-6.2998,-6.3299,-6.3827,-6.3375,-6.3902,-6.5283,-6.4831,-6.5183,-6.6137,-6.6614,-6.448,-6.0855,-6.0701,-5.8211,-5.4558,-5.438,-5.6064,-5.8187,-5.523,-5.7888,-6.2822,-6.2822,-6.2822,-6.2898,-6.3324,-6.3475,-6.3375,-6.2948,-6.4705,0.0,0.0,0.0,0.0,0.0,0.0,0.0,0.0,-7.749,-7.3128,-7.522,-7.6036,-7.6825,-7.8067,-7.7413,-7.7436,-7.967,-8.3386,-8.5998,-8.5998,-8.6349,-8.6651,-8.6651,-8.4369,-8.3595,-8.5711,-7.6164,-7.0488,-7.1875,-7.1992,-7.1992,-7.1992,-7.0371,-6.9433,-6.9433,-6.8066,-6.7207,-6.6875,-6.6875,-6.5996,-6.4316,-6.2871,-6.2226,-6.2226,-6.2226,-6.2051,-6.1816,-6.3684,-6.3476,-6.1718,-6.2212,-6.2467,-6.3405,-7.2551,-7.7256,-7.9529,-8.4739,-8.6988,-8.7437,0.0,0.0,0.0,-7.2283,-7.3719,-7.565,-7.8656,-8.0987,-8.1578,-7.9297,-7.9735,-7.9441,-7.705,-7.6344,-7.7061,-7.9572,-7.5577,-7.4315,-7.7482,-7.401,-7.1267,-7.0078,-6.9012,-6.7517,-6.5451,-6.3695,-6.3073,-6.3601,-6.3601,-6.3877,-6.4379,-6.4304,-6.463,-6.5283,-6.5233,-6.5534,-6.6112,-6.6187,-6.514,-6.3237,-6.0588,-5.8452,-5.678,-5.587,-5.6315,-5.7399,-5.8788,-6.0818,-6.2822,-6.2822,-6.2822,-6.3174,-6.5132,-6.5735,-6.5358,-6.34,-6.5785,-6.8221,-6.4254,-6.3199,-6.3249,-6.35,-7.3016,-8.2409,0.0,-7.3125,-6.6871,-7.6373,-8.0225,-8.078,-7.7122,-7.7834,-7.9746,-8.1955,-8.4416,-8.5998,-8.5998,-8.768,-8.8935,-8.8935,-7.8429,-7.1974,-7.3728,-7.2606,-7.1777,-7.1992,-7.1992,-7.1992,-7.1992,-7.0371,-6.9433,-6.9433,-6.9258,-6.8418,-6.6875,-6.6875,-6.5996,-6.4316,-6.414,-6.4023,-6.4023,-6.4023,-6.3164,-6.2202,-7.0713,-6.9668,-6.2335,-7.0751,-7.4263,-7.4363,-7.5633,-8.1337,-8.8771,-8.7295,-8.8155,-9.019,0.0,0.0,0.0,-7.6049,-7.6043,-7.7011,-7.9955,-8.0733,-8.1324,-8.2202,-8.1755,-8.137,-8.1411,-8.1534,-8.1443,-8.0982,-7.804,-7.6369,-7.6885,-7.4172,-7.2028,-7.0947,-6.9931,-6.823,-6.5844,-6.4439,-6.3751,-6.3701,-6.4002,-6.4429,-6.4957,-6.4957,-6.5233,-6.576,-6.576,-6.5886,-6.6137,-6.6463,-6.5562,-6.3785,-6.2242,-6.0427,-5.8329,-5.7393,-5.7497,-5.8187,-5.8342,-6.1116,0.0,-6.3249,-6.2822,-6.2998,-6.3902,-6.5082,-6.5936,-6.5007,-6.6965,-6.9049,-6.7191,-6.6689,-6.6061,-6.3475,-6.7,-7.1465,-7.2777,-6.9742,-6.8285,-7.4101,-7.7253,-7.8292,-7.6437,-7.7888,-8.0097,-8.2307,-8.4567,-8.6425,-8.7755,-8.871,-8.9287,-8.9287,-8.4419,-7.8639,-7.2609,-7.1992,-7.1992,-7.1992,-7.1992,-7.1582,-7.0547,-6.9844,-6.9433,-6.9433,-6.9433,-6.8633,-6.6875,-6.6875,-6.5996,-6.4418,-7.1552,-7.0733,-6.2812,-6.3848,-6.3379,-6.2358,-7.3264,-7.5789,-7.2273,-7.4943,-7.6055,-7.6694,-8.2355,-8.7004,-9.0489,-8.9382,-8.9681,-9.0638,0.0,0.0,0.0,-7.9871,-7.9017,-7.8958,-8.097,-8.111,-8.1612,-8.3402,-8.281,-8.2458,-8.3221,-8.3777,-8.3499,-8.188,-7.9722,-7.7936,-7.6668,-7.4602,-7.2708,-7.0976,-7.0156,-6.8557,-6.6081,-6.5058,-6.4429,-6.4354,-6.458,-6.5132,-6.5986,-6.5835,-6.6061,-6.6564,-6.6413,-6.6363,-6.6363,-6.6639,-6.594,-6.4704,-6.3523,-6.1936,-6.0136,-5.9158,-5.865,-5.8411,-5.7401,-6.0551,-6.5157,-6.4781,-6.3852,-6.2822,-6.2822,-6.3927,-6.5459,-6.6664,-6.817,-6.9361,-6.9361,-6.8547,-6.699,-6.4379,-6.4655,-6.6137,-6.8346,-6.9627,-7.0983,-7.3192,-7.4925,-7.6055,-7.6055,-7.7888,-8.0298,-8.3135,-8.4918,-8.6776,-8.8961,-8.9287,-8.9036,-8.8458,-8.7856,-8.4389,-7.6569,-7.3493,-7.1992,-7.1992,-7.1543,-7.0762,-6.9512,-6.9433,-6.9433,-6.9433,-6.8984,-6.8125,-6.6875,-6.6875,-6.623,-6.5123,-7.3621,-7.2274,-6.2461,-6.373,-6.3379,-6.2358,-7.4289,-7.9043,-7.8518,-7.9668,-8.0077,-8.0857,-8.8683,-9.1746,-9.1746,-9.1746,-9.1746,-9.1746,0.0,0.0,0.0,0.0,-8.2467,-8.1646,-8.1326,-8.2457,-8.2892,-8.1368,-8.1769,-8.1589,-8.0135,-7.9986,-8.0502,-8.1755,-7.913,-7.7634,-7.8281,-7.6129,-7.3626,-7.1005,-7.0156,-6.8748,-6.6767,-6.5262,-6.4982,-6.6036,-6.5509,-6.6112,-6.7719,-6.7166,-6.7216,-6.7719,-6.7191,-6.694,-6.6915,-6.6363,-6.6463,-6.6679,-6.3731,-6.2493,-6.2285,-6.113,-5.9196,-5.7112,-5.7134,-5.9633,-6.3576,-6.7819,-6.6388,-6.2822,-6.2822,-6.2873,-6.3776,-6.807,-6.9311,-6.9361,-6.9361,-6.6312,-6.35,-6.5509,-6.925,-7.3016,-7.5251,-7.4121,-7.3268,-7.5502,-7.6004,-7.6055,-7.6055,-7.7888,-8.0825,-8.5169,-8.5948,-8.6776,-8.8961,-8.9287,-8.8509,-8.6349,-8.419,-8.3629,-8.5388,-7.7288,-7.1992,-7.1992,-7.0469,-6.9492,-6.9433,-6.9433,-6.9433,-6.9433,-6.7832,-6.6914,-6.6875,-6.6875,-6.6855,-6.6758,-6.5446,-6.4622,-6.4258,-6.4316,-6.3379,-6.2358,-7.4289,-7.8164,-7.6893,-8.6305,-9.0192,-9.0431,-9.3396,-9.4499,-9.4499,-9.4499,-9.4499,-9.4499,0.0,0.0,0.0,0.0,0.0,-8.3197,-8.2818,-8.2288,-8.1901,-8.1859,-8.1108,0.0,0.0,0.0,0.0,0.0,-7.839,-7.7293,-7.7373,-7.497,-7.3372,-7.2906,-7.1712,-7.0532,-6.9549,-6.788,-6.7048,-6.7048,-6.6188,-6.6137,-6.6689,-6.7267,-6.7216,-6.6714,-6.7267,-6.7116,-6.6413,-6.6614,-6.7216,-6.7831,-6.5323,-6.5318,-6.6501,-6.331,-6.1174,-5.995,0.0,-6.2661,-6.5233,-6.6739,-6.7216,-6.6965,-6.5484,-6.5007,-6.5584,-6.8572,-7.048,-7.1636,-7.1636,-6.9476,-6.8095,-7.1786,-7.382,-7.5126,-7.5879,-7.5477,-7.5151,-7.5904,-7.6055,-7.6055,-7.6055,-7.7888,-8.0348,-8.3311,-8.5019,-8.6249,-8.7002,-8.7103,-8.8864,-9.3711,-9.0558,-8.6284,-8.1985,-7.4728,-7.0312,-7.0312,-6.9785,-6.9433,-6.9433,-6.9433,-6.8926,-6.7773,-6.8301,-6.8574,-6.8574,-6.7441,-6.6875,-6.6875,-6.6289,-6.5996,-6.5996,-6.4844,-6.3965,-6.4056,-7.4794,-7.8114,-7.689,-8.6627,-9.1686,-9.3361,-9.4259,-9.4618,-9.4618,-9.4618,-9.4618,-9.4618,0.0,0.0,0.0,0.0,0.0,0.0,0.0,0.0,0.0,0.0,0.0,0.0,0.0,0.0,0.0,0.0,0.0,-7.6605,-7.6165,-7.5542,-7.4892,-7.4099,-7.4446,-7.4085,-7.3052,-7.1478,-7.076,-7.0894,-6.8037,-6.7051,-6.7844,-6.7046,-6.6438,-6.6137,-6.6664,-6.6488,-6.5835,-6.6011,-6.7436,-6.945,-6.7315,-6.8263,-7.0551,-6.6357,-6.4683,0.0,-6.2328,-6.5462,-7.0637,-7.0637,-7.1578,-7.1987,-6.752,-6.6112,-6.6538,-6.8798,-7.1008,-7.1757,-6.7193,-6.5909,-6.6453,-6.9371,-7.3106,-7.6055,-7.6055,-7.6055,-7.6055,-7.6055,-7.6055,-7.5804,-7.5025,-7.8771,-8.1925,-8.1606,-8.4014,-8.5998,-8.5998,-8.9421,-9.3868,-9.9328,-9.4439,-8.909,-8.5258,-8.0883,-7.565,-6.8984,-6.9101,-6.9433,-6.9433,-6.9433,-6.8926,-6.7832,-6.8867,-6.9433,-6.9433,-6.8359,-6.75,-6.6875,-6.6875,-6.6523,-6.5937,-6.4824,-6.6265,-7.0004,-7.6559,-7.8566,-7.8084,-8.7975,-9.3062,-9.4618,-9.4618,-9.4618,-9.4618,-9.4618,-9.4618,-9.4618,0.0,0.0,0.0,0.0,0.0,0.0,0.0,0.0,0.0,0.0,0.0,0.0,0.0,0.0,0.0,0.0,0.0,0.0,-7.5155,-7.7728,-7.7903,-7.4834,-7.7929,-7.8924,-7.7063,-7.5802,-7.5768,-7.6915,-7.0997,-6.9126,-7.1079,-6.692,-6.5445,-6.6404,-6.5899,-6.5672,-6.5622,-6.5092,-6.7461,-7.1336,-6.9444,-7.1015,-7.4101,-6.9846,-6.9366,-6.9944,-6.2816,-6.8213,-7.8609,-7.8729,-7.8789,-7.7284,-6.8804,-6.6187,-6.6689,-6.8823,-7.0463,-6.9093,-5.739,-5.668,-5.918,-5.918,-6.737,-7.536,-7.536,-7.536,-7.5559,-7.5981,-7.5954,-7.5396,-7.3577,-8.047,-8.4809,-7.9547,-8.2533,-8.5793,-8.6499,-9.5818,-10.2398,-10.2099,-9.5426,-9.1895,-9.4558,-9.4798,-8.7461,-6.9886,-6.9655,-7.0322,-7.0441,-6.9807,-6.9394,-6.9316,-6.9394,-6.9433,-6.9433,-6.9336,-6.8476,-6.6875,-6.6875,-6.6311,-6.5088,-6.5207,-7.0435,-7.9545,-7.9545,-7.9545,-8.0318,-9.0471,-9.4618,-9.4618,-9.4618,-9.4618,-9.4618,-9.4618,-9.4618,-9.4618,0.0,0.0,0.0,0.0,0.0,0.0,0.0,0.0,0.0,0.0,0.0,0.0,0.0,0.0,0.0,0.0,0.0,0.0,-7.8071,-7.7494,-7.7522,-7.847,-7.8844,-7.9318,-7.9953,-7.8468,-7.7563,-7.7101,-7.4436,-7.2768,-7.2148,-7.142,-7.0961,-7.0907,-7.1123,-7.1015,-7.0664,-7.0529,-7.1609,-7.3241,-7.1107,-7.1895,-7.4002,-7.0345,-7.0396,-7.2255,-7.1329,-7.3076,-7.6155,-7.813,-7.8789,-7.7284,-6.8804,-6.7241,-6.8698,-6.9185,-6.3409,-5.6926,-5.7645,-5.8496,-5.918,-5.918,-6.2273,-6.542,-6.542,-6.542,-6.7408,-7.4582,-7.4724,-7.4918,-7.9397,-8.2164,-8.0687,-7.1088,-7.4623,-8.2529,-9.371,-9.9492,-10.1022,-9.7072,-9.4828,-9.4618,-9.7281,-9.7521,-9.5492,-9.0835,-8.5088,-8.2447,-8.4084,-7.4764,-6.8867,-6.7558,-6.875,-6.9433,-6.9433,-6.8183,-6.7324,-6.6875,-6.6875,-6.9996,-7.5594,-7.7245,-7.9371,-8.183,-8.183,-8.183,-8.25,-9.1096,-9.4618,-9.4618,-9.4618,-9.4618,-9.4618,-9.4618,-9.4618,-9.4618,0.0,0.0,0.0,0.0,0.0,0.0,0.0,0.0,0.0,0.0,0.0,0.0,0.0,0.0,0.0,0.0,0.0,0.0,0.0,-7.8842,-7.9696,-8.1761,-8.2498,-8.3209,-8.4031,-8.2442,-8.1855,-8.2195,-7.7875,-7.6004,-7.6454,-7.3331,-7.1977,-7.217,-7.2225,-7.2009,-7.1755,-7.1755,-7.3331,0.0,0.0,-7.4715,-7.7658,-7.3948,-7.3813,-7.5437,-7.5018,-7.5617,-7.6455,-7.5617,-7.3719,-7.0954,-6.6135,-6.5534,-6.6739,-6.7693,-6.1159,-5.4492,-5.8203,-5.918,-5.9355,-6.0098,-6.1015,-6.1719,-6.1719,-6.4963,-6.9229,-7.37,-7.5983,-7.829,-8.2107,-8.2844,-8.0086,-7.1795,-7.5251,-8.3926,-9.8268,-10.159,-10.1411,-9.8419,-9.8089,-9.8658,-10.0124,-10.0304,-10.0304,-10.0304,-9.1436,-8.6525,-8.778,-8.0736,-7.6729,-7.6752,-7.1905,-6.9433,-6.9433,-6.7734,-6.9741,-7.5327,-7.4273,-7.6846,-8.2332,-8.3562,-8.4165,-8.4165,-8.4165,-8.3587,-8.3363,-9.2557,-9.5666,-9.4618,-9.4618,-9.4618,-9.4618,-9.4618,-9.4618,-9.4618,0.0,0.0,0.0,0.0,0.0,0.0,0.0,0.0,0.0,0.0,-8.0707,-8.0358,0.0,0.0,0.0,0.0,0.0,0.0,0.0,0.0,-8.2956,-8.4763,-8.6679,-8.7854,-8.8125,-8.6487,-8.6376,-8.7988,-8.0986,-7.8881,-8.1209,-7.4367,-7.1782,-7.2876,-7.2182,-7.1902,-7.1902,-7.1986,-7.4325,-7.7798,-7.6126,-7.8137,-8.1691,0.0,-7.7442,-7.7981,-7.5677,-7.6335,-7.7562,-7.2984,-6.7602,-6.2923,-6.3525,-6.3902,-6.4219,-6.4939,-6.1303,-5.7265,-5.8769,-5.9355,-5.9883,-6.1367,-6.1894,-6.1992,-6.1777,-6.7839,-7.338,-7.2831,-7.812,-8.2649,-8.229,-8.2529,-8.1343,-7.6779,-7.9771,-8.7353,-10.0566,-10.2488,-10.2488,-10.2488,-10.2488,-10.2488,-10.2488,-10.2488,-10.2488,-10.2488,-9.3625,-8.7586,-8.611,-8.6274,-8.7178,-8.8785,-7.762,-7.0841,-6.9101,-6.9297,-7.4879,-8.5521,-8.3889,-8.4115,-8.5998,-8.5998,-8.5998,-8.5998,-8.5998,-8.4918,-8.3788,-9.2722,-9.5907,-9.5097,-9.4738,-9.4618,-9.4618,-9.4618,-9.4618,-9.4648,0.0,0.0,0.0,0.0,0.0,0.0,0.0,0.0,0.0,0.0,-7.9922,-7.9823,0.0,0.0,0.0,0.0,0.0,0.0,0.0,0.0,0.0,-8.724,-8.6628,-8.7042,-8.8869,-8.7407,-8.604,-8.4795,-8.3417,-8.1808,-8.0089,-7.8179,-7.7666,-7.8405,-7.7725,-7.7429,-7.7459,-7.8021,-7.8375,-7.8682,-7.8817,-7.8738,-7.828,-7.7233,-7.6305,0.0,-7.5048,-7.5168,-7.5407,-7.451,-6.9096,-6.3475,-6.7141,-6.9551,-6.9557,-6.2459,-5.9627,-5.8789,-5.9121,-6.0215,-6.1367,-6.166,-6.2812,-6.3496,-6.2051,-6.0758,-6.2447,-7.0975,-7.812,-8.208,-7.9896,-8.1272,-8.1343,-7.6779,-7.9771,-8.7353,-10.0566,-10.2488,-10.2488,-10.2488,-10.2488,-10.2488,-10.2488,-10.2488,-10.2488,-10.2488,-10.0729,-9.57,-8.653,-8.7705,-8.8032,-8.66,-8.4386,-7.8015,-6.7432,-7.7578,-8.2915,-8.3261,-8.4742,-8.5596,-8.5998,-8.5998,-8.5998,-8.5998,-8.5998,-8.5772,-8.538,-8.5431,-9.0349,-9.7641,-9.5456,-9.4618,-9.4618,-9.4618,-9.4618,-9.4917,0.0,0.0,0.0,0.0,0.0,0.0,0.0,-8.2263,-8.114,-7.9071,-7.9495,-7.9316,-7.7515,-7.7652,-7.8498,0.0,0.0,0.0,0.0,0.0,0.0,-8.79,-8.7313,-8.6993,-8.7136,-8.6502,-8.5597,-8.4571,0.0,-8.2504,-8.2275,-7.9893,-7.9592,-8.1096,-7.949,-7.9445,-8.0548,-7.9664,-7.9357,-7.9447,-7.9327,-7.8849,-7.813,-7.7921,-7.875,0.0,-7.6099,-7.4869,-7.5078,-7.6455,-7.2946,-6.8346,-7.048,-6.8628,-6.4849,-6.0527,-5.918,-5.9355,-6.0273,-6.1094,-6.1933,-6.2812,-6.2988,-6.4086,-6.8239,-6.6953,-6.7876,-7.7884,-8.1511,-8.238,-8.1093,-8.1901,-8.2066,-7.9964,-8.5951,-9.3198,-9.9539,-9.6704,-9.6104,-10.1769,-10.2488,-10.2488,-10.2488,-10.2488,-10.2488,-10.2488,-10.2488,-10.0805,-9.6798,-9.0902,-8.7103,-8.6023,-8.7103,-8.4234,-7.6945,-8.2977,-8.5496,-8.4416,-8.5496,-8.5998,-8.5998,-8.5998,-8.5998,-8.5998,-8.5998,-8.5998,-8.5922,-8.4843,-8.9939,-9.8389,-9.7132,-9.6653,-9.6653,-9.6653,-9.6653,-9.6833,0.0,0.0,0.0,0.0,0.0,0.0,-8.2432,-8.0886,-7.9503,-7.8837,-7.8604,-7.8382,-7.8093,-7.834,-7.9223,0.0,0.0,0.0,0.0,0.0,0.0,0.0,0.0,0.0,-8.5117,0.0,0.0,-8.4339,-8.2463,0.0,0.0,0.0,0.0,0.0,-7.9736,-7.9809,-8.1381,-7.9768,-7.9357,0.0,0.0,-7.9058,-7.8789,0.0,0.0,0.0,0.0,-7.4869,-7.5288,-7.7891,-7.7057,-7.4871,-7.4871,-6.7616,-5.9738,-6.2049,-6.2773,-6.266,-6.1903,-6.1992,-6.2578,-6.3965,-6.492,-6.7178,-7.3839,-7.5131,-7.6936,-8.4353,-8.4205,-8.2844,-8.2844,-8.2844,-8.2844,-8.2844,-9.019,-9.5606,-9.4469,-8.9464,-8.9205,-9.7957,-10.1074,-10.2488,-10.2488,-10.2488,-10.2488,-10.2488,-10.2488,-10.3625,-10.6288,-9.3841,-8.6701,-8.6701,-8.7931,-8.8902,-8.9529,-8.9503,-8.9503,-8.9529,-8.717,-8.5998,-8.5998,-8.5998,-8.5998,-8.5998,-8.5998,-8.5998,-8.5998,-8.5998,-9.1292,-9.9316,-9.8748,-9.8538,-9.8598,-9.9167,-9.9376,-9.9286,0.0,0.0,0.0,0.0,0.0,0.0,-8.0352,-7.8092,-7.6683,-7.6964,-7.6387,-7.6606,-7.8525,-7.822,-7.8202,0.0,0.0,0.0,0.0,0.0,0.0,0.0,0.0,0.0,0.0,0.0,0.0,-8.1777,-8.2131,0.0,0.0,0.0,0.0,0.0,0.0,-7.8933,-7.9178,-7.9699,0.0,0.0,0.0,0.0,0.0,0.0,0.0,0.0,0.0,-7.4869,-7.5288,-7.7891,-8.0155,-8.1857,-8.1857,-7.1424,-6.121,-7.1508,-7.4563,-7.2701,-6.409,-6.2871,-6.414,-6.4258,-7.111,-7.6962,-7.3707,-7.7569,-8.2119,-8.2945,-8.2994,-8.2844,-8.2844,-8.2844,-8.2844,-8.2844,-8.5581,-8.609,-8.1272,-8.3681,-8.6419,-8.734,-9.6406,-10.2488,-10.2488,-10.2488,-10.2488,-10.2488,-10.2488,-10.3625,-10.6288,-9.5297,-8.8961,-8.8961,-8.7253,-9.1084,-10.0854,-10.0949,-10.0949,-10.0854,-9.0738,-8.5998,-8.5998,-8.5998,-8.5998,-8.5998,-8.5998,-8.5998,-8.5998,-8.5998,-9.2372,-10.189,-9.9466,-9.8538,-9.8808,-10.1231,-10.2099,-10.18,0.0,0.0,0.0,0.0,0.0,0.0,-8.0376,-7.7821,-7.6295,-7.7293,-7.7084,-7.7266,-7.8119,-7.831,-7.896,-8.027,0.0,0.0,0.0,0.0,0.0,0.0,0.0,0.0,0.0,0.0,-8.1237,-7.9839,-8.0113,0.0,0.0,0.0,0.0,0.0,0.0,-7.9557,-8.0794,-7.9736,0.0,0.0,0.0,0.0,0.0,0.0,0.0,0.0,0.0,0.0,-8.1155,-8.4066,-8.5721,-8.5888,-8.1674,-7.6092,-7.1666,-7.5061,-7.6055,-7.3972,-6.4297,-6.2988,-6.605,-7.3467,-7.7414,-7.9726,-8.0908,-8.2,-8.2844,-8.2844,-8.2844,-8.2844,-8.2844,-8.2844,-8.2844,-8.2844,-8.3636,-8.4684,-8.5761,-8.4849,-8.4491,-8.5847,-9.5801,-10.2488,-10.2488,-10.2488,-10.3176,-10.4732,-10.4822,-10.4613,-10.4104,-10.1188,-9.8881,-9.7289,-9.6408,-9.8056,-10.2518,-10.2488,-10.2488,-10.2364,-9.8056,-9.5902,-9.57,-8.8988,-8.5998,-8.5998,-8.5998,-8.5998,-8.5998,-8.5998,-8.8579,-9.3128,-9.8665,-10.0902,-10.1022,-10.2099,-10.2488,-10.3086,0.0,0.0,0.0,0.0,0.0,-8.0509,-8.0411,-7.7732,-7.6086,-7.7352,-7.7592,-7.7954,-7.879,-7.9746,-8.0887,-8.2338,-8.1777,0.0,0.0,0.0,0.0,0.0,0.0,0.0,0.0,0.0,-8.0051,-7.8789,-7.8789,-7.8878,0.0,0.0,-7.9747,-8.0885,0.0,0.0,0.0,0.0,0.0,0.0,0.0,0.0,0.0,0.0,0.0,0.0,0.0,0.0,0.0,0.0,0.0,-8.8233,-8.335,-8.1824,-8.0791,-7.5627,-7.5025,-7.4118,-6.4975,-6.3379,-6.7286,-7.9576,-8.1026,-8.067,-8.5584,-8.4654,-8.2844,-8.2844,-8.214,-8.1601,-8.1601,-8.223,-8.2844,-8.2844,-8.2844,-8.4325,-8.8843,-8.5522,-8.3591,-8.5946,-9.583,-10.2488,-10.2488,-10.2488,-10.3296,-10.5121,-10.5211,-10.4433,-10.2608,-10.4224,-10.4403,-10.2578,-10.2488,-10.2488,-10.2488,-10.2488,-10.2488,-10.2488,-10.2488,-10.2488,-10.2176,-9.4449,-9.0844,-9.0658,-8.7476,-8.5998,-8.5998,-8.5998,-8.5998,-8.7145,-9.8155,-10.2488,-10.2488,-10.2488,-10.4187,-10.7217,0.0,0.0,0.0,0.0,0.0,-8.1679,-8.0075,-7.7112,-7.5478,-7.6624,-7.7053,-7.8267,-8.1015,-8.289,-8.4283,-8.502,-8.2835,0.0,0.0,0.0,0.0,0.0,0.0,0.0,0.0,0.0,-7.8789,-7.8789,-7.8789,-7.9148,-7.9806,-7.9806,-7.9806,-7.9806,0.0,0.0,0.0,0.0,0.0,0.0,0.0,0.0,-7.8789,0.0,0.0,0.0,0.0,0.0,0.0,0.0,0.0,0.0,0.0,-8.9016,-8.6408,-7.3308,-7.2615,-7.4332,-6.642,-6.4316,-6.7286,-7.9576,-8.1026,-8.067,-8.5584,-8.4654,-8.2844,-8.2844,-8.0674,-7.8819,-7.8819,-8.0973,-8.2844,-8.2844,-8.2844,-8.3696,-8.6329,-8.4457,-8.3722,-8.635,-9.6026,-10.2488,-10.2488,-10.2488,-10.2488,-10.2518,-10.2518,-10.2518,-10.2488,-10.2518,-10.2518,-10.2488,-10.2488,-10.2488,-10.2488,-10.2488,-10.2488,-10.2488,-10.2488,-10.2488,-10.2488,-10.2394,-10.227,-10.1674,-9.0764,-8.5998,-8.5998,-8.5998,-8.5998,-8.7145,-9.8155,-10.2488,-10.2488,-10.2488,-10.8082,-11.5279,0.0,0.0,0.0,0.0,0.0,0.0,-8.2733,-8.0606,-7.9379,-8.0195,-8.0791,-8.1459,-8.2424,-8.3865,-8.4828,-8.5181,-8.3274,0.0,0.0,0.0,0.0,0.0,0.0,0.0,0.0,-7.9238,-7.8789,-7.8789,-7.8789,-7.8908,-7.9118,-7.9118,-7.9118,-7.9118,-7.9118,-7.9507,0.0,-7.9178,0.0,0.0,0.0,-7.8789,-7.8998,0.0,0.0,0.0,0.0,0.0,0.0,0.0,0.0,0.0,0.0,0.0,0.0,-8.0596,-7.631,-7.3919,-7.4491,-7.5742,-7.7823,-8.1746,-8.6275,-9.0577,-9.3712,-9.3758,-9.1244,-8.4241,-8.0644,-7.8789,-7.8789,-7.9477,-8.0644,-8.2469,-8.1242,-8.0973,-8.3636,-8.6389,-8.7766,-8.6778,-8.9651,-9.4528,-10.18,-10.2488,-10.2488,-10.2488,-10.2488,-10.2488,-10.2488,-10.2488,-10.2488,-10.2488,-10.4224,-10.4313,-10.2488,-10.2488,-10.2488,-10.2488,-10.2488,-10.2488,-10.2488,-10.2488,-9.8351,-9.1057,-8.7561,-8.5998,-8.5998,-8.5998,-8.5998,-8.6333,-8.9826,-9.5801,-10.2488,-10.2488,-10.8136,-11.6281,0.0,0.0,0.0,0.0,0.0,0.0,-8.4529,-8.3308,-8.2574,-8.2742,-8.3696,-8.4617,-8.5168,-8.6513,-8.77,-8.8319,-8.6693,0.0,0.0,0.0,0.0,0.0,0.0,0.0,-8.1093,-7.9597,-7.8789,-7.8789,-7.8789,-7.8789,-7.8789,-7.8789,-7.8789,-7.8789,-7.8789,-7.9238,0.0,-7.9148,0.0,0.0,-7.8789,-7.8789,-7.9088,0.0,0.0,0.0,0.0,0.0,0.0,0.0,0.0,0.0,0.0,0.0,0.0,0.0,-7.9768,-7.6521,-7.681,-7.7888,-7.9786,-8.3269,-8.7973,-9.2747,-9.6991,-9.8003,-9.5903,-8.8422,-8.465,-8.2726,-8.2726,-8.2726,-8.2728,-8.2815,-8.3038,-8.3846,-8.5492,-8.7706,-9.001,-9.2374,-9.2643,-9.4858,-10.0423,-10.189,-10.3913,-10.7288,-10.443,-10.2488,-10.2488,-10.2488,-10.2488,-10.2488,-10.4104,-10.4134,-10.2488,-10.3506,-10.3984,-10.3984,-10.3984,-10.1284,-9.6306,-9.6306,-9.2507,-8.5998,-8.5998,-8.5998,0.0,-8.6927,-8.7253,-8.7253,-8.7253,-9.1442,-9.7881,-10.1303,-10.8136,-11.6602,0.0,0.0,0.0,0.0,0.0,0.0,0.0,-8.5327,-8.508,-8.4398,-8.5874,-8.7441,-8.8768,-9.0388,-9.1981,-9.3537,-9.2153,0.0,0.0,0.0,0.0,0.0,0.0,0.0,-8.2739,-8.0345,-7.9058,-7.9058,-7.8878,-7.8849,-7.8938,-7.8819,-7.8789,-7.8789,-7.8998,-7.8968,-7.8789,-7.8789,-7.8908,-7.9088,-7.9267,-7.9569,0.0,0.0,0.0,0.0,0.0,0.0,0.0,0.0,0.0,0.0,0.0,0.0,0.0,0.0,0.0,0.0,0.0,-7.3699,-7.5813,-8.4731,-8.6808,-8.8533,-9.5606,-9.7428,0.0,-9.3541,-9.1016,-8.9342,-8.9106,-8.9072,-8.7859,-8.3889,-8.6885,-8.986,-9.004,-8.8604,-9.1177,-10.1022,-10.2398,-10.1501,-9.9047,-10.1606,-10.6941,-11.5175,-10.7484,-10.2488,-10.2488,-10.2488,-10.2488,-10.2488,-10.2488,-10.2488,-10.2488,-10.4912,-10.6199,-10.6408,-10.6408,-9.9303,-8.6249,-8.6249,-8.6249,-8.6249,-8.6249,-8.6249,-8.6425,-8.8609,-8.8905,-8.8035,-8.8035,-8.8571,-9.029,-9.8347,-10.6762,-11.4799,0.0,0.0,0.0,0.0,0.0,0.0,0.0,0.0,0.0,0.0,-8.8065,-8.9504,-8.9841,-9.1209,-9.2759,0.0,0.0,0.0,0.0,0.0,0.0,0.0,0.0,0.0,-8.2769,-8.214,-8.1841,-8.1841,-7.9776,-7.9327,-8.0315,-7.9267,-7.8789,-7.8878,-8.0913,-8.0704,-7.8789,-7.8789,-7.9956,-8.1991,-8.4025,-8.6954,0.0,0.0,0.0,0.0,-9.3571,-9.5026,0.0,0.0,0.0,0.0,0.0,0.0,0.0,0.0,-8.4175,-8.5456,-8.3802,0.0,-8.4441,-8.8651,-8.8185,-8.7181,0.0,-9.2079,-9.2853,-8.6627,-8.9187,-9.1812,-8.9512,-8.9072,-8.8788,-8.7798,-8.4194,-8.229,-8.4325,-9.1027,-9.6653,-9.9167,-10.1291,-10.2279,-10.162,-10.8261,-11.3545,-11.5617,-10.7484,-10.2488,-10.2488,-10.2488,-10.2488,-10.2488,-10.2488,-10.2488,-10.2488,-10.3117,-10.4403,-10.6408,-10.6408,-10.0107,-8.8534,-8.8534,-8.8534,-8.8534,-8.8534,-8.8534,-8.8684,-9.0894,-8.5641,-7.613,-7.613,-8.1456,-8.9357,-8.9712,-9.4015,-10.062,0.0,0.0,0.0,0.0,0.0,0.0,0.0,0.0,0.0,0.0,-8.9241,-9.0459,-9.1169,-9.2252,-9.3571,0.0,0.0,0.0,0.0,0.0,0.0,0.0,-9.0806,-8.7661,-8.4641,-8.3367,-8.4479,-8.7781,-8.6287,-8.5936,-8.6701,-8.5904,-8.562,-8.5485,-8.3587,-8.1961,-8.0614,-8.0614,-8.1452,-8.2964,-8.4295,0.0,0.0,0.0,0.0,0.0,-9.5601,-9.665,0.0,-9.8003,-9.5671,-9.2837,0.0,0.0,0.0,0.0,-8.4624,-8.6689,-8.6689,-8.6689,-8.7018,-8.8454,-8.7736,-8.6689,-8.6689,-8.7684,-8.7576,-8.358,-8.5938,-8.87,-8.9034,-9.0222,-9.1493,-9.2421,-8.7525,-8.3369,-8.2875,-9.0818,-9.7641,-10.0034,-10.0513,-10.2847,-10.8125,-11.3007,-11.4068,-10.9973,-10.5239,-10.2488,-10.2488,-10.2488,-10.2488,-10.2488,-10.2488,-10.2488,-10.2488,-10.3685,-10.5002,-10.6408,-10.6408,-10.3226,-9.7005,-9.166,-8.9287,-8.9287,-8.9287,-8.9865,-9.0445,-8.62,-7.9883,-7.3105,-7.2285,-7.8422,-8.763,-8.6425,-9.1162,-9.9241,0.0,0.0,0.0,0.0,0.0,0.0,0.0,0.0,0.0,0.0,0.0,0.0,0.0,0.0,0.0,0.0,0.0,0.0,0.0,0.0,0.0,0.0,-9.5244,-9.1707,-8.7668,-8.4859,-8.6769,-9.3571,-9.3571,-9.3808,-9.4248,-9.4248,-9.4248,-9.3976,-8.7866,-8.5133,-8.5133,-8.5133,-8.5133,-8.5133,-8.5133,0.0,0.0,0.0,0.0,0.0,0.0,0.0,0.0,-9.8544,-9.3621,-8.7227,-8.6808,0.0,0.0,0.0,0.0,0.0,-8.8456,-8.8456,-8.8179,-8.6975,-8.759,-8.8288,-8.786,-8.6026,-8.4112,-8.3041,-8.3654,-8.5446,-8.8538,-9.1169,-9.3339,-9.4632,-9.237,-8.9376,-8.6267,-9.1944,-9.8162,-10.2628,-10.0763,-10.3518,-11.4725,-11.5831,-11.2081,-10.3174,-10.2488,-10.2488,-10.2488,-10.2488,-10.2488,-10.2488,-10.2488,-10.2488,-10.2488,-10.4702,-10.6019,-10.6408,-10.6408,-10.6408,-10.6115,-9.6356,-9.1002,-8.9287,-8.9639,-9.1045,-9.2278,-8.1754,-7.6073,-7.4264,-7.4191,-7.8988,-8.5998,-8.5998,-9.3029,-10.3396,0.0,0.0,0.0,0.0,0.0,0.0,0.0,0.0,0.0,0.0,0.0,0.0,0.0,0.0,0.0,0.0,0.0,0.0,0.0,0.0,0.0,-9.8882,-9.3886,-9.1195,-9.1555,-8.7982,-8.8535,-9.3571,-9.3571,-9.4857,-9.7326,-9.7326,-9.7326,-9.7265,-9.6134,-9.5655,-9.5655,-9.5655,-9.5655,-9.5655,-9.5655,0.0,0.0,0.0,0.0,0.0,0.0,0.0,0.0,-10.0912,-9.6513,-8.9621,-8.7377,0.0,0.0,0.0,0.0,0.0,-9.6224,-9.6224,-9.4746,-8.8303,-9.1492,-9.5591,-9.3128,-9.2196,-9.0193,-8.4038,-8.7713,-9.1396,-8.9443,-8.9478,-8.9067,-8.6817,-9.2181,-9.726,-9.9184,-10.2683,-10.5277,-10.6104,-10.3715,-10.5574,-11.4852,-11.5831,-11.2081,-10.3174,-10.2488,-10.2488,-10.2488,-10.2488,-10.2488,-10.2488,-10.2488,-10.2488,-10.2488,-10.2907,-10.4194,-10.6408,-10.6408,-10.6408,-10.6281,-10.4587,-9.8501,-8.9387,-9.1246,-9.333,-9.5164,-9.1348,-8.3,-7.3117,-8.0827,-8.4777,-8.5998,-8.5998,-9.3029,-10.3396,0.0,0.0,0.0,0.0,0.0,0.0,0.0,0.0,0.0,0.0,0.0,0.0,0.0,0.0,0.0,0.0,0.0,0.0,0.0,-9.665,-9.7123,-9.7664,-9.438,-9.2449,-9.241,-8.8685,-8.7692,-8.9871,-9.394,-9.7495,-10.0405,-10.0405,-10.0405,-10.0405,-10.0405,-10.0405,-10.0405,-10.0405,-10.0405,-10.0303,0.0,0.0,0.0,0.0,0.0,0.0,0.0,0.0,0.0,0.0,-10.0074,-9.6051,-9.0533,0.0,0.0,0.0,0.0,0.0,-9.8003,-9.8003,-9.7556,-9.5684,-9.6631,-9.7631,-9.6277,-9.5973,-9.5015,-9.1685,-9.2364,-9.2658,-8.9647,-8.9072,-9.0222,-9.3706,-9.7766,-10.1487,-10.4498,-10.3392,-10.4673,-11.0972,-11.0518,-11.1334,-11.5397,-11.5831,-11.2081,-10.3174,-10.2488,-10.2488,-10.2488,-10.2488,-10.2488,-10.2488,-10.2488,-10.2488,-10.2488,-10.2488,-10.3805,-10.6408,-10.6408,-10.6408,-10.6408,-10.6408,-10.3499,-9.8237,-9.3088,-9.2049,-9.3907,-9.1723,-8.6336,-8.0037,-8.4262,-8.6751,-8.8374,-9.3178,-10.1179,-11.0057,0.0,0.0,0.0,0.0,0.0,0.0,0.0,0.0,0.0,0.0,0.0,0.0,0.0,0.0,0.0,0.0,0.0,0.0,0.0,-9.5905,-9.6548,-9.6819,-9.576,-9.4679,-9.3732,-8.911,-8.7923,-9.0416,-9.6199,-10.091,-10.4495,-10.4495,-10.4495,-10.4495,-10.4495,-10.4495,-10.4495,-10.4495,-10.3714,-10.2299,0.0,0.0,0.0,0.0,0.0,0.0,0.0,0.0,0.0,0.0,0.0,0.0,0.0,0.0,0.0,-9.7921,-9.8544,-9.8276,-9.9653,-9.9964,-10.0204,-10.1189,-9.8679,-9.6108,-9.6819,-9.6988,-9.6785,-9.6074,-9.5229,-9.3706,-9.0696,-9.1271,-9.4721,-10.2299,-10.4126,-10.4708,-10.4896,-10.2973,-10.4775,-11.3682,-11.5425,-11.5831,-11.5831,-11.5831,-11.2081,-10.3174,-10.2488,-10.2787,-10.3386,-10.2817,-10.2488,-10.2488,-10.2488,-10.2488,-10.2488,-10.2488,-10.3506,-10.551,-10.6109,-10.6408,-10.6408,-10.6408,-10.6408,-10.5792,-9.433,-9.0542,-9.2565,-9.2424,-9.1404,-8.9879,-9.0513,-9.1803,-9.4091,-10.0888,-10.9118,-11.6812,0.0,0.0,0.0,0.0,0.0,0.0,0.0,0.0,0.0,0.0,0.0,0.0,0.0,0.0,0.0,0.0,0.0,0.0,0.0,-9.5364,-9.5973,-9.7834,-9.775,-9.7659,-9.7597,-9.0433,-9.1494,-10.1381,-10.1872,-10.5111,-11.0572,-11.0572,-11.0572,-11.0572,-11.0572,-11.0572,-11.0572,-11.0572,-10.7399,-10.2502,-10.2299,0.0,0.0,0.0,0.0,0.0,0.0,0.0,0.0,0.0,0.0,0.0,0.0,0.0,-10.1716,-10.2136,-10.0202,-9.9161,-10.4427,-10.5794,-10.4604,-9.9612,-9.4011,-9.0459,-9.3267,-9.3909,-9.3098,-9.029,-9.3977,-9.6785,-9.3808,-9.78,-10.2603,-10.602,-10.8896,-10.8003,-10.0205,-10.5731,-11.0834,-11.1599,-11.4105,-11.5831,-11.5831,-11.5831,-11.2081,-10.3174,-10.2488,-10.3595,-10.5989,-10.3805,-10.2488,-10.2488,-10.2488,-10.2488,-10.2488,-10.2488,-10.2608,-10.2787,-10.5211,-10.6408,-10.6408,-10.6408,-10.6408,-10.5792,-9.433,-9.0542,-9.3011,-9.9048,-10.1538,-10.1627,-10.4026,-10.5033,-10.5181,-10.5877,-11.2003,-11.9586,0.0,0.0,0.0,0.0,0.0,0.0,0.0,0.0,0.0,0.0,0.0,0.0,0.0,0.0,0.0,0.0,0.0,0.0,-9.3021,-9.4586,-9.5432,-9.5263,-9.7022,-9.8003,-9.8003,-9.7024,-9.8508,-10.2502,-10.8084,-11.1998,-11.4194,-11.4194,-11.3093,-11.1221,-11.1221,-11.1221,-11.1221,-11.1221,-10.9869,-10.789,-10.789,-10.9221,0.0,0.0,0.0,0.0,0.0,0.0,0.0,0.0,-10.2502,-10.2502,-10.2502,-10.2502,-10.2502,-10.2502,-10.0405,-9.922,-10.488,-10.6376,-10.5918,-10.3784,-9.8886,-9.4102,-9.216,-9.3009,-9.5339,-9.9374,-10.0506,-10.0995,-10.1532,-10.3437,-10.5371,-10.6682,-10.4909,-10.2811,-10.1152,-10.3818,-10.7905,-11.3492,-11.3496,-11.3801,-11.5628,-11.5831,-11.2081,-10.3174,-10.2488,-10.2907,-10.3895,-10.2997,-10.2488,-10.2488,-10.7944,-10.8082,-10.2612,-10.2488,-10.2488,-10.2488,-10.3506,-10.4822,-10.6408,-10.6408,-10.6408,-10.5821,-9.5734,-9.5059,-10.1236,-10.2075,-10.3476,-10.5211,-10.7815,-10.8832,-10.9595,-11.5606,-12.1468,-12.5866,0.0,0.0,0.0,0.0,0.0,0.0,0.0,0.0,0.0,0.0,0.0,0.0,0.0,0.0,0.0,0.0,0.0,0.0,-9.4111,-9.4734,-9.506,-9.4992,-9.7834,-9.8984,-9.8037,-10.1014,-10.2502,-10.2502,-11.1599,-11.5993,-11.5993,-11.5002,-11.3901,-11.2689,-11.1698,-11.1808,-11.2689,-11.2689,-11.1123,-10.8591,-11.0481,-11.1221,0.0,0.0,0.0,0.0,0.0,0.0,0.0,0.0,-10.2502,-10.2502,-10.2502,-10.2502,-10.2502,-10.2502,-10.1014,-10.0421,-10.5098,-10.6376,-10.6192,-10.5091,-10.1412,-9.7112,-9.3711,-9.3831,-9.7248,-10.6389,-10.5986,-10.4375,-10.608,-10.6376,-10.6209,-10.5569,-10.0876,-9.8209,-10.0902,-10.1979,-10.5832,-11.4703,-11.4004,-11.3598,-11.5628,-11.5831,-11.3348,-10.7202,-10.4096,-10.2488,-10.2488,-10.2488,-10.2488,-10.2488,-11.1109,-11.2929,-10.6767,-10.3093,-10.168,-10.2488,-10.2488,-10.3416,-10.5211,-10.6019,-10.6408,-10.5949,-9.9711,-10.1734,-10.9278,-10.8487,-10.9175,-11.0782,-11.0449,-11.0328,-11.1509,-12.1073,-12.7303,-12.9891,0.0,0.0,0.0,0.0,0.0,0.0,0.0,0.0,0.0,0.0,-10.0711,0.0,0.0,0.0,0.0,0.0,0.0,0.0,-10.0209,-9.6055,-9.5044,-9.7963,-10.0976,-10.1179,-9.8132,-10.0976,-10.2566,-10.2566,-11.1615,-11.5993,-11.5883,-11.2689,-11.291,-11.5883,-11.2689,-11.302,-11.5993,-11.5993,-11.0802,-10.3078,-10.8912,-11.1221,-11.1221,0.0,0.0,0.0,0.0,0.0,0.0,0.0,-10.26,-10.2502,-10.2502,-10.2502,-10.2502,-10.2502,-10.2502,-10.307,-10.5596,-10.6302,-10.5495,-10.2297,-9.9718,-9.7969,-9.8037,-9.6317,-9.7855,-10.9023,-10.9031,-10.6823,-10.648,-10.6413,-10.5605,-10.287,-9.8054,-9.5516,-9.8119,-10.0782,-10.5681,-11.4628,-11.569,-11.5831,-11.5831,-11.5831,-11.5831,-11.5831,-10.7484,-10.2488,-10.2488,-10.2488,-10.2458,-10.2552,-11.1221,-11.5729,-11.5729,-10.4344,-9.9916,-10.2646,-10.2552,-10.2488,-10.2578,-10.5211,-10.6408,-10.6378,-10.6475,-11.0004,-11.6101,-11.9078,-12.0262,-11.9555,-11.3024,-11.0369,-11.1577,-12.1208,-12.7728,-13.0679,0.0,0.0,0.0,0.0,0.0,0.0,0.0,0.0,0.0,-10.1494,-10.3297,0.0,0.0,0.0,0.0,0.0,0.0,0.0,-10.4624,-10.3318,-10.3976,-10.7107,-10.8101,-10.708,-10.4,-10.6972,-10.972,-11.2002,-11.4703,-11.5993,-11.5883,-11.2689,-11.291,-11.5993,-11.5002,-11.5112,-11.5993,-11.5993,-11.2,-10.6072,-11.2192,-11.3203,-11.1221,0.0,0.0,0.0,0.0,0.0,0.0,0.0,0.0,0.0,-10.558,-10.4193,-10.2502,-10.2502,-10.2502,-10.2083,-10.0107,-9.9585,-10.0009,-10.1832,-9.8534,-9.6007,-10.0202,-10.2215,-10.3598,-10.4919,-10.6104,-10.6823,-10.648,-10.8285,-10.8221,-10.3308,-9.8054,-9.4888,-9.5666,-9.803,-10.0701,-10.3262,-11.0801,-11.5831,-11.5831,-11.5831,-11.5831,-11.5831,-10.7484,-10.2488,-10.2488,-10.2488,-10.5449,-11.1686,-11.2396,-11.1703,-10.9572,-10.6138,-10.5872,-10.872,-10.2635,-10.0693,-10.2518,-10.3296,-10.3685,-10.4004,-11.0309,-11.5305,-11.9011,-11.989,-11.9011,-11.7056,-11.7311,-11.7265,-11.8318,-12.6009,-13.0003,-13.0679,0.0,0.0,0.0,0.0,0.0,0.0,0.0,0.0,0.0,-10.1494,-10.4394,-10.6376,0.0,0.0,0.0,0.0,0.0,0.0,-10.8285,-10.8285,-10.9202,-11.1111,-11.1221,-11.0304,-10.8321,-11.0193,-11.2212,-11.4084,-11.5406,-11.5296,-11.4084,-11.3387,-11.4121,-11.5993,-11.5993,-11.5993,-11.5993,-11.5993,-11.2482,-10.7233,-11.0874,-11.2699,-11.2983,0.0,0.0,0.0,0.0,0.0,0.0,0.0,0.0,0.0,-10.6494,-10.5682,-10.4476,-10.5634,-10.6029,-10.539,-10.3074,-10.2485,-10.1887,-9.9568,-9.8037,-9.807,-10.169,-10.3889,-10.5294,-10.5922,-10.7399,-10.8296,-10.6899,-10.7218,-10.6607,-10.3073,-9.8054,-9.4618,-9.4618,-9.6862,-9.8538,-9.8538,-10.7663,-11.4511,-11.5729,-11.4714,-11.4105,-11.4105,-10.9083,-10.6015,-10.6015,-10.6015,-10.849,-11.3894,-11.1196,-10.9899,-11.05,-11.0523,-11.0204,-10.9571,-10.5514,-10.5057,-10.7687,-10.4066,-10.4399,-10.8114,-11.4698,-11.8605,-12.0195,-11.8977,-11.7421,-11.6,-11.7793,-11.8503,-11.9516,-12.787,-12.9602,-12.7294,0.0,0.0,-9.8154,-10.1384,0.0,0.0,0.0,0.0,0.0,0.0,-10.4504,-10.6376,0.0,0.0,0.0,0.0,0.0,0.0,0.0,-11.1221,-11.1221,-11.1221,-11.1221,-11.1221,-11.1221,-11.1221,-11.1221,-11.1221,-11.4121,-11.4084,-11.1295,-11.4488,-11.5993,-11.5993,-11.5993,-11.6287,-11.6801,-11.5883,-11.2411,-10.7287,-10.6998,-11.0168,-11.4908,-11.2509,0.0,0.0,0.0,0.0,0.0,0.0,0.0,0.0,-10.6905,-10.7489,-10.7809,-11.0381,-11.0817,-11.0304,-11.0304,-11.0177,-10.7413,-9.6646,-9.8476,-10.2908,-10.2908,-10.2705,-10.4126,-10.9809,-11.0993,-11.008,-10.7069,-10.4295,-10.2502,-10.2502,-9.8443,-9.5201,-9.4645,-9.6653,-9.8179,-9.8179,-10.5676,-11.2177,-11.512,-11.2718,-11.0993,-11.0993,-11.0993,-11.0993,-11.0993,-11.0993,-11.0993,-11.0993,-10.8928,-11.0276,-11.5507,-11.5883,-11.3177,-10.7827,-11.0832,-11.3488,-11.547,-10.7398,-10.8326,-11.6338,-11.8808,-11.989,-11.9687,-11.6913,-11.5831,-11.5831,-11.5831,-11.6198,-11.7843,-12.7301,-12.6909,-12.2115,0.0,0.0,-10.1494,-10.4798,0.0,0.0,0.0,0.0,0.0,0.0,-10.5972,0.0,0.0,0.0,0.0,0.0,0.0,0.0,0.0,-11.1221,-11.1221,-11.1221,-11.1221,-11.1221,-11.1221,-11.1221,-11.1221,-11.1221,-11.1919,-11.1919,-11.1295,-11.4488,-11.5993,-11.5993,-11.5993,-11.8783,-12.3077,-11.5479,-11.1502,-11.0102,-10.7809,-10.7693,-10.9321,-11.3399,-11.5406,0.0,0.0,0.0,0.0,0.0,0.0,0.0,-11.3805,-11.2308,-11.0405,-11.1019,-10.7587,-10.3586,-10.3586,-10.2195,-10.0215,-9.7692,-10.1521,-10.5986,-10.5986,-10.4193,-10.3517,-10.7103,-10.7881,-10.6967,-10.399,-10.2908,-10.2502,-10.2502,-10.1521,-9.9305,-9.5171,-9.5097,-9.5456,-9.5456,-10.2809,-10.8997,-11.2076,-10.9606,-10.7881,-10.7881,-10.7881,-10.7881,-10.7881,-10.7881,-10.7881,-10.7881,-11.1915,-11.3516,-11.2212,-11.4708,-11.5332,-11.4095,-11.7315,-11.7784,-11.5724,-11.3807,-11.5336,-11.918,-11.7488,-11.6812,-11.671,-11.6101,-11.5831,-11.5831,-11.5831,-11.8986,-12.3616,-12.3713,-12.2908,-12.1975,0.0,0.0,0.0,0.0,0.0,0.0,0.0,0.0,0.0,0.0,0.0,0.0,0.0,-11.0193,0.0,0.0,-11.1221,-11.1221,-11.1221,-11.1221,-11.1221,-11.1221,-11.1221,-11.1919,-11.3497,-11.3497,-11.2726,-11.1221,-11.1221,-11.1221,-11.1221,-11.291,-11.4488,-11.6103,-11.7608,-11.937,-12.0581,-11.4011,-11.2102,-11.3076,-10.8739,-10.7779,-10.9607,-11.4206,-11.5993,-11.5993,-11.5993,0.0,0.0,0.0,0.0,0.0,0.0,0.0,-11.1221,-11.1221,-10.8799,-10.488,-9.923,-9.8909,-10.0506,-10.1893,-10.4599,-10.6494,-10.5107,-10.5792,-10.6337,-10.5082,-10.4802,-10.4295,-10.2806,-10.2502,-10.2502,-10.2502,-10.2502,-10.1521,-9.8811,-9.5065,-9.3182,-9.4469,-10.1903,-10.7509,-10.9099,-10.7779,-10.69,-10.69,-10.69,-10.6291,-10.4904,-10.4802,-10.4802,-10.4802,-11.0584,-11.3607,-11.3497,-11.689,-11.7787,-11.5993,-11.7718,-11.8376,-11.8173,-11.6476,-11.671,-11.8097,-11.6507,-11.5831,-11.5831,-11.5831,-11.5831,-11.5782,-11.5935,-11.799,-12.1118,-12.1503,-12.2402,-12.3803,0.0,0.0,0.0,0.0,0.0,0.0,0.0,0.0,0.0,0.0,0.0,0.0,0.0,-11.1221,-11.1221,0.0,0.0,0.0,-11.1221,-11.1221,-11.1221,-11.1221,-11.181,-11.3109,-11.5075,-11.5185,-11.3901,-11.1221,-11.1221,-11.1221,-11.1221,-11.1221,-11.291,-11.6103,-11.8783,-11.8489,-11.581,-11.3203,-11.3607,-11.5631,-11.0464,-10.9978,-11.249,-11.4984,-11.5993,-11.5993,-11.5993,-11.5993,-11.5479,-11.2286,0.0,0.0,0.0,0.0,-11.1221,-11.1221,-11.1221,-10.9093,-9.9297,-9.9906,-10.3821,-10.6291,-10.69,-10.6088,-10.3212,-10.6184,-10.8302,-10.3507,-10.2502,-10.2502,-10.2502,-10.2502,-10.2502,-10.2502,-10.2502,-10.2502,-10.2502,-9.6791,-9.3482,-9.5668,-10.2037,-10.6122,-10.6122,-10.6122,-10.6122,-10.6122,-10.6122,-10.5107,-10.2603,-10.2502,-10.2502,-10.2502,-10.8686,-11.3313,-11.5993,-11.9089,-11.9386,-11.7006,-11.6291,-11.7682,-12.0804,-11.8013,-11.6993,-11.7371,-11.6308,-11.5526,-11.5019,-11.4511,-11.4885,-11.5814,-11.5315,-11.5479,-11.6418,-12.0095,-12.3313,-12.5684,0.0,0.0,0.0,0.0,0.0,0.0,0.0,0.0,0.0,0.0,-10.6376,-10.7587,-11.0817,-11.1221,-11.1221,-11.1221,-11.1221,-11.1221,-11.1221,0.0,0.0,-11.1221,-11.4092,-11.4585,-11.1897,-11.1808,-11.1625,-11.1221,-11.1221,-11.1221,-11.1221,-11.1221,-11.291,-11.5993,-11.6507,-11.6397,-11.5993,-11.5516,-11.5589,-11.591,-11.5104,-11.4983,-11.5409,-11.5787,-11.5993,-11.5993,-11.5993,-11.5993,-11.5479,-11.2286,-11.1221,0.0,0.0,0.0,-11.1221,-11.1221,-11.1221,-11.0905,-10.9294,-10.7598,-10.6392,-10.6798,-10.69,-10.6088,-10.3212,-10.3103,-10.3411,-10.2695,-10.2502,-10.2502,-10.2502,-10.2502,-10.2502,-10.2502,-10.2502,-10.2502,-10.2502,-10.1618,-10.0986,-10.1419,-10.2421,-10.3111,-10.3111,-10.3111,-10.3111,-10.3111,-10.3111,-10.2908,-10.2502,-10.2502,-10.2502,-10.2502,-11.094,-11.5589,-11.5993,-11.6477,-11.8093,-12.0821,-11.7626,-11.7682,-12.0912,-12.0431,-12.1676,-12.4118,-11.8291,-11.4308,-11.1805,-10.92,-11.1186,-11.5723,-11.2931,-11.3497,-11.6415,-11.9815,-12.3026,-12.5684,0.0,0.0,0.0,0.0,0.0,0.0,0.0,0.0,0.0,0.0,0.0,-10.9606,-11.1001,-11.1221,-11.1221,-11.1221,-11.1221,-11.1221,-11.1221,-11.1221,-11.2105,-11.4103,-11.5689,-11.4811,-11.1309,-11.1221,-11.1221,-11.1221,-11.1221,-11.1221,-11.1221,-11.1221,-11.291,-11.5993,-11.5993,-11.5993,-11.5993,-11.5993,-11.5993,-11.5993,-11.5993,-11.5993,-11.5993,-11.5993,-11.5993,-11.5993,-11.5993,-11.5993,-11.5773,-11.4378,-11.3901,-11.3901,-11.3901,0.0,0.0,0.0,-11.1221,-11.1221,-11.1221,-10.7891,-10.4396,-10.4396,-10.689,-10.8982,-10.7685,-10.7418,-10.7418,-10.7418,-10.4827,-10.2502,-10.2502,-10.2502,-10.2502,-10.2502,-10.2502,-10.2502,-10.2502,-10.2502,-10.2502,-10.2502,-10.2502,-10.2502,-10.2502,-10.2502,-10.2502,-10.2502,-10.2502,-10.2502,-10.2502,-10.2502,-10.328,-10.4904,-10.8818,-11.25,-11.603,-11.5993,-11.6799,-11.8387,-11.683,-11.7682,-12.0912,-12.0912,-12.1683,-12.2784,-11.9893,-11.6873,-11.3887,-11.2486,-11.248,-11.3313,-11.3717,-11.6984,-12.1572,-12.3077,-12.4472,-12.5684,0.0,0.0,0.0,0.0,0.0,0.0,0.0,0.0,0.0,0.0,0.0,-11.2189,-11.1316,0.0,0.0,0.0,-11.1221,-11.1221,-11.1221,-11.1221,-11.2814,-11.6316,-11.6484,-11.4811,-11.1309,-11.1221,-11.1221,-11.1221,-11.1221,-11.1221,-11.1221,-11.291,-11.5406,-11.8379,-11.669,-11.5993,-11.5993,-11.5993,-11.5993,-11.5993,-11.5993,-11.5993,-11.591,-11.5114,-11.5896,-11.7392,-11.7392,-11.7988,-11.8611,-11.7626,-11.7204,-11.7288,-11.7396,-11.5789,0.0,0.0,0.0,-11.1221,-11.1221,-10.6864,-10.2299,-10.1521,-10.6297,-11.1221,-11.1221,-11.1221,-11.1221,-11.1221,-10.6607,-10.2502,-10.2502,-10.2502,-10.2502,-10.2502,-10.3687,-10.4674,-10.4674,-10.3411,-10.2502,-10.2502,-10.2502,-10.2502,-10.2502,-10.2502,-10.2502,-10.2502,-10.3906,-10.4674,-10.4674,-10.332,-10.3517,-10.5716,-10.5783,-10.9111,-11.591,-11.5993,-11.5993,-11.5993,-11.5993,-11.7682,-12.0912,-12.0912,-12.0912,-12.0875,-11.9994,-11.8306,-11.6085,-11.6973,-11.5915,-11.4011,-11.7204,-12.1389,-12.5684,-12.5684,-12.5684,-12.5684,0.0,0.0,0.0,0.0,0.0,0.0,0.0,0.0,0.0,0.0,0.0,-11.4898,-11.1588,-11.1221,-11.1221,-11.1221,-11.1221,-11.1221,-11.1221,-11.1221,-11.2814,-11.6316,-11.6484,0.0,-11.1309,-11.1221,-11.1221,-11.1221,-11.1221,-11.1221,-11.1295,-11.7498,-12.2086,-12.4876,-11.8783,-11.5993,-11.5993,-11.5993,-11.5993,-11.5993,-11.5993,-11.5993,-11.5673,-11.2794,-11.5701,-12.1293,-12.1293,-12.3406,-12.5619,-12.1866,-12.0618,-12.0709,-12.1206,-12.1178,-12.1101,0.0,0.0,0.0,-11.1221,-10.6864,-10.1825,-9.895,-10.4792,-11.1221,-11.1221,-11.1221,-11.1221,-11.1221,-10.6607,-10.2502,-10.2502,-10.2502,-10.2502,-10.2502,-10.7115,-11.0672,-11.0672,-10.5994,-10.2502,-10.2502,-10.2502,-10.2502,-10.2502,-10.2502,-10.2502,-10.2502,-10.7593,-11.0672,-11.0672,-10.5482,-10.2603,-10.2705,-10.2705,-10.7007,-11.591,-11.5993,-11.5993,-11.5993,-11.5993,-11.7682,-12.0912,-12.0912,-12.0912,-12.0691,-11.7608,-11.6177,-11.6283,-11.9794,-12.0931,-12.0691,-12.3885,-12.539,-12.5684,-12.5684,-12.5684,-12.5684,0.0,0.0,0.0,0.0,0.0,0.0,0.0,0.0,0.0,0.0,0.0,0.0,0.0,-11.1221,-11.1221,-11.1221,-11.1221,-11.1221,-11.1221,-11.1221,-11.1805,-11.2999,-11.5321,-11.4811,-11.1309,-11.1221,-11.1221,-11.1221,-11.1221,-11.1221,-11.1375,-12.2598,-12.8421,-12.9196,-12.23,-11.9113,-11.9297,-12.1279,-11.9872,-11.6478,-11.8704,-11.5719,-10.9979,-11.1085,-11.4291,-11.8292,-11.8292,-12.1908,-12.6798,-12.7626,-12.7775,-12.7511,-12.5492,-12.3408,-12.1177,-11.8985,-11.4907,-11.1221,-11.1221,-10.9715,-10.7811,-10.6715,-10.7285,-10.8688,-11.0707,-11.1221,-11.1221,-11.1221,-10.9499,-10.6899,-10.3229,-10.2502,-10.2502,-10.2502,-10.7418,-11.1221,-11.1221,-10.9403,-10.6717,-10.2913,-10.2502,-10.2502,-10.2502,-10.2502,-10.4116,-10.7786,-11.0,-11.1221,-11.1221,-10.9172,-10.6386,-10.2597,-10.2502,-10.6832,-11.591,-11.5993,-11.7094,-11.9113,-11.9113,-11.8709,-11.7775,-12.0268,-12.1298,-12.1406,-12.242,-12.1622,-11.9786,-12.29,-12.409,-12.4105,-12.5206,-12.5684,-12.5684,-12.5684,-12.5684,-12.5684,0.0,0.0,0.0,-11.6484,0.0,-11.3214,-11.3214,-11.5099,-11.6484,-11.6484,0.0,0.0,0.0,0.0,-11.1221,-11.1221,-11.1221,-11.1221,-11.1221,-11.2212,-11.2322,-11.1221,-11.4603,-11.4811,-11.1309,-11.1221,-11.1221,-11.1221,-11.1221,-11.181,-11.3186,-12.2296,-12.6822,-12.698,-12.3409,-12.152,-12.1305,-12.3396,-12.199,-11.8407,-12.0677,-11.6215,-10.8521,-11.1906,-11.4599,-11.6484,-11.6484,-11.9408,-12.4101,-12.9794,-13.0987,-12.9602,-12.7409,-12.4409,-12.1177,-11.8908,-11.5686,-11.2701,-11.1466,-11.1221,-11.1221,-11.1221,-10.9606,-10.7991,-10.7991,-10.8799,-10.9606,-10.9606,-10.9606,-10.8099,-10.3364,-10.2502,-10.2502,-10.2502,-10.5803,-10.8287,-10.8287,-10.8287,-10.681,-10.2981,-10.2502,-10.2502,-10.2502,-10.2502,-10.4876,-11.0791,-11.1221,-11.1221,-11.1221,-11.1221,-10.8504,-10.2695,-10.3483,-10.7785,-11.591,-11.7094,-11.9387,-12.2806,-12.1718,-11.9997,-11.7979,-12.1695,-12.3909,-12.5101,-12.7409,-12.6287,-12.3097,-12.4907,-12.6308,-12.7189,-12.6087,-12.5684,-12.5684,-12.5684,-12.5684,-12.5684,-11.6484,-11.6484,-11.6484,-11.6484,-11.6484,-11.6484,-11.6484,-11.6484,-11.6484,-11.6484,0.0,0.0,0.0,0.0,0.0,-11.1295,-11.1295,-11.1221,-11.1221,-11.4194,-11.4598,-11.1515,-11.4717,-11.4907,-11.1417,-11.1404,-11.1286,-11.1176,-11.1286,-11.3108,-11.6484,-11.6496,-11.719,-11.8398,-12.1797,-12.2683,-12.1716,-12.1608,-12.16,-12.16,-12.1677,-11.7715,-11.2022,-11.5484,-11.6907,-11.6907,-11.6907,-11.6792,-11.7984,-12.7909,-12.9102,-12.6409,-12.6601,-12.4409,-12.1677,-12.16,-11.9177,-11.5728,0.0,0.0,0.0,-11.1221,-11.1221,-10.9496,-10.3182,-10.41,-10.6302,-10.6376,-10.6376,-10.5591,-10.3022,-10.2502,-10.2502,-10.2502,-10.2502,-10.2502,-10.2502,-10.2502,-10.2502,-10.2502,-10.2502,-10.2502,-10.2502,-10.2502,-10.4876,-11.0791,-11.1221,-11.1221,-11.1221,-11.1221,-10.8591,-10.2913,-10.564,-11.0024,-11.591,-11.9401,-12.2888,-12.6486,-12.3178,-12.1677,-12.1908,-12.5293,-12.8602,-13.1679,-13.1679,-12.9496,-12.5894,-12.566,-12.7482,-13.0015,-12.6895,-12.5684,-12.5684,-12.5684,-12.5684,-12.5684,-11.6484,-11.6484,-11.6484,-11.6484,-11.6484,-11.6484,-11.6484,-11.6484,-11.6484,0.0,0.0,0.0,-11.1221,-11.1221,-11.2102,-11.4488,-11.2506,-11.1221,-11.1221,-11.4194,-11.5589,-11.4708,-11.5788,-11.6003,-11.5126,-11.4983,-11.3774,-11.1385,-11.3774,-11.5508,-11.649,-11.7403,-11.7992,-11.8281,-11.9297,-12.0916,-12.291,-12.1984,-12.16,-12.1793,-12.4293,-12.1177,-11.5792,-12.16,-12.5409,-12.7486,-12.7486,-12.2793,-11.6907,-11.9792,-12.01,-12.0177,-12.5101,-12.6101,-12.4793,-12.2293,-11.9177,-11.6309,-11.5282,0.0,0.0,0.0,0.0,0.0,-10.8909,-10.5605,-10.3476,-10.5899,-10.6376,-10.5591,-10.3022,-10.2502,-10.2502,-10.2502,-10.2502,-10.2502,-10.2502,-10.2502,-10.2502,-10.2502,-10.2502,-10.2502,-10.2502,-10.2502,-10.4876,-11.0791,-11.1221,-11.1221,-11.1221,-11.1221,-11.0481,-10.8791,-11.1817,-11.4296,-11.5993,-12.1989,-12.4417,-12.2985,-12.21,-12.2908,-12.5409,-12.8794,-13.0794,-13.1679,-13.1679,-13.1073,-12.9799,-12.6906,-12.6197,-12.6895,-12.5977,-12.5684,-12.5684,-12.5684,-12.5684,-12.5684,-11.6484,-11.6484,-11.6484,-11.6484,-11.6484,-11.6484,-11.6484,-11.6484,-11.6484,0.0,0.0,0.0,-11.1221,-11.1221,-11.1992,-11.3791,-11.2286,-11.1814,-11.3323,-11.5198,-11.6176,-11.6176,-11.6406,-11.6484,-11.6484,-11.6484,-11.5484,-11.3599,-11.5995,-11.7284,-11.7297,-11.7988,-11.8281,-11.8398,-11.9804,-12.1283,-12.2795,-12.3396,-12.3678,-12.3909,-12.5909,-12.5178,-12.2793,-12.2485,-12.3678,-12.5409,-12.5409,-12.2485,-11.86,-11.86,-11.96,-12.1485,-12.5409,-12.5678,-12.4178,-12.2177,-11.9177,-11.6484,-11.6484,-11.4993,-11.3429,-11.3429,0.0,0.0,-11.1509,-10.8285,-10.6082,-10.7991,-10.7294,-10.5906,-10.4365,-10.5228,-10.5308,-10.2883,-10.2502,-10.2502,-10.2502,-10.2502,-10.2502,-10.2502,-10.2502,-10.2502,-10.2502,-10.2502,-10.3933,-10.7276,-10.9774,-11.1221,-11.1221,-11.1221,-11.1221,-11.1221,-11.4305,-11.6825,-11.8279,-12.1073,-12.2177,-12.16,-12.2985,-12.4793,-12.6794,-12.8679,-12.9602,-12.9602,-12.9602,-12.9602,-12.9321,-12.5271,-12.4472,-12.5684,-12.5684,-12.5684,-12.5684,-12.5684,-12.4876,-12.3701,0.0,-11.6792,-11.6484,-11.6484,-11.6484,-11.6484,-11.6484,-11.6484,-11.6484,0.0,-11.3429,-11.1295,-11.1698,-11.1405,-11.1404,-11.1805,-11.181,-11.3108,-11.6309,-11.6484,-11.6484,-11.6484,-11.6484,-11.6616,-11.671,-11.671,-11.671,-11.671,-11.7813,-11.8281,-11.8281,-11.8281,-11.8515,-11.8984,-12.2109,-12.2978,-12.2408,-12.5409,-12.6909,-12.7294,-12.7294,-12.8409,-12.9102,-12.0408,-11.71,-11.71,-11.71,-11.8985,-12.16,-12.16,-12.3408,-12.5678,-12.6486,-12.4409,-12.16,-12.16,-11.9177,-11.6484,-11.6484,-11.6484,-11.6484,-11.6484,-11.6484,0.0,-11.247,-11.0871,-11.0193,-11.0597,-10.8395,-10.6376,-10.6376,-10.8395,-10.8473,-10.3677,-10.2679,-10.2502,-10.2502,-10.2502,-10.2502,-10.2502,-10.2502,-10.2502,-10.2502,-10.2502,-10.2502,-10.2502,-10.789,-11.1221,-11.1221,-11.1221,-11.1221,-11.1221,-11.439,-11.768,-12.1,-11.8407,-11.86,-12.16,-12.5101,-12.6678,-12.6717,-12.6298,-12.6094,-12.6101,-12.6101,-12.5915,-12.5323,-12.219,-12.2784,-12.5684,-12.5684,-12.5463,-12.517,-12.517,-12.3077,-12.0398,-12.01,-11.8407,-11.6484,-11.6484,-11.6484,-11.6484,-11.6484,-11.6484,-11.6484,-11.6484,-11.3429,-11.2212,-11.4782,-11.28,-11.2425,-11.5228,-11.5494,-11.5804,-11.65,-11.6484,-11.6484,-11.6484,-11.6484,-11.7015,-11.7892,-11.7901,-11.7901,-11.7901,-11.8196,-11.8281,-11.8281,-11.8281,-11.9804,-12.25,-12.3203,-12.4294,-12.5678,-12.6409,-12.8294,-13.0679,-13.0679,-12.6178,-11.9485,-12.0292,-12.06,-12.06,-12.06,-12.0985,-12.16,-12.16,-12.0177,-11.9485,-12.4986,-12.4409,-12.16,-12.16,-11.9177,-11.6484,-11.6484,-11.6484,-11.6484,-11.6484,-11.6484,0.0,-11.5587,-10.9193,-10.41,-10.678,-10.678,-10.6376,-10.6376,-10.4798,-10.3918,-10.5388,-10.3909,-10.2502,-10.2502,-10.2502,-10.2502,-10.2502,-10.2502,-10.2502,-10.2502,-10.2502,-10.2502,-10.2502,-10.789,-11.1221,-11.1221,-11.1221,-11.1221,-11.1221,-11.4577,-11.6826,-11.7484,-11.96,-12.0908,-12.16,-12.5101,-12.6678,-12.6605,-12.3503,-12.218,-12.2601,-12.2601,-12.0921,-11.8208,-12.0122,-12.2784,-12.5684,-12.5684,-12.4105,-12.1793,-12.1793,-11.9774,-11.7314,-12.0908,-11.8792,-11.6484,-11.6484,-11.6484,-11.6484,-11.6484,-11.6484,-11.6484,-11.6484,-11.3429,-11.2485,-11.5896,-11.4783,-11.4611,-11.6316,-11.6484,-11.6484,-11.6484,-11.6484,-11.6484,-11.6484,-11.81,-11.9319,-11.9897,-12.0608,-12.0898,-12.0898,-12.0898,-12.0898,-12.0898,-12.0898,-12.1797,-12.3515,-12.3515,-12.4684,-12.6678,-12.6678,-12.8602,-13.1679,-13.1679,-12.6601,-11.9177,-12.0908,-12.16,-12.16,-12.16,-12.16,-12.16,-12.16,-12.0485,-11.9292,-12.11,-12.2793,-12.3485,-12.01,-11.7792,-11.6484,-11.6484,-11.6484,-11.6484,-11.6484,-11.6484,0.0,0.0,-11.2595,-10.9403,-11.1108,-11.141,-11.141,-11.141,-11.0121,-10.8889,-10.8814,-10.7683,-10.681,-10.681,-10.4289,-10.2502,-10.2502,-10.2502,-10.2502,-10.2502,-10.2502,-10.2502,-10.2502,-10.5227,-10.8097,-11.1015,-11.1221,-11.1983,-11.3806,-11.5611,-11.7292,-11.8985,-12.0677,-12.16,-12.16,-12.3293,-12.4178,-12.399,-12.0213,-11.8606,-11.8778,-11.8778,-11.7711,-11.6103,-11.7792,-11.9407,-12.0985,-12.2674,-12.2307,-12.0691,-11.9076,-11.7388,-11.6213,-12.11,-11.8792,-11.6484,-11.6484,-11.6484,-11.6484,-11.6484,-11.71,-11.7176,-11.6599,-11.4,-11.3323,-11.62,-11.6484,-11.6484,-11.6484,-11.6484,-11.6873,-11.7808,-11.7013,-11.6792,-11.7484,-12.01,-12.1908,-12.2601,-12.38,-12.4218,-12.3515,-12.3515,-12.3515,-12.3515,-12.3515,-12.3515,-12.3398,-12.2109,-12.3086,-12.5794,-12.6409,-12.8602,-13.1691,-13.2027,-12.7886,-12.16,-12.16,-12.16,-12.16,-12.16,-12.16,-12.16,-12.16,-12.1177,-12.0408,-11.8908,-12.1793,-12.4486,-11.8292,-11.6484,-11.6484,-11.6484,-11.6484,-11.6293,-11.5689,-11.6017,-11.6484,0.0,0.0,0.0,-11.6484,-11.6484,-11.6676,-11.7407,-11.7484,-11.63,-11.2812,-11.2229,-11.198,-11.1316,-10.7701,-10.4919,-10.4237,-10.3591,-10.3522,-10.4073,-10.32,-10.2502,-10.2502,-10.3501,-10.6184,-11.0889,-11.1221,-11.2814,-11.6416,-11.71,-11.8792,-12.16,-12.16,-12.16,-12.16,-12.0908,-12.06,-12.0492,-11.6812,-11.5406,-11.5993,-11.5993,-11.5993,-11.5993,-11.5993,-11.5993,-11.6287,-11.8893,-11.9994,-11.959,-11.6984,-11.5993,-11.6103,-12.1485,-11.8792,-11.6484,-11.6484,-11.6484,-11.6484,-11.6484,-11.91,-11.9908,-11.6907,-11.6099,-11.6104,-11.65,-11.6484,-11.6484,-11.6484,-11.6484,-11.831,-12.2383,-11.8825,-11.7907,-12.0908,-12.1408,-12.2985,-12.6101,-12.7387,-12.6484,-12.3515,-12.3515,-12.3515,-12.3515,-12.3515,-12.3515,-12.3203,-11.7109,-11.7309,-12.2408,-12.5409,-12.8602,-13.18,-13.311,-12.882,-12.16,-12.16,-12.16,-12.16,-12.16,-12.16,-12.16,-12.16,-11.96,-11.81,-12.3793,-12.3985,-12.1408,-11.76,-11.6484,-11.6484,-11.6484,-11.6484,-11.5702,-11.2623,-11.4199,-11.6484,-11.6484,0.0,-11.6484,-11.6484,0.0,-11.7407,-12.0485,0.0,0.0,-11.6491,-11.5905,-11.4819,-11.16,-11.3113,-11.3393,-11.0587,-10.7663,-10.708,-10.9931,-10.5482,-10.2502,-10.2502,-10.7311,-11.049,-11.1177,-11.1221,-11.2814,-11.6416,-11.9408,-12.1177,-12.16,-12.16,-12.16,-12.16,-11.8484,-11.71,-11.6993,-11.3412,-11.3313,-11.5993,-11.5993,-11.5993,-11.5993,-11.5993,-11.5993,-11.5993,-11.6397,-11.658,-11.6507,-11.6103,-11.5993,-11.6397,-12.16,-11.8792,-11.6484,-11.6484,-11.6484,-11.6484,-11.6484,-11.9408,-12.11,-11.96,-11.7677,-11.6484,-11.6484,-11.7094,-11.7498,-11.7498,-12.2273,-12.3884,-12.0699,-12.0504,-12.0885,-12.1593,-11.9677,-12.1177,-12.6601,-12.7178,-12.6186,-12.3515,-12.3515,-12.3515,-12.3515,-12.3515,-12.3515,-12.3398,-12.0508,-11.9002,-11.8985,-12.4409,-12.8602,-13.1394,-12.8112,-12.5096,-12.3108,-12.7179,-12.5687,-12.16,-12.16,-12.16,-12.1293,-11.9292,-12.0292,-12.2908,-12.5794,-12.4409,-12.0908,-11.7484,-11.7907,-11.8985,-11.6984,-11.6484,-11.6076,-11.4595,-11.5402,-11.6484,-11.6484,-11.6484,-11.71,-11.91,0.0,0.0,0.0,0.0,0.0,0.0,-11.9485,-11.8894,-11.7427,-11.8417,-11.7183,-11.1785,-11.18,-11.1995,-11.13,-10.8975,-10.8385,-11.0491,-11.1102,-11.1296,-11.1206,-11.1221,-11.2707,-11.6102,-11.7601,-11.9386,-12.16,-11.96,-11.86,-11.86,-11.7176,-11.6484,-11.6416,-11.2814,-11.2983,-11.5993,-11.5993,-11.7094,-11.8709,-11.6801,-11.5993,-11.5993,-11.5993,-11.7204,-11.8783,-11.8783,-11.8783,-11.9003,-12.16,-11.96,-11.76,-11.6676,-11.6484,-11.6792,-11.7792,-11.9985,-12.1695,-12.211,-11.9703,-11.7907,-11.7907,-12.0691,-12.25,-12.25,-12.6509,-12.5903,-11.8784,-12.1601,-12.2917,-12.1716,-12.01,-12.16,-12.6601,-12.5794,-12.4496,-12.2983,-12.3306,-12.3515,-12.3515,-12.3515,-12.3008,-12.2109,-12.3086,-12.089,-11.6792,-12.1793,-12.6909,-13.1293,-12.68,-12.4422,-12.3983,-12.8715,-12.6783,-12.16,-12.16,-12.16,-12.1177,-11.8677,-12.06,-12.4101,-12.4986,-12.2985,-11.9677,-11.7176,-11.8292,-11.9677,-11.7176,-11.6484,-11.6484,-11.6484,-11.6484,-11.6484,-11.6484,-11.7176,-11.86,-12.11,-12.16,0.0,0.0,0.0,-11.8677,-12.1177,0.0,-12.16,-12.16,-12.16,-11.9397,-11.3374,-11.4898,-11.552,-11.2889,-11.27,-11.3701,-11.627,-11.3407,-11.1797,-11.2627,-11.1726,-11.2689,-11.5883,-11.5993,-11.6898,-11.8708,-11.7308,-11.6484,-11.6484,-11.6484,-11.6017,-11.5003,-11.2388,-11.2983,-11.5993,-11.5993,-11.7902,-12.0691,-11.8306,-11.6801,-11.5993,-11.5993,-11.7498,-11.959,-11.959,-12.0104,-12.0912,-12.16,-12.1485,-12.0408,-11.71,-11.6484,-11.76,-12.0908,-12.1485,-12.1979,-12.3294,-12.2309,-12.1408,-12.1408,-12.8504,-13.3281,-13.3281,-12.6311,-12.09,-11.8512,-12.1601,-12.2917,-12.1716,-12.4678,-12.6486,-12.6678,-12.3485,-12.1685,-12.1677,-12.2895,-12.3515,-12.3515,-12.3515,-12.1718,-11.8593,-12.1992,-12.089,-11.6484,-11.6676,-12.2601,-13.1785,-13.2911,-12.9413,-12.3389,-12.239,-12.1785,-12.16,-12.16,-12.16,-12.16,-12.1485,-11.9408,-11.7407,-12.0677,-11.9408,-11.6599,-11.6484,-11.6599,-11.6599,-11.6484,-11.6484,-11.6484,-11.6484,-11.6484,-11.6484,-11.6484,-11.91,-12.1485,-12.16,-12.16,-12.16,-12.16,-12.1485,-12.1485,-12.16,-12.16,0.0,0.0,-12.16,-12.0308,-11.6816,-11.64,-11.65,-11.6293,-11.6293,-11.6416,-11.6484,-11.3407,-11.2901,-11.6178,-11.3073,-11.2689,-11.5883,-11.5993,-11.4615,-11.1587,-11.479,-11.6484,-11.6484,-11.6484,-11.4693,-11.1404,-11.1309,-11.2983,-11.5993,-11.5993,-11.7902,-12.0912,-12.0802,-11.8893,-11.5993,-11.5993,-11.6103,-11.6177,-11.6177,-11.8195,-12.0912,-12.16,-12.16,-12.0485,-11.71,-11.6484,-11.7214,-11.9104,-12.1382,-12.3002,-12.3396,-12.3093,-12.3691,-12.6,-13.0789,-13.3789,-13.3789,-13.1292,-12.8411,-12.5312,-12.1914,-12.0491,-12.16,-12.1312,-12.2921,-12.6611,-12.638,-12.5103,-12.2911,-12.3296,-12.2304,-12.0117,-12.2383,-12.1601,-11.8515,-12.1914,-12.2591,-12.0898,-11.7808,-12.0285,-12.6304,-12.6819,-12.5586,-12.3514,-12.3008,-12.1382,-11.9581,-12.1097,-12.16,-12.1293,-11.8985,-11.7484,-11.6676,-11.7907,-11.7407,-11.6484,-11.6484,-11.6484,-11.6484,-11.6484,-11.8177,-11.9908,-11.9908,-11.9908,-11.9292,-11.6984,-11.7407,-11.8908,-12.11,-12.16,-12.16,-12.16,-12.16,-12.16,-12.16,-12.16,-12.16,0.0,-12.16,-12.0292,-11.6907,-11.6484,-11.6484,-11.6484,-11.6484,-11.6484,-11.6484,-11.3407,-11.2983,-11.6292,-11.5413,-11.5106,-11.5975,-11.5993,-11.4488,-11.1221,-11.239,-11.4199,-11.65,-11.4097,-11.2388,-11.1295,-11.3387,-11.5002,-11.6103,-11.8306,-11.9884,-12.0912,-12.0912,-11.9003,-11.5993,-11.5993,-11.5993,-11.5993,-11.5993,-11.8085,-12.0912,-11.9895,-12.0793,-12.0485,-11.71,-11.6898,-11.7403,-11.8196,-12.1289,-12.3906,-12.5195,-12.6406,-12.8515,-13.1914,-13.4297,-13.5586,-13.5586,-13.4492,-13.2597,-12.9913,-12.6018,-12.3406,-12.2315,-12.0917,-12.1791,-12.5492,-12.6387,-12.5703,-12.3515,-12.3515,-12.2383,-12.0195,-12.2383,-12.2304,-12.0195,-12.1211,-12.2304,-12.3202,-11.888,-11.9608,-12.3515,-12.3515,-12.3515,-12.3709,-12.5707,-12.3494,-11.9718,-12.1116,-12.16,-12.11,-11.7677,-11.6826,-11.7108,-11.7108,-11.7108,-11.712,-11.6606,-11.7407,-11.8292,-11.8292,-11.9908,-12.1293,-12.01,-12.0677,-12.0677,-11.7292,-11.6484,-11.7484,-12.0908,-12.16,-12.16,-12.16,-12.16,-12.16,-12.16,-12.16,-12.1177,0.0,-11.9792,-11.9408,-11.8407,-11.7176,-11.6484,-11.6484,-11.6484,-11.5984,-11.4791,-11.2714,-11.2983,-11.6292,-11.5282,-11.5718,-11.7906,-11.5592,-11.3313,-11.1221,-11.1221,-11.2274,-11.4573,-11.2309,-11.1808,-11.2983,-11.5075,-11.658,-11.7902,-11.9994,-12.0214,-11.9187,-12.0398,-11.9003,-11.6103,-11.7278,-11.8614,-11.9512,-11.6927,-11.8085,-12.0912,-11.6692,-11.91,-12.0292,-11.71,-11.7498,-11.8281,-11.8281,-12.1289,-12.4883,-12.8593,-13.1992,-13.5312,-13.8515,-13.9101,-13.9101,-13.8906,-13.5898,-13.3407,-13.1887,-13.2712,-13.0508,-12.4297,-12.3984,-12.3789,-12.3281,-12.3203,-12.3281,-12.3515,-12.3515,-12.3398,-12.3203,-12.3398,-12.3398,-12.3086,-11.9804,-12.0195,-12.3281,-11.9804,-12.0312,-12.3515,-12.3515,-12.3515,-12.4091,-12.9309,-12.7292,-12.1706,-12.1706,-12.1706,-12.1205,-11.7892,-11.759,-11.8515,-11.8398,-11.8281,-11.8094,-11.7091,-11.91,-12.16,-12.16,-12.16,-12.0793,-11.76,-11.91,-12.0485,-11.7176,-11.6484,-11.7407,-12.0677,-12.1293,-12.1408,-12.16,-12.1485,-12.1408,-12.16,-12.1485,-12.0177,-11.6984,-11.6484,-11.7677,-12.0985,-11.8484,-11.6484,-11.6484,-11.6407,-11.4984,-11.2022,-11.1598,-11.2906,-11.6099,-11.2996,-11.4196,-12.0899,-11.4721,-11.1221,-11.1221,-11.1221,-11.1272,-11.1497,-11.1272,-11.291,-11.5993,-11.6177,-11.8012,-12.1095,-12.1095,-11.9297,-11.6507,-11.959,-11.9181,-11.6799,-12.0002,-12.339,-12.5915,-11.8808,-11.8195,-12.0912,-11.6692,-11.7176,-11.7484,-11.6676,-11.7498,-11.8281,-11.8281,-12.1289,-12.6601,-13.5117,-13.6992,-13.789,-13.8789,-14.1211,-14.1718,-13.9101,-13.8086,-13.6396,-13.3512,-12.8808,-12.7617,-13.1015,-13.1211,-12.75,-11.9804,-11.9609,-12.0898,-12.3515,-12.3515,-12.2187,-11.9687,-12.2304,-12.2109,-11.9609,-11.8711,-12.0195,-12.3281,-11.9804,-12.0312,-12.3515,-12.3515,-12.3515,-12.371,-12.5119,-12.4517,-12.3002,-12.3002,-12.3002,-12.2885,-12.1993,-12.1918,-12.1718,-11.9101,-11.8281,-11.8598,-11.9897,-12.0908,-12.16,-12.16,-12.16,-12.1408,-12.0485,-11.8985,-11.76,-11.6676,-11.6484,-11.6676,-11.76,-11.7792,-11.86,-12.11,-11.9485,-11.86,-12.1177,-11.9485,-11.7484,-11.6599,-11.6484,-11.6792,-11.7677,-11.6984,-11.6484,-11.6484,-11.4214,-11.3483,-11.5099,-11.2906,-11.1906,-11.2714,-11.1798,-11.2005,-11.3777,-11.2127,-11.1221,-11.1221,-11.1221,-11.2509,-11.5078,-11.2505,-11.291,-11.6103,-11.8489,-12.1389,-12.4472,-12.4472,-12.26,-11.97,-12.0581,-12.2075,-12.3982,-12.4897,-12.5782,-12.608,-12.1412,-12.0178,-12.1205,-11.8594,-11.9188,-11.9603,-11.9603,-12.0086,-12.0586,-12.0586,-12.2187,-12.8281,-14.1718,-14.2109,-14.1093,-14.1093,-14.1484,-14.1015,-13.9101,-13.8906,-13.7818,-13.5291,-13.0105,-12.8781,-13.2698,-13.3505,-12.9609,-12.0781,-11.9101,-11.9297,-12.1211,-12.1211,-12.0195,-11.8281,-12.0312,-11.9916,-11.7508,-11.7508,-11.9416,-12.2484,-11.9503,-12.0312,-12.3515,-12.3515,-12.2617,0.0,-12.0594,-12.0783,-12.1211,-12.1211,-12.2187,-12.3515,-12.3515,-12.3515,-12.3203,-12.1211,-12.0586,-12.071,-12.1405,-12.16,-12.16,-12.16,-12.16,-12.16,-12.16,-11.8985,-11.6484,-11.6484,-11.6484,-11.6484,-11.6484,-11.6484,-11.71,-11.8985,-11.8985,-11.8908,-11.9292,-11.7792,-11.6484,-11.6484,-11.6484,-11.6484,-11.6484,-11.6484,-11.5907,-11.4484,-11.3907,-11.3907,-11.4291,-11.2599,-11.2099,-11.3599,-11.2098,-11.1221,-11.1221,-11.27,-11.3496,-11.3496,-11.3496,-11.4474,-11.6522,-11.4481,-11.4417,-11.6177,-12.0875,-12.3995,-12.5684,-12.5684,-12.3885,-12.0912,-12.0912,-12.2211,-12.4285,-12.5985,-12.6678,-12.6389,-12.4182,-12.2381,-12.1389,-12.0985,-12.2618,-12.3515,-12.3515,-12.3515,-12.3984,-12.5312,-12.5508,-13.0586,-14.4687,-14.4297,-14.3203,-14.4492,-14.1992,-14.0117,-13.9609,-13.9609,-13.8897,-13.7215,-13.3914,-13.1983,-13.1983,-13.2693,-13.0312,-12.4297,-12.0312,-11.8281,-11.8281,-11.8281,-11.8281,-11.8281,-11.8281,-11.7702,-11.6484,-11.6484,-11.8508,-12.1715,-11.9807,-12.0508,-12.2812,-12.2812,-12.1015,-11.8193,-11.7015,-11.7207,-11.8281,-11.8281,-12.0195,-12.289,-12.3281,-12.3515,-12.3515,-12.3515,-12.3515,-12.321,-12.2004,-12.16,-12.1677,-12.21,-12.1908,-12.16,-12.16,-11.9408,-11.71,-11.6599,-11.6484,-11.6484,-11.6484,-11.6484,-11.6484,-11.6484,-11.9292,-12.06,-11.7677,-11.6792,-11.6484,-11.6484,-11.6484,-11.6484,-11.6484,-11.6484,0.0,-11.2406,-11.4791,-11.5099,-11.1791,-11.2291,-11.4099,-11.6984,-11.3791,-11.1897,-11.1897,-11.4907,-11.6484,-11.6484,-11.6484,-11.6676,-11.7176,-11.7176,-11.6995,-11.6801,-12.249,-12.5096,-12.5096,-12.5096,-12.3481,-12.0886,-12.1394,-12.1703,-12.199,-12.5398,-12.6678,-12.6678,-12.6678,-12.4182,-12.1279,-12.1485,-12.2618,-12.3515,-12.3515,-12.3515,-12.6406,-13.4883,-13.6211,-13.5195,-13.2617,-13.4218,-13.8789,-14.7382,-14.7812,-14.6211,-14.3398,-14.3086,-14.1791,-13.869,-13.5288,-13.3414,-13.3414,-13.089,-12.8906,-12.7695,-12.1484,-11.8281,-11.8281,-11.8281,-11.8281,-11.8281,-11.8281,-11.7702,-11.6484,-11.6484,-11.8997,-12.311,-12.2808,-12.1289,-11.9218,-11.9218,-11.8789,-11.8193,-11.7015,-11.7207,-11.8281,-11.8281,-11.8711,-11.9687,-12.25,-12.3515,-12.3515,-12.3515,-12.3515,-12.321,-12.2004,-12.16,-12.2177,-12.4986,-12.3678,-12.16,-12.16,-12.11,-11.9985,-11.71,-11.6484,-11.6484,-11.6484,-11.6484,-11.6484,-11.6484,-11.9292,-12.1408,-12.0793,-11.8292,-11.6484,-11.6484,-11.6484,-11.6484,-11.6484,-11.6484,-11.6292,-11.5676,-11.6176,-11.5099,-11.1791,-11.6715,-12.01,-12.0677,-11.7425,-11.5573,-11.5573,-11.62,-11.6484,-11.6484,-11.6484,-11.7907,-12.0677,-12.0677,-12.0527,-12.0104,-12.1205,-12.1719,-12.1719,-12.1719,-12.1389,-12.1097,-12.4395,-12.5708,-12.5803,-12.6389,-12.6678,-12.6678,-12.6678,-12.4182,-12.0985,-12.4893,-12.4284,-12.3515,-12.3515,-12.5,-12.9609,-14.0,-14.3086,-14.3007,-13.9687,-14.0703,-14.3711,-14.8711,-14.9218,-14.7812,-14.4297,-14.3984,-14.25,-13.9101,-13.5703,-13.3789,-13.3789,-13.0508,-12.7812,-12.6015,-12.2695,-12.0117,-11.8281,-11.8281,-11.8281,-11.8281,-11.8281,-11.7995,-11.7514,-11.9315,-12.1402,-12.3281,-11.9687,-11.8203,-11.8281,-11.8281,-11.7892,-11.7296,-11.6711,-11.7207,-11.8281,-11.8281,-11.8281,-11.8789,-12.2304,-12.3103,-12.2504,-12.2504,-12.2504,-12.2686,-12.3902,-12.2985,-12.1985,-12.3601,-12.2908,-12.16,-12.16,-12.16,-12.0677,-11.7292,-11.6484,-11.6484,-11.6484,-11.6484,-11.6484,-11.6484,-11.9292,-12.0985,-11.9177,-11.76,-11.6484,-11.6484,-11.6484,-11.6484,-11.6484,-11.81,-11.91,-11.91,-11.91,-11.8484,-11.6907,-11.9792,-12.16,-12.16,-11.6715,-11.3907,-11.3907,-11.5599,-11.6484,-11.6484,-11.8292,-11.9985,-12.16,-12.3408,-12.4091,-12.3795,-12.177,-12.0912,-12.0912,-12.0912,-12.0912,-12.1181,-12.508,-12.6678,-12.6678,-12.6678,-12.6678,-12.6678,-12.6678,-12.4182,-12.1095,-12.789,-12.6406,-12.4414,-12.3593,-12.8789,-13.5703,-14.3906,-14.7382,-14.9218,-14.9218,-14.9804,-15.0,-14.9297,-14.8515,-14.6992,-14.4218,-14.3984,-14.25,-13.9101,-13.5703,-13.3789,-13.3789,-13.0508,-12.6992,-12.3593,-12.3515,-12.1797,-11.8281,-11.8984,-11.8984,-11.8281,-11.8281,-11.8281,-11.8398,-12.1211,-12.1992,-12.1015,-11.5508,-11.5195,-11.8281,-11.8281,-11.7715,-11.6898,-11.6603,-11.7207,-11.8281,-11.8281,-11.8281,-11.8789,-12.2304,-12.2717,-12.16,-12.16,-12.16,-12.21,-12.4793,-12.4178,-12.2485,-12.1793,-12.16,-12.16,-12.16,-12.16,-12.0677,-11.7292,-11.6484,-11.6484,-11.6484,-11.6484,-11.6484,-11.6484,-11.8677,-11.9908,-11.7907,-11.6984,-11.6484,-11.6484,-11.6484,-11.6484,-11.6484,-11.8908,-12.0485,-12.0485,-12.1177,-12.16,-12.16,-12.0908,-12.0485,-12.0485,-11.4099,-11.0714,-11.1522,-11.4791,-11.6484,-11.6484,-11.9908,-12.1985,-12.2678,-12.5409,-12.6678,-12.6605,-12.2717,-12.0912,-12.0912,-12.0912,-12.1413,-12.2423,-12.539,-12.6678,-12.6678,-12.6678,-12.6678,-12.6629,-12.5793,-12.3502,-12.1279,-12.789,-12.8281,-12.7109,-12.3984,-13.6718,-14.7617,-14.8593,-14.8984,-14.9218,-14.9218,-15.1914,-15.2617,-14.9492,-14.6406,-14.4414,-14.3984,-14.3984,-14.25,-13.9101,-13.5703,-13.3789,-13.3789,-13.0508,-12.6992,-12.3593,-12.3515,-12.1797,-11.8281,-12.1484,-12.1406,-11.8281,-11.8281,-11.8281,-11.8281,-11.8593,-11.7109,-11.4101,-11.3515,-11.5195,-11.8281,-11.8281,-11.82,-11.8003,-11.6908,-11.7207,-11.8281,-11.8281,-11.8281,-11.8789,-12.2304,-12.2717,-12.16,-12.16,-12.16,-12.1677,-12.1985,-12.3985,-12.5486,-12.2408,-12.16,-12.16,-12.16,-12.16,-12.0677,-11.7292,-11.6484,-11.6484,-11.6484,-11.6484,-11.6484,-11.6484,-11.6792,-11.7907,-12.0677,-11.8484,-11.6484,-11.6484,-11.6484,-11.6484,-11.6484,-11.6792,-11.6984,-11.6984,-11.9792,-12.16,-12.16,-11.8677,-11.6984,-11.6984,-11.0598,-10.829,-11.1406,-11.4791,-11.6484,-11.6484,-11.9908,-12.3178,-12.6178,-12.6486,-12.6678,-12.6605,-12.2717,-12.0912,-12.0912,-12.0912,-12.2884,-12.6207,-12.6503,-12.6678,-12.6678,-12.6678,-12.6678,-12.6324,-12.2723,-12.1227,-12.0912,-12.789,-13.3593,-13.8086,-13.8789,-14.4609,-14.9218,-14.9218,-14.9218,-14.8398,-14.6406,-14.9101,-15.0703,-14.9297,-14.6093,-14.3203,-14.1093,-14.0898,-13.9492,-13.6093,-13.4609,-13.3789,-13.3789,-13.25,-13.0117,-12.6601,-12.4609,-12.2812,-12.1406,-12.0703,-11.9687,-11.8281,-11.8281,-11.8281,-11.8203,-11.6211,-11.4492,-11.3281,-11.539,-11.7109,-11.8281,-11.8281,-11.9609,-12.1092,-11.8594,-11.7911,-11.8281,-11.8281,-11.8281,-11.8789,-12.2304,-12.3184,-12.2596,-12.1808,-12.16,-12.16,-12.16,-12.2601,-12.3293,-12.1985,-12.16,-12.16,-12.16,-12.01,-11.8177,-11.6792,-11.6484,-11.6484,-11.6484,-11.6484,-11.6484,-11.6484,-11.6484,-11.6907,-11.8292,-11.91,-11.8792,-11.6792,-11.6484,-11.6484,-11.6484,-11.6484,-11.7292,-11.9408,-11.8908,-11.9408,-12.1408,-11.8407,-11.5599,-11.3599,-10.9021,-10.8021,-11.1406,-11.2791,-11.4484,-11.6484,-11.9908,-12.2293,-12.3601,-12.3601,-12.3601,-12.3606,-12.1704,-12.0912,-12.0912,-12.0912,-12.18,-12.339,-12.5726,-12.6678,-12.6678,-12.6678,-12.6678,-12.6478,-12.4993,-12.4395,-12.4091,-13.25,-13.9804,-14.6289,-14.8789,-14.9218,-14.9218,-14.9218,-14.9218,-14.789,-14.4492,-14.6093,-14.7695,-14.7695,-14.5507,-14.3007,-14.0586,-13.9492,-13.7382,-13.3984,-13.3789,-13.3789,-13.3789,-13.3789,-13.2617,-13.0195,-12.6797,-12.4492,-12.3515,-12.0,-11.8789,-11.9804,-11.7812,-11.7304,-11.8203,-11.4687,-11.3203,-11.3398,-11.6797,-11.8281,-11.8281,-11.8281,-11.9804,-12.1718,-11.878,-11.7995,-11.8281,-11.8281,-11.8984,-12.0195,-12.2695,-12.3515,-12.3308,-12.2389,-12.1889,-12.16,-12.16,-12.16,-12.16,-12.16,-12.16,-12.16,-12.16,-11.9792,-11.7677,-11.6676,-11.6484,-11.6484,-11.6484,-11.6484,-11.6484,-11.6484,-11.6484,-11.6606,-11.6993,-11.8796,-11.9292,-11.6792,-11.6484,-11.6484,-11.6484,-11.5599,-11.6407,-11.9792,-11.7907,-11.7907,-12.1293,-11.8407,-11.5484,-11.3099,-10.9713,-10.9021,-11.1406,-11.2483,-11.4099,-11.6484,-11.9908,-12.16,-12.16,-12.16,-12.21,-12.3029,-12.1592,-12.0912,-12.0912,-12.0912,-12.0968,-12.1417,-12.5201,-12.6678,-12.6678,-12.6678,-12.6582,-12.6413,-12.6605,-12.6678,-12.6409,-14.3086,-14.6718,-14.9218,-14.9218,-14.9218,-14.9218,-14.9218,-14.9218,-14.789,-14.4492,-14.3984,-14.4101,-14.4101,-14.3984,-14.3984,-14.3906,-14.0781,-13.7382,-13.3984,-13.3789,-13.3789,-13.3789,-13.3789,-13.3789,-13.3711,-13.0312,-12.6914,-12.3515,-12.0,-12.0117,-12.3281,-11.6484,-11.5117,-11.8203,-11.4687,-11.3203,-11.3398,-11.6797,-11.8281,-11.8281,-11.8281,-11.8281,-11.8194,-11.6993,-11.7297,-11.8281,-11.8281,-12.0508,-12.3398,-12.3515,-12.3515,-12.3515,-12.3515,-12.2596,-12.16,-12.16,-12.16,-12.16,-12.16,-12.16,-12.16,-12.16,-12.16,-12.0677,-11.7292,-11.6484,-11.6484,-11.6484,-11.6484,-11.6484,-11.6484,-11.6484,-11.6912,-11.8099,-11.731,-11.6484,-11.6484,-11.6484,-11.6484,-11.6484,-11.3599,-11.2906,-11.6176,-11.6484,-11.7907,-12.1293,-11.8407,-11.6484,-11.6407,-11.3291,-11.1522,-11.1522,-11.4714,-11.6484,-11.6484,-11.9908,-12.16,-12.16,-12.16,-12.3408,-12.6489,-12.2679,-12.0912,-12.0912,-12.0912,-12.1205,-12.1899,-12.5293,-12.6678,-12.6678,-12.6678,-12.6297,-12.5825,-12.6499,-12.6678,-12.6678,-14.6914,-14.8398,-14.9882,-15.2304,-15.0703,-14.9218,-14.9218,-14.7187,-14.5312,-14.4101,-14.3984,-14.3086,-14.0781,-14.0507,-14.0507,-14.0507,-13.9492,-13.8398,-13.7304,-13.5117,-13.3789,-13.3789,-13.3789,-13.3789,-13.3789,-13.039,-12.6914,-12.3515,-12.2383,-12.1211,-11.9883,-11.7695,-11.6015,-11.4804,-11.3711,-11.4492,-11.6718,-11.7812,-11.8281,-11.8281,-11.8281,-11.8281,-11.8319,-11.7906,-11.7983,-11.8593,-12.1015,-12.2617,-12.3515,-12.3515,-12.3515,-12.3515,-12.3515,-12.2618,-12.16,-12.16,-12.16,-12.16,-12.16,-12.16,-12.16,-12.16,-12.16,-12.0677,-11.7292,-11.6484,-11.6484,-11.6484,-11.6484,-11.6484,-11.6484,-11.719,-11.7895,-11.82,-11.7988,-11.7708,-11.7708,-11.698,-11.6484,-11.6484,-11.76,-11.8792,-11.9908,-11.7907,-11.6984,-11.7984,-11.2791,-11.0598,-11.2983,-11.2099,-11.1522,-11.1522,-11.4791,-11.76,-11.9985,-12.11,-12.16,-12.16,-12.16,-12.3408,-12.6605,-12.2717,-12.0912,-12.0912,-12.0912,-12.1167,-12.1688,-12.2401,-12.4289,-12.6678,-12.6678,-12.4895,-12.2815,-12.5583,-12.6678,-12.6409,-14.8515,-14.9218,-14.9882,-15.1992,-15.0586,-14.9218,-14.9218,-14.6211,-14.3984,-14.3984,-14.3984,-14.3203,-14.1015,-13.9687,-13.8906,-13.8906,-13.7695,-13.6992,-13.6992,-13.5,-13.3789,-13.3789,-13.3789,-13.3789,-13.3789,-13.039,-12.7617,-12.539,-12.2812,-12.039,-11.8281,-11.8281,-11.7187,-11.5117,-11.5117,-11.6289,-11.8281,-11.8281,-11.8281,-11.8281,-11.8281,-11.8281,-11.8281,-11.8281,-11.8281,-11.8789,-12.2187,-12.3515,-12.3515,-12.3515,-12.3515,-12.3515,-12.3515,-12.2618,-12.16,-12.16,-12.16,-12.16,-12.16,-12.16,-12.16,-12.16,-12.16,-12.0677,-11.7292,-11.6484,-11.6589,-11.7112,-11.6786,-11.6609,-11.7088,-11.7787,-11.8281,-11.8281,-11.8281,-11.8281,-11.8281,-11.7297,-11.6484,-11.6484,-11.8407,-12.0177,-12.1485,-11.9677,-11.7907,-11.6599,-11.2599,-11.1098,-11.3291,-11.2214,-11.2099,-11.3291,-11.5407,-11.81,-12.16,-12.2908,-12.2908,-12.16,-12.2908,-12.5293,-12.8514,-12.4791,-12.2296,-12.0912,-12.0912,-12.1881,-12.3519,-12.3177,-12.4491,-12.6695,-12.642,-12.5,-12.3389,-12.582,-12.6678,-12.6409,-14.8593,-14.9218,-14.9218,-14.9218,-14.8984,-14.8789,-14.8789,-14.6093,-14.3984,-14.3984,-14.3789,-14.3593,-14.3593,-14.0781,-13.8789,-13.8593,-13.5586,-13.3789,-13.3789,-13.3789,-13.3789,-13.3789,-13.3789,-13.3789,-13.3789,-13.039,-12.8515,-12.8203,-12.1797,-11.8515,-11.8281,-11.8281,-11.8281,-11.8281,-11.8281,-11.8281,-11.8281,-11.8281,-11.8281,-11.8281,-11.8281,-11.8281,-11.8281,-11.8281,-11.8281,-11.8789,-12.2187,-12.3515,-12.3515,-12.3515,-12.3711,-12.3906,-12.3906,-12.3007,-12.1908,-12.1677,-12.16,-12.16,-12.16,-12.16,-12.16,-12.16,-12.1408,-12.0408,-11.7176,-11.6616,-11.6921,-11.8097,-11.7414,-11.6993,-11.8102,-11.8281,-11.8281,-11.8281,-11.8281,-11.8281,-11.8281,-11.7297,-11.6484,-11.6484,-11.6484,-11.7792,-12.1293,-12.16,-12.0177,-11.6792,-11.6292,-11.6176,-11.6176,-11.3407,-11.3291,-11.6407,-11.6484,-11.81,-12.16,-12.4986,-12.5101,-12.1985,-12.5178,-12.8486,-13.1602,-12.8486,-12.4899,-12.1169,-12.1512,-12.369,-12.6986,-12.6794,-12.6678,-12.6581,-12.6005,-12.6212,-12.6678,-12.6678,-12.6678,-12.6678,-14.8984,-14.9218,-14.9218,-14.9218,-14.6992,-14.5195,-14.5195,-14.4492,-14.3984,-14.3984,-14.1718,-14.0117,-14.0117,-13.9414,-13.7812,-13.5195,-13.4297,-13.3789,-13.3789,-13.3789,-13.3789,-13.3789,-13.3789,-13.3789,-13.3789,-13.039,-12.7304,-12.4687,-12.3086,-12.0898,-11.8281,-11.8281,-11.8281,-11.8281,-11.8281,-11.8281,-11.8281,-11.8281,-11.8281,-11.8281,-11.8281,-11.8281,-11.8281,-11.8281,-11.8281,-11.8789,-12.2187,-12.3515,-12.3515,-12.3515,-12.5195,-12.7383,-12.7383,-12.6512,-12.4986,-12.2408,-12.16,-12.16,-12.16,-12.16,-12.16,-12.16,-11.96,-11.7484,-11.6676,-11.7206,-11.7979,-11.8201,-11.8097,-11.7983,-11.8201,-11.8281,-11.8281,-11.8281,-11.8281,-11.8281,-11.8281,-11.7297,-11.6484,-11.6484,-11.6484,-11.7792,-12.1293,-12.16,-12.0177,-11.6792,-11.4099,-11.2714,-11.2714,-11.4407,-11.5676,-11.6484,-11.6484,-11.81,-12.16,-12.4986,-12.6294,-12.5486,-12.6294,-12.8486,-13.1679,-13.091,-12.8315,-12.4718,-12.7825,-12.9677,-13.0294,-12.7794,-12.6678,-12.6706,-12.6482,-12.6576,-12.6678,-12.6678,-12.6678,-12.6678,-14.7109,-14.6797,-14.6797,-14.6797,-14.5312,-14.3984,-14.3984,-14.2695,-14.1718,-14.1718,-14.0117,-13.8906,-13.8906,-13.8906,-13.75,-13.4101,-13.3789,-13.3789,-13.3789,-13.3789,-13.3789,-13.3789,-13.3789,-13.3086,-13.1484,-12.9609,-12.6914,-12.3515,-12.3515,-12.25,-12.0703,-12.0703,-12.0703,-12.0703,-12.0703,-12.0703,-12.0703,-12.0703,-11.9804,-11.8281,-11.8281,-11.9297,-12.0703,-12.0703,-12.0703,-12.0898,-12.2812,-12.3515,-12.3515,-12.3515,-12.5781,-12.8593,-12.8593,-12.7719,-12.6294,-12.4486,-12.2793,-12.16,-12.16,-12.16,-12.16,-12.16,-12.0177,-11.8407,-11.6907,-11.7397,-11.8281,-11.8281,-11.8281,-11.8281,-11.8281,-11.8281,-11.8281,-11.8281,-11.8281,-11.8281,-11.8281,-11.7297,-11.6484,-11.6484,-11.7907,-11.96,-12.1408,-12.16,-12.0418,-11.7504,-11.5085,-11.3791,-11.3791,-11.5484,-11.6484,-11.6484,-11.6484,-11.81,-12.16,-12.4986,-12.6678,-12.6678,-12.6678,-12.8486,-13.1679,-13.1679,-13.0483,-12.8626,-13.0806,-13.1679,-13.141,-12.8102,-12.6678,-12.6678,-12.6678,-12.7602,-12.8986,-12.8986,-12.8986,-12.8986,-14.4609,-14.3984,-14.3984,-14.3984,-14.3984,-14.3984,-14.3984,-14.1093,-13.8906,-13.8906,-13.8906,-13.8906,-13.8906,-13.8398,-13.6992,-13.4101,-13.3789,-13.3789,-13.3789,-13.3789,-13.3593,-13.3008,-13.3515,-13.2187,-12.8711,-12.8593,-12.7187,-12.4297,-12.3789,-12.3515,-12.3515,-12.3515,-12.3515,-12.3515,-12.3515,-12.3515,-12.3515,-12.3515,-12.1797,-11.9101,-11.9101,-12.0898,-12.3515,-12.3515,-12.3515,-12.3515,-12.3515,-12.3515,-12.3593,-12.4101,-12.6211,-12.8593,-12.8593,-12.791,-12.6886,-12.6798,-12.4601,-12.2293,-12.1677,-12.16,-12.16,-12.16,-12.16,-12.0793,-11.7907,-11.8214,-11.8906,-11.8398,-11.8281,-11.8281,-11.8281,-11.8281,-11.8281,-11.8281,-11.8281,-11.8281,-11.8281,-11.7386,-11.671,-11.649,-11.9485,-12.16,-12.16,-12.1819,-12.1087,-11.9215,-11.8096,-11.7212,-11.6506,-11.6484,-11.6484,-11.6484,-11.6984,-11.8908,-12.2293,-12.5178,-12.6678,-12.6678,-12.6678,-12.8179,-13.091,-13.091,-13.1179,-13.1679,-13.1679,-13.1679,-13.141,-12.8102,-12.6678,-12.6678,-12.6678,-12.8679,-13.1679,-13.1679,-13.1679,-13.1679,-14.4101,-14.3984,-14.3984,-14.3984,-14.3984,-14.3984,-14.3984,-14.1093,-13.8906,-13.8906,-13.8906,-13.8906,-13.8906,-13.6289,-13.4414,-13.3789,-13.3789,-13.3789,-13.3789,-13.3789,-13.25,-12.9492,-13.2187,-13.2187,-12.8711,-12.8593,-12.8281,-12.7812,-12.4883,-12.3515,-12.3515,-12.3515,-12.3515,-12.3515,-12.3515,-12.3515,-12.3515,-12.3515,-12.3203,-12.2695,-12.2695,-12.3008,-12.3515,-12.3515,-12.3515,-12.3515,-12.3515,-12.3515,-12.3906,-12.6797,-12.8203,-12.8593,-12.8593,-12.8506,-12.8107,-12.7011,-12.6294,-12.5293,-12.2408,-12.16,-12.16,-12.16,-12.16,-12.1485,-12.0908,-12.1795,-12.1914,-11.8906,-11.8281,-11.8281,-11.8281,-11.8281,-11.8281,-11.8281,-11.8281,-11.8281,-11.8281,-11.8111,-11.7616,-11.6606,-11.9485,-12.16,-12.16,-12.2601,-12.3101,-12.2695,-12.2483,-12.0691,-11.671,-11.6484,-11.6484,-11.6484,-11.9292,-12.2485,-12.5909,-12.6409,-12.6678,-12.6678,-12.6678,-12.6986,-12.7486,-12.7486,-12.8986,-13.1679,-13.1679,-13.1679,-13.141,-12.8102,-12.6678,-12.6678,-12.6678,-12.8679,-13.1679,-13.1679,-13.1679,-13.1679,-14.3984,-14.3984,-14.3984,-14.3984,-14.25,-14.1289,-14.1289,-13.9882,-13.8203,-13.6406,-13.6211,-13.6211,-13.6211,-13.4687,-13.3789,-13.3789,-13.3789,-13.3789,-13.3789,-13.3789,-13.3086,-13.1484,-13.1093,-13.0195,-12.8593,-12.8593,-12.8593,-12.8593,-12.6992,-12.6211,-12.6211,-12.6211,-12.5312,-12.3515,-12.3515,-12.3515,-12.3515,-12.3515,-12.3515,-12.3515,-12.3515,-12.3515,-12.3515,-12.3515,-12.3515,-12.3515,-12.3515,-12.3515,-12.3984,-12.7383,-12.7383,-12.5898,-12.5898,-12.5898,-12.5695,-12.5122,-12.4521,-12.3601,-12.1985,-12.16,-12.16,-12.16,-12.16,-12.11,-11.9292,-12.13,-12.3008,-12.1406,-11.9609,-11.8281,-11.8281,-11.8281,-11.8281,-11.8281,-11.8281,-11.8281,-11.8281,-11.7715,-11.7094,-11.6577,-11.9485,-12.16,-12.16,-12.2795,-12.3515,-12.3515,-12.3515,-12.1687,-11.7693,-11.6898,-11.6484,-11.6484,-12.16,-12.5101,-12.6678,-12.6678,-12.6678,-12.6678,-12.6678,-12.6678,-12.6678,-12.6678,-12.8486,-13.1679,-13.1679,-13.0679,-12.8909,-12.7294,-12.6678,-12.6678,-12.6678,-12.8679,-13.1679,-13.1679,-13.1679,-13.1679,-14.3007,-14.2812,-14.2812,-14.2812,-14.0586,-13.8906,-13.8906,-13.8906,-13.7695,-13.4218,-13.3789,-13.3789,-13.3789,-13.3789,-13.3789,-13.3789,-13.3789,-13.3789,-13.3789,-13.3789,-13.3789,-13.3789,-13.0508,-12.8593,-12.8593,-12.9414,-12.9804,-12.9804,-12.8984,-12.8593,-12.8593,-12.8593,-12.7187,-12.4687,-12.3906,-12.3515,-12.3515,-12.3515,-12.3515,-12.3515,-12.3515,-12.3515,-12.3515,-12.3515,-12.3515,-12.3593,-12.4414,-12.4687,-12.5117,-12.7695,-12.6289,-12.3515,-12.3515,-12.3515,-12.3515,-12.3515,-12.2585,-12.16,-12.16,-12.16,-12.16,-12.16,-12.16,-12.0908,-11.8292,-12.0678,-12.3515,-12.3515,-12.0703,-11.8281,-11.8281,-11.8281,-11.8281,-11.8281,-11.8281,-11.8197,-11.7887,-11.7112,-11.6484,-11.6484,-11.9485,-12.16,-12.16,-12.2795,-12.3515,-12.3515,-12.2695,-12.1093,-11.8398,-11.72,-11.6907,-11.7677,-12.2793,-12.5486,-12.5486,-12.6294,-12.6678,-12.6678,-12.5909,-12.5909,-12.6678,-12.6678,-12.8486,-13.1679,-13.091,-12.9102,-12.6678,-12.6678,-12.6678,-12.6678,-12.6678,-12.8679,-13.1679,-13.1679,-13.1679,-13.1679,-13.9882,-13.9297,-13.9297,-13.9297,-13.9101,-13.8906,-13.8906,-13.8906,-13.7695,-13.4218,-13.3789,-13.3789,-13.3789,-13.3789,-13.3789,-13.3789,-13.3789,-13.3789,-13.3789,-13.3789,-13.3789,-13.3789,-13.0508,-12.8593,-12.8593,-13.1797,-13.3398,-13.3398,-13.0195,-12.8593,-12.8593,-12.8593,-12.8515,-12.8086,-12.4883,-12.3515,-12.3515,-12.3515,-12.3515,-12.3515,-12.3515,-12.3515,-12.3515,-12.3515,-12.3515,-12.3906,-12.7109,-12.8203,-12.8281,-12.8515,-12.6289,-12.3515,-12.3515,-12.3515,-12.3515,-12.3515,-12.2585,-12.16,-12.16,-12.16,-12.16,-12.16,-12.16,-12.1485,-12.1293,-12.2379,-12.3515,-12.3515,-12.0703,-11.8281,-11.8281,-11.8281,-11.8281,-11.8281,-11.8281,-11.7883,-11.6788,-11.6594,-11.6484,-11.6484,-11.9485,-12.16,-12.16,-12.2795,-12.3515,-12.3515,-12.0508,-11.8593,-11.8281,-11.72,-11.7984,-12.11,-12.1677,-12.1985,-12.1985,-12.5101,-12.6678,-12.6678,-12.3485,-12.3601,-12.6678,-12.6678,-12.8486,-13.1487,-12.8409,-12.6909,-12.6678,-12.6678,-12.6678,-12.6678,-12.6678,-12.8679,-13.1679,-13.1679,-13.1679,-13.1679,-13.9218,-13.8906,-13.8906,-13.8906,-13.8906,-13.8906,-13.8906,-13.8906,-13.8398,-13.7109,-13.5117,-13.3789,-13.3789,-13.3789,-13.3789,-13.3789,-13.3789,-13.3789,-13.3789,-13.3789,-13.3789,-13.3789,-13.0508,-12.8593,-12.8593,-12.9883,-13.1601,-13.3789,-13.0312,-12.8593,-12.8593,-12.8593,-12.8593,-12.8515,-12.5,-12.4687,-12.6718,-12.6718,-12.6718,-12.6718,-12.6718,-12.6718,-12.6718,-12.6718,-12.6718,-12.6797,-12.8086,-12.8593,-12.8593,-12.8593,-12.6289,-12.3515,-12.3515,-12.3515,-12.3308,-12.2578,-12.2004,-12.16,-12.16,-12.16,-12.16,-12.16,-12.16,-12.0985,-11.8908,-12.1106,-12.3515,-12.3515,-12.0703,-11.8281,-11.8281,-11.8281,-11.8281,-11.8281,-11.7709,-11.6996,-11.6616,-11.6484,-11.7292,-11.9408,-12.0793,-12.1889,-12.2718,-12.32,-12.2617,-12.039,-11.8984,-11.8281,-11.8281,-11.72,-11.81,-12.1485,-12.16,-12.16,-12.16,-12.2908,-12.3485,-12.3485,-12.2177,-12.2293,-12.3601,-12.5678,-12.7409,-12.8486,-12.7294,-12.6678,-12.6678,-12.6678,-12.6678,-12.6678,-12.6678,-12.7486,-12.8909,-13.091,-13.1679,-13.1679,-13.8906,-13.8007,-13.7617,-13.8711,-13.8906,-13.8906,-13.8906,-13.8007,-13.7304,-13.7304,-13.5312,-13.3789,-13.3789,-13.3789,-13.3789,-13.3789,-13.3789,-13.3789,-13.3789,-13.3789,-13.3281,-13.2187,-12.9883,-12.8593,-12.8593,-12.9687,-13.1406,-13.3789,-13.0312,-12.8593,-12.8593,-12.8593,-12.8593,-12.8515,-12.6093,-12.6406,-12.8593,-12.8593,-12.8593,-12.8593,-12.8593,-12.8593,-12.8593,-12.8593,-12.8593,-12.8515,-12.7383,-12.6992,-12.6992,-12.6992,-12.539,-12.3515,-12.3515,-12.3515,-12.3306,-12.248,-12.1909,-12.1706,-12.2089,-12.2201,-12.2106,-12.1689,-12.16,-12.1111,-11.9118,-12.0314,-12.1914,-12.1914,-12.0,-11.8281,-11.8281,-11.9218,-11.9883,-11.9883,-11.7996,-11.6484,-11.6484,-11.7407,-11.8985,-12.1293,-12.16,-12.1908,-12.2809,-12.2314,-12.0898,-11.8515,-11.8281,-11.8109,-11.7807,-11.8005,-11.9177,-12.1485,-12.16,-12.16,-12.16,-12.16,-12.16,-12.16,-12.16,-12.16,-12.1677,-12.5101,-12.6678,-12.6678,-12.6678,-12.6101,-12.5178,-12.6294,-12.6678,-12.6678,-12.6678,-12.6678,-12.7101,-13.0487,-13.0987,-13.0102,-13.8906,-13.6211,-13.4883,-13.8281,-13.8906,-13.8906,-13.8906,-13.6015,-13.3789,-13.3789,-13.3789,-13.3789,-13.3789,-13.3789,-13.3789,-13.3789,-13.3789,-13.3789,-13.3789,-13.3789,-13.2304,-12.8789,-12.8593,-12.8593,-12.8593,-13.1992,-13.3789,-13.3789,-13.0312,-12.8593,-12.8593,-12.8593,-12.8593,-12.8593,-12.8593,-12.8593,-12.8593,-12.8593,-12.8593,-12.8593,-12.8593,-12.8593,-12.8593,-12.8593,-12.8593,-12.8203,-12.4804,-12.3515,-12.3515,-12.3515,-12.3515,-12.3515,-12.3515,-12.3515,-12.3515,-12.3515,-12.2596,-12.1908,-12.318,-12.3515,-12.3196,-12.1889,-12.1585,-12.1889,-12.32,-12.0781,-11.8281,-11.8281,-11.8281,-11.8281,-11.8281,-12.1093,-12.3515,-12.3515,-11.9603,-11.6484,-11.6484,-11.9408,-12.16,-12.16,-12.16,-12.16,-12.16,-11.962,-11.8281,-11.8281,-11.8281,-11.7807,-11.6616,-11.9792,-12.16,-12.16,-12.16,-12.16,-12.16,-12.16,-12.16,-12.16,-12.16,-12.16,-12.1677,-12.5101,-12.6678,-12.6678,-12.6678,-12.4678,-12.1908,-12.5293,-12.6678,-12.6678,-12.6678,-12.6678,-12.7101,-13.041,-12.9487,-12.6678,-13.8906,-13.8086,-13.7695,-13.8711,-13.6914,-13.5312,-13.5312,-13.4492,-13.3789,-13.3789,-13.3789,-13.3789,-13.3789,-13.3789,-13.3789,-13.3789,-13.3789,-13.3789,-13.3789,-13.3789,-13.3281,-13.2304,-12.9883,-12.8593,-12.8593,-12.9609,-13.0195,-13.0195,-12.9101,-12.8593,-12.8593,-12.8593,-12.9883,-13.2187,-13.2187,-13.2187,-13.2187,-13.2187,-13.0781,-12.8593,-12.8593,-12.8593,-12.8593,-12.8593,-12.8593,-12.8515,-12.7383,-12.7109,-12.6718,-12.4297,-12.3515,-12.3515,-12.3515,-12.3515,-12.3515,-12.3515,-12.3203,-12.3002,-12.3392,-12.1718,-12.0308,-12.2383,-12.0485,-11.8294,-11.9607,-11.8984,-11.8281,-11.8281,-11.8281,-11.8984,-12.1484,-12.0781,-11.9883,-11.9883,-11.9992,-12.01,-12.01,-11.8908,-11.8908,-12.1293,-11.9485,-11.7984,-11.7984,-11.7385,-11.7392,-11.82,-11.7508,-11.7901,-11.9992,-12.0985,-12.16,-12.16,-11.9292,-11.9177,-12.16,-12.16,-12.16,-12.16,-12.16,-12.16,-12.1677,-12.5101,-12.6678,-12.6601,-12.4178,-12.2485,-12.1677,-12.2678,-12.4486,-12.6678,-12.6678,-12.6678,-12.6794,-12.7794,-12.5986,-12.3101,-13.6914,-13.6914,-13.6914,-13.6914,-13.5195,-13.3789,-13.3789,-13.3789,-13.3789,-13.3789,-13.3789,-13.3789,-13.3789,-13.3789,-13.3789,-13.3789,-13.3789,-13.3789,-13.3789,-13.3789,-13.3789,-13.3789,-13.1797,-13.0,-12.8593,-12.8593,-12.8593,-12.8593,-13.0,-13.0,-12.8593,-12.8593,-12.9687,-13.1718,-13.1718,-13.1718,-13.1718,-13.1718,-13.0508,-12.8515,-12.7109,-12.6601,-12.6601,-12.6601,-12.7383,-12.8398,-12.7109,-12.6601,-12.6289,-12.4218,-12.3515,-12.3515,-12.3515,-12.3515,-12.3515,-12.3515,-12.25,-12.1406,-12.1406,-11.9883,-11.8789,-12.0898,-11.9289,-11.7403,-11.8109,-11.8281,-11.8281,-11.8281,-11.8281,-11.9414,-12.289,-12.1797,-11.9712,-11.7904,-11.8697,-11.96,-11.96,-11.7792,-11.7292,-11.9292,-11.7792,-11.6691,-11.7176,-11.7192,-11.7321,-11.7594,-11.8207,-11.9408,-12.1485,-12.16,-12.16,-12.16,-11.8292,-11.7484,-11.96,-11.96,-12.0292,-12.16,-12.16,-12.16,-12.1677,-12.3678,-12.4678,-12.4601,-12.2485,-12.16,-12.16,-12.16,-12.2793,-12.4678,-12.4678,-12.4678,-12.4678,-12.4678,-12.3408,-12.16,-13.3789,-13.3789,-13.3789,-13.3789,-13.3789,-13.3789,-13.3789,-13.3789,-13.3789,-13.3789,-13.3789,-13.3789,-13.3789,-13.3789,-13.3789,-13.3789,-13.3789,-13.3789,-13.3789,-13.3789,-13.3789,-13.3789,-13.3789,-13.2304,-12.9101,-12.9101,-12.9101,-12.9101,-13.2187,-13.1992,-12.8593,-12.8593,-12.8593,-12.8593,-12.8593,-12.8593,-12.8593,-12.8593,-12.8593,-12.8281,-12.4883,-12.3515,-12.3515,-12.3789,-12.5703,-12.7695,-12.4609,-12.3515,-12.3515,-12.3515,-12.3515,-12.3515,-12.3515,-12.3515,-12.3515,-12.3515,-12.1289,-11.8789,-11.8789,-11.8789,-11.8711,-11.8398,-11.8281,-11.8281,-11.8281,-11.8281,-11.8281,-11.8281,-11.8281,-11.9297,-12.2383,-12.2887,-12.1494,-11.7192,-11.6484,-11.6484,-11.6484,-11.6484,-11.6484,-11.6484,-11.6603,-11.7088,-11.8197,-11.8197,-11.7795,-11.7006,-11.9792,-12.16,-12.16,-12.16,-12.16,-12.16,-11.8292,-11.6484,-11.6484,-11.6484,-11.8177,-12.16,-12.16,-12.16,-12.16,-12.16,-12.16,-12.16,-12.16,-12.16,-12.16,-12.16,-12.16,-12.16,-12.16,-12.16,-12.16,-12.16,-12.16,-12.16,-13.3789,-13.3789,-13.3789,-13.3789,-13.3789,-13.3789,-13.3789,-13.3789,-13.3789,-13.3789,-13.3789,-13.3789,-13.3789,-13.3789,-13.3789,-13.3789,-13.3789,-13.3789,-13.3789,-13.3789,-13.3789,-13.3789,-13.3789,-13.3398,-13.2695,-13.2695,-13.2695,-13.2695,-13.3398,-13.1992,-12.8593,-12.8593,-12.8593,-12.8593,-12.8593,-12.8593,-12.8593,-12.8593,-12.8593,-12.8281,-12.4883,-12.3515,-12.3789,-12.6484,-12.6289,-12.4492,-12.3789,-12.3515,-12.3515,-12.3515,-12.3515,-12.3515,-12.3515,-12.3515,-12.3515,-12.3515,-12.3008,-12.2383,-12.2383,-12.2383,-12.1718,-11.8984,-11.8281,-11.8281,-11.8281,-11.8281,-11.8281,-11.8281,-11.8281,-11.8515,-11.9297,-11.8696,-11.7675,-11.6688,-11.6484,-11.6484,-11.6484,-11.6484,-11.6484,-11.6484,-11.7294,-11.8003,-11.8281,-11.7408,-11.7889,-12.03,-12.1177,-12.16,-12.16,-12.16,-12.16,-12.16,-11.8292,-11.6484,-11.6484,-11.6484,-11.8177,-12.16,-12.16,-12.16,-12.16,-12.16,-12.16,-12.16,-12.16,-12.16,-12.16,-12.16,-12.16,-12.16,-12.16,-12.16,-12.16,-12.16,-12.16,-12.16,-13.3789,-13.3789,-13.3789,-13.3789,-13.3789,-13.3789,-13.3789,-13.3789,-13.3789,-13.3789,-13.3789,-13.3789,-13.3789,-13.3789,-13.3789,-13.3789,-13.3789,-13.3789,-13.3789,-13.3789,-13.3789,-13.3789,-13.3789,-13.3789,-13.3789,-13.3789,-13.3789,-13.3789,-13.3789,-13.289,-13.1015,-12.9414,-12.8593,-12.8593,-12.8593,-12.8593,-12.8593,-12.8593,-12.8593,-12.8398,-12.6718,-12.5898,-12.6093,-12.789,-12.75,-12.5703,-12.4101,-12.3515,-12.3515,-12.3515,-12.3515,-12.3515,-12.3515,-12.3515,-12.3515,-12.3515,-12.3515,-12.3389,-12.2804,-12.2585,-12.2318,-12.1081,-12.0781,-12.0312,-11.8711,-11.8281,-11.8281,-11.8281,-11.8281,-11.8107,-11.7498,-11.6887,-11.6484,-11.6484,-11.6484,-11.6484,-11.6484,-11.6987,-11.7407,-11.7407,-11.7887,-11.8097,-11.7498,-11.6916,-11.7907,-12.1293,-12.16,-12.16,-12.16,-12.16,-12.16,-12.16,-11.8292,-11.6484,-11.6484,-11.6484,-11.7407,-11.9177,-11.9177,-11.9985,-12.1485,-11.9908,-11.9177,-11.9177,-11.9177,-12.01,-12.16,-12.16,-12.16,-12.16,-12.16,-12.16,-12.16,-12.16,-12.16,-12.16,-13.3789,-13.3789,-13.3789,-13.3789,-13.3789,-13.3789,-13.3789,-13.3789,-13.3789,-13.3789,-13.3789,-13.3789,-13.3789,-13.3789,-13.3789,-13.3789,-13.3789,-13.3789,-13.3789,-13.3789,-13.3789,-13.3789,-13.3789,-13.3789,-13.3789,-13.3789,-13.3789,-13.3789,-13.3789,-13.3789,-13.3711,-13.0781,-12.9492,-12.9492,-12.8906,-12.8593,-12.8593,-12.8593,-12.8593,-12.8593,-12.8593,-12.8593,-12.8593,-12.8593,-12.8593,-12.8203,-12.539,-12.3984,-12.3515,-12.3515,-12.3515,-12.3515,-12.3515,-12.3515,-12.3515,-12.3515,-12.3308,-12.2885,-12.1888,-12.1798,-12.2184,-12.3206,-12.3515,-12.2695,-11.9804,-11.9218,-11.9218,-11.9218,-11.9218,-11.8698,-11.7103,-11.6825,-11.6825,-11.6825,-11.6825,-11.6825,-11.6825,-11.7709,-11.8199,-11.8003,-11.7995,-11.7582,-11.6603,-11.6484,-11.7907,-12.1293,-12.16,-12.16,-12.16,-12.16,-12.1293,-12.0677,-11.7984,-11.6484,-11.6484,-11.6484,-11.6484,-11.6484,-11.6484,-11.7984,-12.06,-11.7792,-11.6484,-11.6484,-11.6484,-11.8407,-12.16,-12.16,-12.16,-12.16,-12.16,-12.16,-12.16,-12.16,-12.16,-12.16,-13.3789,-13.3789,-13.3789,-13.3789,-13.3789,-13.3789,-13.3789,-13.3789,-13.3789,-13.3789,-13.3789,-13.3789,-13.3789,-13.3789,-13.3789,-13.3789,-13.3789,-13.3789,-13.3789,-13.3789,-13.3789,-13.3789,-13.3789,-13.3789,-13.3789,-13.3789,-13.3789,-13.3789,-13.3789,-13.3789,-13.3789,-13.3281,-13.3086,-13.3008,-12.9883,-12.8593,-12.8593,-12.8593,-12.8593,-12.8593,-12.8593,-12.8593,-12.8593,-12.8593,-12.8593,-12.8515,-12.8086,-12.6015,-12.3515,-12.3515,-12.3515,-12.3515,-12.3515,-12.3515,-12.3515,-12.3515,-12.2689,-12.1826,-12.1577,-12.2389,-12.3296,-12.3514,-12.3515,-12.3398,-12.289,-12.2812,-12.2812,-12.2812,-12.2812,-12.1795,-11.8607,-11.8091,-11.8091,-11.8091,-11.8091,-11.8091,-11.8091,-11.8197,-11.7887,-11.6916,-11.6712,-11.6709,-11.649,-11.6484,-11.7907,-12.1293,-12.16,-12.16,-12.16,-12.16,-12.0177,-11.7292,-11.6676,-11.6484,-11.6484,-11.6484,-11.6484,-11.6484,-11.6484,-11.6676,-11.7176,-11.6676,-11.6484,-11.6484,-11.6484,-11.8407,-12.16,-12.16,-12.16,-12.16,-12.16,-12.16,-12.16,-12.16,-12.16,-12.16,-13.3789,-13.3789,-13.3789,-13.3789,-13.3789,-13.3789,-13.3789,-13.3789,-13.3789,-13.3789,-13.3789,-13.3789,-13.3789,-13.3789,-13.3789,-13.3789,-13.3789,-13.3789,-13.3789,-13.3789,-13.3789,-13.3789,-13.3789,-13.3789,-13.3789,-13.3789,-13.3789,-13.3789,-13.3789,-13.3789,-13.3789,-13.3789,-13.3789,-13.3711,-13.2187,-13.039,-12.8593,-12.8593,-12.8593,-12.8593,-12.8593,-12.8593,-12.8789,-13.0781,-13.0312,-12.8281,-12.6406,-12.4804,-12.3515,-12.3515,-12.3515,-12.3515,-12.3515,-12.3515,-12.3906,-12.5781,-12.4606,-12.2688,-12.2688,-12.1703,-12.1093,-12.3008,-12.3515,-12.3515,-12.3515,-12.3515,-12.3515,-12.3515,-12.1992,-12.0117,-11.8593,-11.8281,-11.8906,-12.0898,-12.1211,-12.1211,-12.1211,-12.1211,-12.0008,-11.6879,-11.6484,-11.7292,-11.9177,-11.9292,-11.9985,-12.1485,-12.16,-12.16,-12.16,-11.9792,-11.81,-11.6484,-11.6484,-11.6484,-11.6484,-11.6484,-11.6484,-11.6484,-11.6484,-11.6484,-11.6484,-11.6484,-11.6484,-11.6484,-11.6484,-11.7407,-11.8908,-12.0793,-12.16,-12.16,-12.16,-12.16,-12.16,-12.16,-12.16,-12.16]},{"header":{"parameterUnit":"m.s-1","parameterCategory":1,"la1":30.6,"la2":28.766,"lo1":-90.7593,"lo2":-88.6598,"dy":0.0162,"dx":0.0183,"nx":116,"ny":114,"refTime":"2024-04-10T18:00:00:Z","depth":0,"parameterNumber":3,"parameterNumberName":"V-component_of_WINDS"},"data":[0.0,0.0,0.0,0.0,0.0,0.0,0.0,0.0,0.0,0.0,0.0,0.0,0.0,0.0,0.0,0.0,0.0,0.0,0.0,0.0,0.0,0.0,0.0,0.0,0.0,0.0,0.0,0.0,0.0,0.0,0.0,0.0,0.0,0.0,0.0,0.0,0.0,0.0,0.0,0.0,0.0,0.0,0.0,0.0,0.0,0.0,0.0,0.0,0.0,0.0,0.0,0.0,0.0,0.0,0.0,0.0,0.0,0.0,0.0,0.0,0.0,0.0,0.0,0.0,0.0,0.0,0.0,0.0,0.0,0.0,0.0,0.0,0.0,0.0,0.0,0.0,0.0,0.0,0.0,0.0,0.0,0.0,0.0,0.0,0.0,0.0,0.0,0.0,0.0,0.0,0.0,0.0,0.0,0.0,0.0,0.0,0.0,0.0,0.0,0.0,0.0,0.0,0.0,0.0,0.0,0.0,0.0,0.0,0.0,0.0,0.0,0.0,0.0,0.0,0.0,0.0,0.0,0.0,0.0,0.0,0.0,0.0,0.0,0.0,0.0,0.0,0.0,0.0,0.0,0.0,0.0,0.0,0.0,0.0,0.0,0.0,0.0,0.0,0.0,0.0,0.0,0.0,0.0,0.0,0.0,0.0,0.0,0.0,0.0,0.0,0.0,0.0,0.0,0.0,0.0,0.0,0.0,0.0,0.0,0.0,0.0,0.0,0.0,0.0,0.0,0.0,0.0,0.0,0.0,0.0,0.0,0.0,0.0,0.0,0.0,0.0,0.0,0.0,0.0,0.0,0.0,0.0,0.0,0.0,0.0,0.0,0.0,0.0,0.0,0.0,0.0,0.0,0.0,0.0,0.0,0.0,0.0,0.0,0.0,0.0,0.0,0.0,0.0,0.0,0.0,0.0,0.0,0.0,0.0,0.0,0.0,0.0,0.0,0.0,0.0,0.0,0.0,0.0,0.0,0.0,0.0,0.0,0.0,0.0,0.0,0.0,0.0,0.0,0.0,0.0,0.0,0.0,0.0,0.0,0.0,0.0,0.0,0.0,0.0,0.0,0.0,0.0,0.0,0.0,0.0,0.0,0.0,0.0,0.0,0.0,0.0,0.0,0.0,0.0,0.0,0.0,0.0,0.0,0.0,0.0,0.0,0.0,0.0,0.0,0.0,0.0,0.0,0.0,0.0,0.0,0.0,0.0,0.0,0.0,0.0,0.0,0.0,0.0,0.0,0.0,0.0,0.0,0.0,0.0,0.0,0.0,0.0,0.0,0.0,0.0,0.0,0.0,0.0,0.0,0.0,0.0,0.0,0.0,0.0,0.0,0.0,0.0,0.0,0.0,0.0,0.0,0.0,0.0,0.0,0.0,0.0,0.0,0.0,0.0,0.0,0.0,0.0,0.0,0.0,0.0,0.0,0.0,0.0,0.0,0.0,0.0,0.0,0.0,0.0,0.0,0.0,0.0,0.0,0.0,0.0,0.0,0.0,0.0,0.0,0.0,0.0,0.0,0.0,0.0,0.0,0.0,0.0,0.0,0.0,0.0,0.0,0.0,0.0,0.0,0.0,0.0,0.0,0.0,0.0,0.0,0.0,0.0,0.0,0.0,0.0,0.0,0.0,0.0,0.0,0.0,0.0,0.0,0.0,0.0,0.0,0.0,0.0,0.0,0.0,0.0,0.0,0.0,0.0,0.0,0.0,0.0,0.0,0.0,0.0,0.0,0.0,0.0,0.0,0.0,0.0,0.0,0.0,0.0,0.0,0.0,0.0,0.0,0.0,0.0,0.0,0.0,0.0,0.0,0.0,0.0,0.0,0.0,0.0,0.0,0.0,0.0,0.0,0.0,0.0,0.0,0.0,0.0,0.0,0.0,0.0,0.0,0.0,0.0,0.0,0.0,0.0,0.0,0.0,0.0,0.0,0.0,0.0,0.0,0.0,0.0,0.0,0.0,0.0,0.0,0.0,0.0,0.0,0.0,0.0,0.0,0.0,0.0,0.0,0.0,0.0,0.0,0.0,0.0,0.0,0.0,0.0,0.0,0.0,0.0,0.0,0.0,0.0,0.0,0.0,0.0,0.0,0.0,0.0,0.0,0.0,0.0,0.0,0.0,0.0,0.0,0.0,0.0,0.0,0.0,0.0,0.0,0.0,0.0,0.0,0.0,0.0,0.0,0.0,0.0,0.0,0.0,0.0,0.0,0.0,0.0,0.0,0.0,0.0,0.0,0.0,0.0,0.0,0.0,0.0,0.0,0.0,0.0,0.0,0.0,0.0,0.0,0.0,0.0,0.0,0.0,0.0,0.0,0.0,0.0,0.0,0.0,0.0,0.0,0.0,0.0,0.0,0.0,0.0,0.0,0.0,0.0,0.0,0.0,0.0,0.0,0.0,0.0,0.0,0.0,0.0,0.0,0.0,0.0,0.0,0.0,0.0,0.0,0.0,0.0,0.0,0.0,0.0,0.0,0.0,0.0,0.0,0.0,0.0,0.0,0.0,0.0,0.0,0.0,0.0,0.0,0.0,0.0,0.0,0.0,0.0,0.0,0.0,0.0,0.0,0.0,0.0,0.0,0.0,0.0,0.0,0.0,0.0,0.0,0.0,0.0,0.0,0.0,0.0,0.0,0.0,0.0,0.0,0.0,0.0,0.0,0.0,0.0,0.0,0.0,0.0,0.0,0.0,0.0,0.0,0.0,0.0,0.0,0.0,0.0,0.0,0.0,0.0,0.0,0.0,0.0,0.0,0.0,0.0,0.0,0.0,0.0,0.0,0.0,0.0,0.0,0.0,0.0,0.0,0.0,0.0,0.0,0.0,0.0,0.0,0.0,0.0,0.0,0.0,0.0,0.0,0.0,0.0,0.0,0.0,0.0,0.0,0.0,0.0,0.0,0.0,0.0,0.0,0.0,0.0,0.0,0.0,0.0,0.0,0.0,0.0,0.0,0.0,0.0,0.0,0.0,0.0,0.0,0.0,0.0,0.0,0.0,0.0,0.0,0.0,0.0,0.0,0.0,0.0,0.0,0.0,0.0,0.0,0.0,0.0,0.0,0.0,0.0,0.0,0.0,0.0,0.0,0.0,0.0,0.0,0.0,0.0,0.0,0.0,0.0,0.0,0.0,0.0,0.0,0.0,0.0,0.0,0.0,0.0,0.0,0.0,0.0,0.0,0.0,0.0,0.0,0.0,0.0,0.0,0.0,0.0,0.0,0.0,0.0,0.0,0.0,0.0,0.0,0.0,0.0,0.0,0.0,0.0,0.0,0.0,0.0,0.0,0.0,0.0,0.0,0.0,0.0,0.0,0.0,0.0,0.0,0.0,0.0,0.0,0.0,0.0,0.0,0.0,0.0,0.0,0.0,0.0,0.0,0.0,0.0,0.0,0.0,0.0,0.0,0.0,0.0,0.0,0.0,0.0,0.0,0.0,0.0,0.0,0.0,0.0,0.0,0.0,0.0,0.0,0.0,0.0,0.0,0.0,0.0,0.0,0.0,0.0,0.0,0.0,0.0,0.0,0.0,0.0,0.0,0.0,0.0,0.0,0.0,0.0,0.0,0.0,0.0,0.0,0.0,0.0,0.0,0.0,0.0,0.0,0.0,0.0,0.0,0.0,0.0,0.0,0.0,0.0,0.0,0.0,0.0,0.0,0.0,0.0,0.0,0.0,0.0,0.0,0.0,0.0,0.0,0.0,0.0,0.0,0.0,0.0,0.0,0.0,0.0,0.0,0.0,0.0,0.0,0.0,0.0,0.0,0.0,0.0,0.0,0.0,0.0,0.0,0.0,0.0,0.0,0.0,0.0,0.0,0.0,0.0,0.0,0.0,0.0,0.0,0.0,0.0,0.0,0.0,0.0,0.0,0.0,0.0,0.0,0.0,0.0,0.0,0.0,0.0,0.0,0.0,0.0,0.0,0.0,0.0,0.0,0.0,0.0,0.0,0.0,0.0,0.0,0.0,0.0,0.0,0.0,0.0,0.0,0.0,0.0,0.0,0.0,0.0,0.0,0.0,0.0,0.0,0.0,0.0,0.0,0.0,0.0,0.0,0.0,0.0,0.0,0.0,0.0,0.0,0.0,0.0,0.0,0.0,0.0,0.0,0.0,0.0,0.0,0.0,0.0,0.0,0.0,0.0,0.0,0.0,0.0,0.0,0.0,0.0,0.0,0.0,0.0,0.0,0.0,0.0,0.0,0.0,0.0,0.0,0.0,0.0,0.0,0.0,0.0,0.0,0.0,0.0,0.0,0.0,0.0,0.0,0.0,0.0,0.0,0.0,0.0,0.0,0.0,0.0,0.0,0.0,0.0,0.0,0.0,0.0,0.0,0.0,0.0,0.0,0.0,0.0,0.0,0.0,0.0,0.0,0.0,0.0,0.0,0.0,0.0,0.0,0.0,0.0,0.0,0.0,0.0,0.0,0.0,0.0,0.0,0.0,0.0,0.0,0.0,0.0,0.0,0.0,0.0,0.0,0.0,0.0,0.0,0.0,0.0,0.0,0.0,0.0,0.0,0.0,0.0,0.0,0.0,0.0,0.0,0.0,0.0,0.0,0.0,0.0,0.0,0.0,0.0,0.0,0.0,0.0,0.0,0.0,0.0,0.0,0.0,0.0,0.0,0.0,0.0,0.0,0.0,0.0,0.0,0.0,0.0,0.0,0.0,0.0,0.0,0.0,0.0,0.0,0.0,0.0,0.0,0.0,0.0,0.0,0.0,0.0,0.0,0.0,0.0,0.0,0.0,0.0,0.0,0.0,0.0,0.0,0.0,0.0,0.0,0.0,0.0,0.0,0.0,0.0,0.0,0.0,0.0,0.0,0.0,0.0,0.0,0.0,0.0,0.0,0.0,0.0,0.0,0.0,0.0,0.0,0.0,0.0,0.0,0.0,0.0,0.0,0.0,0.0,0.0,0.0,0.0,0.0,0.0,0.0,0.0,0.0,0.0,0.0,0.0,0.0,0.0,0.0,0.0,0.0,0.0,0.0,0.0,0.0,0.0,0.0,0.0,0.0,0.0,0.0,0.0,0.0,0.0,0.0,0.0,0.0,0.0,0.0,0.0,0.0,0.0,0.0,0.0,0.0,0.0,0.0,0.0,0.0,0.0,0.0,0.0,0.0,0.0,0.0,0.0,0.0,0.0,0.0,0.0,0.0,0.0,0.0,0.0,0.0,0.0,0.0,0.0,0.0,0.0,0.0,0.0,0.0,0.0,0.0,0.0,0.0,0.0,0.0,0.0,0.0,0.0,0.0,0.0,0.0,0.0,0.0,0.0,0.0,0.0,0.0,0.0,0.0,0.0,0.0,0.0,0.0,0.0,0.0,0.0,0.0,0.0,0.0,0.0,0.0,0.0,0.0,0.0,0.0,0.0,0.0,0.0,0.0,0.0,0.0,0.0,0.0,0.0,0.0,0.0,0.0,0.0,0.0,0.0,0.0,0.0,0.0,0.0,0.0,0.0,0.0,0.0,0.0,0.0,0.0,0.0,0.0,0.0,0.0,0.0,0.0,0.0,0.0,0.0,0.0,0.0,0.0,0.0,0.0,0.0,0.0,0.0,0.0,0.0,0.0,0.0,0.0,0.0,0.0,0.0,0.0,0.0,0.0,0.0,0.0,0.0,0.0,0.0,0.0,0.0,0.0,0.0,0.0,0.0,0.0,0.0,0.0,0.0,0.0,0.0,0.0,0.0,0.0,0.0,0.0,0.0,0.0,0.0,0.0,0.0,0.0,0.0,0.0,0.0,0.0,0.0,0.0,0.0,0.0,0.0,0.0,0.0,0.0,0.0,0.0,0.0,0.0,0.0,0.0,0.0,0.0,0.0,0.0,0.0,0.0,0.0,0.0,0.0,0.0,0.0,0.0,0.0,0.0,0.0,0.0,0.0,0.0,0.0,0.0,0.0,0.0,0.0,0.0,0.0,0.0,0.0,0.0,0.0,0.0,0.0,0.0,0.0,0.0,0.0,0.0,0.0,0.0,0.0,0.0,0.0,0.0,0.0,0.0,0.0,0.0,0.0,0.0,0.0,0.0,0.0,0.0,0.0,0.0,0.0,0.0,0.0,0.0,0.0,0.0,0.0,0.0,0.0,0.0,0.0,0.0,0.0,8.8028,8.8149,0.0,0.0,0.0,0.0,0.0,0.0,0.0,0.0,0.0,0.0,0.0,0.0,0.0,0.0,0.0,0.0,0.0,0.0,0.0,0.0,0.0,0.0,0.0,4.1375,3.9313,3.9692,3.8821,3.9297,4.1825,4.2655,4.4019,4.6221,4.6308,4.6308,4.6308,4.6289,4.7668,5.0395,5.3565,5.8031,6.3686,6.4581,6.5861,6.7395,0.0,0.0,0.0,0.0,0.0,0.0,0.0,0.0,0.0,0.0,0.0,0.0,0.0,0.0,0.0,0.0,0.0,0.0,0.0,0.0,0.0,0.0,0.0,0.0,0.0,0.0,0.0,0.0,0.0,0.0,0.0,0.0,0.0,0.0,0.0,0.0,0.0,0.0,0.0,0.0,0.0,0.0,0.0,0.0,0.0,0.0,0.0,0.0,0.0,0.0,0.0,0.0,0.0,0.0,0.0,0.0,0.0,0.0,0.0,0.0,0.0,0.0,0.0,0.0,0.0,0.0,0.0,0.0,0.0,0.0,8.3965,8.4265,0.0,0.0,0.0,0.0,0.0,0.0,0.0,0.0,0.0,0.0,0.0,0.0,0.0,0.0,0.0,0.0,0.0,0.0,0.0,0.0,0.0,4.672,4.5626,4.2225,4.0547,4.1742,4.0825,4.1247,4.357,4.4025,4.4823,4.6455,4.6523,4.6523,4.6523,4.7297,4.885,5.1423,5.6581,6.2251,6.8326,7.1008,7.1381,6.9988,7.1044,0.0,0.0,0.0,0.0,0.0,0.0,0.0,0.0,0.0,0.0,0.0,0.0,0.0,0.0,0.0,0.0,0.0,0.0,0.0,0.0,0.0,0.0,0.0,0.0,0.0,0.0,0.0,0.0,0.0,0.0,0.0,0.0,0.0,0.0,0.0,0.0,0.0,0.0,0.0,0.0,0.0,0.0,0.0,0.0,0.0,0.0,0.0,0.0,0.0,0.0,0.0,0.0,0.0,0.0,0.0,0.0,0.0,0.0,0.0,0.0,0.0,0.0,0.0,9.8781,9.5501,8.9437,8.9437,8.7538,8.4192,8.5662,8.6442,8.6838,8.9052,0.0,0.0,0.0,0.0,0.0,0.0,0.0,0.0,0.0,0.0,0.0,0.0,0.0,0.0,0.0,0.0,0.0,0.0,0.0,4.7887,4.8475,4.5656,4.4833,4.7691,4.699,4.7424,4.9749,4.8414,4.747,4.7422,4.7422,4.7422,4.7422,4.9515,5.2131,5.5463,6.2878,6.7594,6.9677,7.2385,7.3822,7.412,7.4298,7.3093,7.1051,0.0,0.0,0.0,0.0,0.0,0.0,0.0,0.0,0.0,0.0,0.0,0.0,0.0,0.0,0.0,0.0,0.0,0.0,0.0,0.0,0.0,0.0,0.0,0.0,0.0,0.0,0.0,0.0,0.0,0.0,0.0,0.0,0.0,0.0,0.0,0.0,0.0,0.0,0.0,0.0,0.0,7.2547,8.8659,0.0,0.0,0.0,0.0,0.0,0.0,0.0,0.0,0.0,0.0,0.0,0.0,0.0,10.0562,10.2502,10.2502,10.2299,10.1927,10.1927,10.1407,10.0419,10.0419,9.6488,8.997,9.6918,0.0,8.6689,8.7048,0.0,0.0,0.0,0.0,0.0,0.0,0.0,0.0,0.0,0.0,0.0,0.0,0.0,0.0,0.0,0.0,0.0,0.0,0.0,0.0,0.0,4.6839,4.6537,4.8735,4.8987,4.9955,5.2015,4.9981,4.9047,4.9528,4.8276,4.8186,4.9549,4.9891,5.3152,5.9412,6.6269,7.0471,7.2218,7.4099,7.5168,7.5467,7.5467,7.5021,7.4251,7.5002,0.0,0.0,0.0,0.0,0.0,0.0,0.0,0.0,0.0,0.0,0.0,0.0,0.0,0.0,0.0,0.0,0.0,0.0,0.0,0.0,0.0,0.0,0.0,0.0,0.0,0.0,0.0,0.0,0.0,0.0,0.0,0.0,0.0,0.0,0.0,0.0,0.0,0.0,0.0,7.2778,7.8688,8.7393,8.8424,8.8993,0.0,0.0,0.0,0.0,0.0,0.0,0.0,0.0,0.0,10.2434,10.438,10.5299,10.5038,10.5005,10.6719,10.9998,10.6595,10.5005,10.4904,10.328,10.0583,9.7447,10.102,9.9851,9.5477,9.3723,9.1228,8.8454,0.0,0.0,0.0,0.0,8.184,8.0719,0.0,0.0,0.0,0.0,0.0,0.0,0.0,0.0,0.0,0.0,0.0,0.0,4.8808,4.8337,4.8601,5.0548,5.091,5.1944,5.422,5.1925,5.0781,5.1404,5.0319,5.023,5.1446,5.2184,5.6105,6.3226,6.8585,7.2071,7.3911,7.5288,7.5916,7.5916,7.5916,7.6066,7.6275,7.5888,7.5609,7.5386,0.0,0.0,0.0,0.0,0.0,0.0,0.0,0.0,0.0,0.0,0.0,0.0,0.0,0.0,0.0,0.0,0.0,0.0,0.0,0.0,0.0,0.0,0.0,0.0,0.0,0.0,0.0,0.0,0.0,0.0,0.0,0.0,0.0,0.0,0.0,0.0,0.0,7.7979,8.5252,8.6509,8.7287,8.8454,0.0,0.0,0.0,0.0,0.0,0.0,9.3481,9.7179,10.0506,10.3517,10.7792,11.0213,11.0509,11.0481,11.2801,11.7194,11.0968,10.761,10.6798,10.4599,10.3618,10.3618,10.2806,10.2502,10.2299,10.01,9.5862,9.0829,9.2041,9.1327,8.9621,8.9621,8.8364,8.6778,0.0,0.0,0.0,0.0,0.0,0.0,0.0,0.0,0.0,0.0,0.0,4.9596,5.153,5.1286,5.2342,5.5569,5.4248,5.4683,5.7999,5.5488,5.3472,5.235,5.4302,5.439,5.2392,5.8475,6.3372,6.6753,7.0176,7.2558,7.3911,7.5288,7.5916,7.5916,7.5916,7.5557,7.5125,7.7269,7.6543,7.4226,7.6962,0.0,0.0,0.0,0.0,0.0,0.0,0.0,0.0,0.0,0.0,0.0,0.0,0.0,0.0,0.0,0.0,0.0,0.0,0.0,0.0,0.0,0.0,0.0,0.0,0.0,0.0,0.0,0.0,0.0,0.0,0.0,0.0,0.0,0.0,0.0,0.0,0.0,0.0,8.6958,8.8903,0.0,0.0,0.0,0.0,8.7048,8.6868,9.1287,10.1418,10.2105,10.3618,10.6595,10.6997,11.1282,12.0072,12.0194,12.0304,12.0607,11.4175,10.9674,10.69,10.6697,10.6697,10.6494,10.372,10.2502,10.2502,10.2333,10.2038,10.1409,9.8717,9.3272,8.6868,8.6868,8.6778,8.7048,0.0,0.0,0.0,0.0,0.0,5.4535,5.0996,4.8785,4.7564,4.7709,4.8145,4.9154,5.1038,5.2187,5.3732,5.5913,5.556,5.6212,5.8458,5.661,5.5468,5.5784,5.5757,5.5423,5.4751,6.1377,6.5282,6.6064,7.0819,7.3642,7.454,7.5886,7.6485,7.6514,7.6933,7.7322,7.7692,7.7246,7.7301,7.7621,7.7173,7.7705,0.0,0.0,0.0,0.0,0.0,0.0,0.0,0.0,0.0,0.0,0.0,0.0,0.0,0.0,0.0,0.0,0.0,0.0,0.0,0.0,0.0,0.0,0.0,0.0,0.0,0.0,0.0,0.0,0.0,0.0,0.0,0.0,0.0,0.0,0.0,0.0,0.0,8.9322,9.007,0.0,8.8245,8.8095,8.8394,8.9172,9.3964,9.9299,10.5008,10.7204,10.8693,10.9775,10.9775,11.3401,12.079,11.8783,11.6793,11.483,11.2469,10.9809,10.69,10.69,10.5885,10.399,10.3009,10.2502,10.2502,10.2502,10.2502,10.2401,10.1318,9.9219,9.665,9.4656,9.3972,9.3416,0.0,0.0,0.0,0.0,0.0,5.2902,4.8852,4.7157,4.6282,4.5915,4.7815,4.9668,5.0931,5.3623,5.5767,5.6855,5.7168,5.8027,5.9709,5.83,5.7766,5.8498,5.7399,5.7181,5.8167,6.2971,6.5946,6.7059,7.0981,7.3566,7.4899,7.6006,7.6514,7.6544,7.6963,7.8255,8.0096,7.85,7.8783,8.0091,7.9344,7.9945,8.0865,0.0,0.0,0.0,0.0,0.0,0.0,0.0,0.0,0.0,0.0,0.0,0.0,0.0,0.0,0.0,0.0,0.0,0.0,0.0,0.0,0.0,0.0,0.0,0.0,0.0,0.0,0.0,0.0,0.0,0.0,0.0,0.0,0.0,0.0,8.1091,8.8634,9.0429,9.1446,9.1297,8.9531,8.9352,9.1618,9.7216,10.3387,10.7813,10.9809,11.1805,11.2888,11.2888,11.2888,11.4432,11.7717,11.5511,11.3889,11.2888,11.1873,11.0384,10.8388,10.7373,10.5817,10.3923,10.2908,10.2502,10.2502,10.2502,10.2502,10.2502,10.2502,10.2502,10.2299,10.0303,9.9525,9.8438,0.0,0.0,0.0,0.0,0.0,5.0451,4.7183,4.6152,4.5547,4.5098,4.8685,5.1349,5.1407,5.577,5.8704,5.8755,5.9207,6.0186,6.1843,6.0939,6.0305,6.0252,5.9189,5.9823,6.2418,6.3548,6.6107,7.0152,7.0717,7.2368,7.4899,7.5587,7.5916,7.5916,7.5946,7.8175,8.1756,8.1273,8.1079,8.1327,8.3546,8.3569,8.207,0.0,0.0,0.0,0.0,0.0,0.0,0.0,0.0,0.0,0.0,0.0,0.0,0.0,0.0,0.0,0.0,0.0,0.0,0.0,0.0,0.0,0.0,0.0,0.0,0.0,0.0,0.0,0.0,0.0,0.0,0.0,0.0,0.0,6.3407,7.4782,8.4923,9.013,9.3122,9.4738,9.4738,9.4798,9.9509,11.0665,11.4207,11.5831,11.5831,11.5831,11.5831,11.5831,11.5831,11.4482,11.1884,11.1607,11.2921,11.5628,11.2786,11.1365,11.1196,10.8185,10.69,10.6697,10.3889,10.2603,10.2603,10.2502,10.2502,10.2502,10.2502,10.2502,10.2536,10.2209,10.211,10.0986,0.0,0.0,0.0,6.0737,5.5166,5.049,4.7606,4.6595,4.5976,4.5547,4.9447,5.2414,5.2577,5.6227,5.9031,5.9809,5.9633,5.9859,6.0713,6.0889,6.1151,6.1474,6.1312,6.1991,6.3627,6.5423,6.7769,7.0717,7.2776,7.4179,7.4899,7.5587,7.5916,7.5946,7.6874,7.8316,8.0188,8.227,8.4176,8.5711,8.534,8.6321,8.7595,0.0,0.0,0.0,0.0,0.0,0.0,0.0,0.0,0.0,0.0,0.0,0.0,0.0,0.0,0.0,0.0,0.0,0.0,0.0,0.0,0.0,0.0,0.0,0.0,0.0,0.0,0.0,0.0,0.0,0.0,0.0,7.5985,7.725,7.725,8.3755,8.9741,9.3122,9.5845,9.7461,9.7461,9.9197,10.4313,11.3896,11.5323,11.5831,11.5831,11.5831,11.5831,11.5831,11.5831,11.7674,12.1707,11.6977,11.3902,11.2583,11.1805,11.0283,10.8084,10.7272,10.69,10.6866,10.602,10.5682,10.5513,10.3415,10.2502,10.2502,10.2502,10.2502,10.1783,9.5976,9.3903,9.3312,0.0,0.0,0.0,5.7517,5.3254,4.9717,4.6804,4.6478,4.6481,4.6145,5.0201,5.3078,5.3164,5.6926,5.9558,5.9935,6.0337,6.0788,6.1341,6.2643,6.3412,6.3332,6.3862,6.476,6.5828,6.6964,6.9076,7.2186,7.3179,7.405,7.4899,7.5288,7.5617,7.5946,7.6664,7.804,7.9929,8.2053,8.4957,8.8123,8.7859,8.932,9.1325,8.8672,8.7017,8.5343,7.9329,7.7143,7.6904,7.5377,0.0,0.0,0.0,0.0,0.0,0.0,0.0,0.0,0.0,0.0,0.0,0.0,0.0,0.0,0.0,0.0,0.0,0.0,0.0,0.0,0.0,0.0,0.0,0.0,8.2619,8.6449,8.7586,9.0369,9.3272,9.5935,9.8598,10.0214,10.0214,10.159,10.6154,11.5142,11.5831,11.5831,11.5831,11.5831,11.5831,11.5831,11.8457,12.0547,12.1509,11.7715,11.4917,11.3226,11.2008,11.1912,11.2598,10.8662,10.69,10.69,10.69,10.69,10.6798,10.5073,10.3618,10.2502,0.0,0.0,0.0,0.0,8.995,8.8753,0.0,0.0,0.0,5.2962,5.0544,4.8583,4.5455,4.6152,4.6801,4.6391,5.0583,5.3397,5.3005,5.7204,5.9859,5.9433,6.0889,6.2069,6.2697,6.481,6.5775,6.5088,6.6284,6.7477,6.8468,6.8509,7.0278,7.4001,7.2859,7.3123,7.4869,7.4869,7.5258,7.5916,7.5976,7.7577,8.015,8.1065,8.4206,8.8765,9.0173,9.1958,9.3605,9.2658,9.1169,8.8482,7.9629,7.5798,7.4869,7.4869,0.0,0.0,0.0,0.0,0.0,0.0,0.0,0.0,0.0,0.0,0.0,0.0,0.0,0.0,0.0,0.0,0.0,0.0,0.0,0.0,0.0,0.0,0.0,0.0,8.8065,9.2651,9.6044,9.594,9.6354,9.8688,10.1082,10.2488,10.2488,10.2787,10.674,11.5613,11.6304,11.6304,11.6304,11.6304,0.0,0.0,0.0,12.2515,11.5904,11.5831,11.5628,11.5323,11.2685,11.4391,11.9508,11.0911,10.69,10.69,10.69,10.69,10.69,10.69,10.5174,10.2437,10.1518,9.6864,9.0608,9.0309,8.7981,8.5097,0.0,0.0,5.8235,5.2768,5.0544,4.8583,4.5455,4.6406,4.6719,4.4604,4.959,5.2802,5.109,5.5335,5.8504,5.8855,5.996,6.1065,6.2094,6.3104,6.3864,6.4363,6.6045,6.8049,7.0428,7.0937,7.2353,7.4689,7.4436,7.4495,7.4869,7.4869,7.5258,7.5916,7.6425,7.7264,7.8438,8.0548,8.3826,8.7728,8.9401,9.1853,9.4417,9.3605,9.3064,9.2169,8.7879,8.1441,7.4869,7.4869,7.4869,7.5112,7.6401,7.4775,0.0,0.0,0.0,0.0,0.0,0.0,0.0,0.0,0.0,0.0,0.0,0.0,0.0,0.0,0.0,0.0,0.0,0.0,0.0,8.8514,9.3541,9.9562,10.7086,10.4019,10.1171,10.168,10.2189,10.2488,10.2488,10.4403,10.9541,11.8709,11.9383,11.9383,11.9383,11.9383,11.9383,11.9383,12.3493,12.2515,11.5904,11.5831,11.4613,11.2211,11.1703,0.0,11.3065,10.8826,10.69,10.69,10.69,10.69,10.69,10.69,10.5174,10.1882,9.5375,9.1962,9.0369,8.8245,8.2369,7.5447,0.0,5.7872,5.4817,4.9531,4.832,4.7487,4.5667,4.6621,4.7288,4.6514,4.9911,5.2187,5.1483,5.4197,5.6269,5.6709,5.8554,6.0887,6.3635,6.3934,6.4776,6.655,6.8121,7.0021,7.2394,7.311,7.3882,7.4869,7.4869,7.5048,7.5377,7.5048,7.5587,7.6844,7.6844,7.7382,7.8411,7.9941,8.2958,8.6883,8.802,9.078,9.4112,9.374,9.2875,9.172,9.0587,8.3622,7.4869,7.4869,7.4869,7.4869,7.4869,7.3971,7.3402,0.0,0.0,0.0,0.0,0.0,0.0,0.0,0.0,0.0,0.0,0.0,0.0,0.0,0.0,6.6463,6.7568,0.0,8.8005,9.1985,9.7072,10.1998,10.6324,10.4408,10.2488,10.2488,10.2488,10.2997,10.4313,10.9902,11.5911,12.1983,12.2495,12.2495,12.2495,12.1074,12.0262,12.0262,12.059,11.9183,11.5797,11.5831,11.4308,11.1399,10.9877,10.9099,10.9099,10.7576,10.69,10.69,10.69,10.69,10.6798,10.531,10.3821,10.1684,9.3747,9.0638,8.9669,8.2366,7.6731,7.274,0.0,0.0,4.9977,4.618,4.6246,4.6578,4.5812,4.6758,4.783,4.8442,5.0165,5.1416,5.1761,5.3047,5.4145,5.4926,5.7059,6.0194,6.4338,6.4221,6.5275,6.8216,6.9693,7.1461,7.3486,7.4463,7.4929,7.5078,7.5078,7.5437,7.6066,7.5527,7.6155,7.7801,7.7263,7.7682,7.8819,7.9387,8.1976,8.571,8.6489,8.9211,9.2853,9.255,9.1264,8.96,9.0127,8.364,7.4869,7.4869,7.4869,7.4958,7.5467,7.5647,7.5527,7.5018,7.7113,0.0,0.0,0.0,0.0,0.0,0.0,0.0,0.0,6.7213,6.484,6.3678,6.3802,6.547,6.9984,8.2113,9.2284,9.4947,9.9376,10.2488,10.2488,10.2907,10.3266,10.3266,10.4888,10.6997,10.9706,11.6724,12.2089,12.4491,12.4694,12.4694,12.4694,12.1886,12.0262,12.0262,11.7894,11.6406,11.5831,11.5831,11.4308,11.1399,10.8896,10.7779,10.7779,10.7779,10.7475,10.6799,10.469,10.4863,10.663,10.202,10.0211,9.9527,9.307,8.9462,8.6601,7.6467,7.2991,7.3368,0.0,0.0,0.0,4.5607,4.6626,4.6928,4.5871,4.6758,4.7218,4.6245,4.8862,5.0366,4.9323,5.1253,5.3459,5.5459,5.5669,5.7024,6.0399,6.0738,6.2225,6.5349,6.7818,7.0069,7.2055,7.3922,7.5168,7.5796,7.5796,7.6125,7.6724,7.6634,7.7023,7.7801,7.7741,7.81,7.8789,7.8878,8.0801,8.3919,8.4941,8.7273,8.9991,8.8763,8.7972,8.7548,8.6952,8.1631,7.4869,7.4869,7.4869,7.5288,7.7622,7.834,7.7891,7.5557,7.84,8.1302,7.6574,7.5318,7.5377,7.5677,7.2381,6.915,0.0,7.1547,7.2024,6.683,6.7317,7.2575,8.5464,9.1333,9.5037,9.767,10.0603,10.2488,10.2488,10.4493,10.5989,10.5989,11.3319,11.9489,12.2401,12.3568,12.4322,12.4694,12.4694,12.4694,12.4694,12.1886,12.0262,12.0262,11.9958,11.8503,11.5831,11.5831,11.4308,11.1399,11.1095,11.0892,11.0892,11.0892,10.9403,10.6393,9.6661,9.7897,10.6089,9.6052,9.1912,9.1831,9.0939,8.5337,7.7337,7.39,7.3971,7.5678,0.0,0.0,0.0,4.248,4.4458,4.5817,4.6279,4.827,4.9106,4.7699,4.9977,5.0969,4.9037,4.9964,5.2386,5.6442,5.5666,5.7028,6.1845,6.1278,6.2063,6.4869,6.7827,7.0194,7.1856,7.4621,7.5976,7.5916,7.6275,7.6784,7.7412,7.7412,7.7741,7.837,7.837,7.8519,7.8819,7.9208,8.0963,8.3503,8.3542,8.4912,8.6885,8.549,8.4051,8.2908,8.3515,8.092,0.0,7.5377,7.4869,7.5078,7.6155,7.7562,7.8579,7.7472,7.9806,8.229,8.0075,7.9477,7.8729,7.5647,7.3761,7.3041,7.4545,7.7286,7.9248,7.8257,7.9998,8.3592,8.9496,9.2823,9.5456,9.8089,10.0782,10.2997,10.4583,10.572,10.6408,10.6408,10.9769,11.5496,12.3883,12.4694,12.4694,12.4694,12.4694,12.3983,12.219,12.0973,12.0262,12.0262,12.0262,11.8875,11.5831,11.5831,11.4308,11.1295,10.6331,10.561,10.8794,11.0587,10.9775,10.6392,9.7004,9.5493,9.9247,9.3169,9.0638,8.9996,8.4355,7.9725,7.5929,7.5,7.5251,7.6055,0.0,0.0,0.0,3.9931,4.2346,4.4559,4.663,4.8856,5.0135,4.9742,5.1244,5.2027,5.0873,5.1087,5.2939,5.7067,5.6603,5.7933,6.2362,6.2045,6.2649,6.4895,6.8045,7.053,7.2115,7.5171,7.6784,7.6694,7.6963,7.7622,7.8639,7.846,7.8729,7.9327,7.9148,7.9088,7.9088,7.9417,8.0706,8.2446,8.2227,8.2942,8.392,8.2555,8.1283,8.0396,8.1598,8.0172,7.7652,7.7203,7.6096,7.4869,7.4869,7.6185,7.8011,7.9447,8.1242,8.2844,8.2844,8.1691,7.9836,7.6724,7.7053,7.8819,8.1452,8.2978,8.4594,8.7227,8.9292,9.0638,9.0638,9.2823,9.5695,9.9077,10.1201,10.3416,10.6019,10.6408,10.6109,10.5421,10.4702,10.8013,11.7625,12.2313,12.4694,12.4694,12.3916,12.2563,12.0398,12.0262,12.0262,12.0262,11.9484,11.7996,11.5831,11.5831,11.4714,11.2512,10.5386,10.4182,10.8185,11.0384,10.9775,10.6392,9.8139,9.4199,9.316,8.848,8.6627,8.5953,7.9501,7.6984,7.6984,7.6984,7.6984,7.6984,0.0,0.0,0.0,0.0,4.1116,4.3641,4.6481,4.7727,4.9071,5.1339,5.2093,5.3238,5.5333,5.5617,5.6107,5.7245,5.842,5.9436,6.0067,6.1786,6.344,6.4922,6.8045,7.0726,7.2704,7.5407,7.7442,7.8699,7.8071,7.8789,8.0704,8.0045,8.0105,8.0704,8.0075,7.9776,7.9746,7.9088,7.9208,7.9995,8.1025,8.1442,8.1356,8.0027,8.0548,8.1944,8.1976,7.8956,7.5766,8.0823,7.9118,7.4869,7.4869,7.4929,7.6006,8.1123,8.2784,8.2844,8.2844,7.9028,7.5677,7.8071,8.2529,8.7018,8.9681,8.8334,8.7317,8.998,9.0579,9.0638,9.0638,9.2823,9.6324,10.1501,10.2428,10.3416,10.6019,10.6408,10.548,10.2907,10.0334,9.9886,10.2896,11.6217,12.4694,12.4694,12.2055,12.0364,12.0262,12.0262,12.0262,12.0262,11.7488,11.5898,11.5831,11.5831,11.5797,11.5628,11.2505,11.1087,11.1298,11.1399,10.9775,10.6392,9.8139,9.3152,9.0031,8.0481,7.6523,7.6725,7.8542,7.9294,7.9294,7.9294,7.9294,7.9294,0.0,0.0,0.0,0.0,0.0,4.447,4.7334,4.9322,5.093,5.2024,5.3684,0.0,0.0,0.0,0.0,0.0,5.9474,6.0388,6.2795,6.2213,6.2114,6.2959,6.5712,6.7372,6.7604,7.2792,7.5451,7.5451,7.7496,7.8819,7.9477,8.0165,8.0105,7.9507,8.0165,7.9986,7.9148,7.9387,8.0105,8.1017,7.9596,7.8536,7.7691,7.6801,7.6221,7.6047,0.0,7.738,7.7741,7.9537,8.0105,7.9806,7.8041,7.7472,7.816,8.1721,8.3995,8.5372,8.5372,8.2798,8.1153,8.5551,8.7975,8.9531,9.0429,8.995,8.9561,9.0459,9.0638,9.0638,9.0638,9.2823,9.5755,9.9286,10.1321,10.2787,10.3685,10.3805,10.0222,9.0495,8.5937,8.723,9.6418,11.2102,12.1785,12.1785,12.0871,12.0262,12.0262,12.0262,11.9383,11.7387,11.83,11.8774,11.8774,11.6812,11.5831,11.5831,11.4816,11.4308,11.4308,11.2312,11.079,10.9291,9.903,9.3092,8.9828,8.0077,7.6933,7.834,7.9093,7.9394,7.9394,7.9394,7.9394,7.9394,0.0,0.0,0.0,0.0,0.0,0.0,0.0,0.0,0.0,0.0,0.0,0.0,0.0,0.0,0.0,0.0,0.0,6.1757,6.3769,6.2134,6.1325,6.2038,6.3443,6.4401,6.4631,6.9935,7.2637,7.2616,7.5563,7.7475,7.839,7.9023,7.9178,7.8819,7.9447,7.9238,7.846,7.8669,7.9307,7.9893,7.7608,7.6147,7.5162,7.4184,7.3111,0.0,7.3138,7.3829,7.4274,7.4274,7.5427,7.7028,7.836,7.8789,7.9297,8.1991,8.4624,8.7049,8.8764,8.9479,9.063,9.3963,9.2735,9.0638,9.0638,9.0638,9.0638,9.0638,9.0638,9.0339,8.9412,8.7869,8.9015,9.5971,10.0124,10.2488,10.2488,9.9095,9.3459,8.4834,7.9243,7.9515,8.8288,9.9216,10.9304,11.7993,11.9687,12.0262,12.0262,12.0262,11.9383,11.7488,11.9281,12.0262,12.0262,11.8402,11.6913,11.5831,11.5831,11.5222,11.4207,11.2279,10.9201,10.5017,9.7771,9.3631,9.1223,8.1323,7.8088,7.9394,7.9394,7.9394,7.9394,7.9394,7.9394,7.9394,0.0,0.0,0.0,0.0,0.0,0.0,0.0,0.0,0.0,0.0,0.0,0.0,0.0,0.0,0.0,0.0,0.0,0.0,6.2784,6.1414,6.1002,6.1826,6.1159,6.1662,6.3667,6.677,6.8974,7.0325,7.2405,7.478,7.723,7.6813,7.7307,7.844,7.7844,7.7575,7.7516,7.689,7.6755,7.6833,7.5124,7.4183,7.3617,7.2327,7.1051,7.0096,7.038,6.8512,6.5961,6.6061,6.6112,6.7627,7.608,7.8878,7.9477,8.202,8.4723,8.7841,9.2741,9.8172,10.2502,10.2502,9.6887,9.1419,9.1419,9.1419,9.1255,9.0751,9.0519,8.9457,8.6339,7.8562,7.7204,9.1508,9.8359,10.1793,10.1501,9.253,8.5922,8.5671,8.0072,7.7109,7.9344,7.9545,8.9196,11.2386,11.7371,11.9382,11.9584,12.0001,12.0195,12.0059,12.0195,12.0262,12.0262,12.0093,11.8605,11.5831,11.5831,11.399,11.0497,11.0699,10.4917,9.4798,9.4798,9.4798,9.4041,8.363,7.9394,7.9394,7.9394,7.9394,7.9394,7.9394,7.9394,7.9394,0.0,0.0,0.0,0.0,0.0,0.0,0.0,0.0,0.0,0.0,0.0,0.0,0.0,0.0,0.0,0.0,0.0,0.0,6.1547,6.0002,5.855,5.7405,5.689,5.7101,5.8223,6.1168,6.3796,6.6288,6.8808,7.1353,7.3739,7.4119,7.4289,7.407,7.4458,7.4345,7.3816,7.3675,7.4154,7.4856,7.2517,7.096,7.0072,6.9582,6.6949,6.3645,6.4507,6.4368,6.3902,6.5559,6.6112,6.7627,7.608,8.0135,8.1871,8.2635,8.5497,9.0222,9.8107,10.1318,10.2502,10.2502,10.2623,10.2689,10.2689,10.2689,10.0409,9.2307,8.9052,8.4866,7.551,7.1897,7.297,8.1418,8.8933,9.2264,8.8346,8.6677,8.4767,8.1453,7.957,7.9394,8.1629,8.183,8.4484,9.0637,10.0956,10.7933,10.9828,11.6513,11.9281,11.7015,11.9078,12.0262,12.0262,11.8097,11.6609,11.5831,11.5831,10.9871,9.8962,10.0896,10.0231,9.7521,9.7521,9.7521,9.6595,8.4392,7.9394,7.9394,7.9394,7.9394,7.9394,7.9394,7.9394,7.9394,0.0,0.0,0.0,0.0,0.0,0.0,0.0,0.0,0.0,0.0,0.0,0.0,0.0,0.0,0.0,0.0,0.0,0.0,0.0,5.8874,5.6978,5.4889,5.3703,5.3394,5.3921,5.6528,5.8927,6.1239,6.4768,6.7837,7.0365,7.128,7.182,7.2013,7.2068,7.2009,7.1599,7.1599,7.2062,0.0,0.0,6.9369,6.8857,6.7317,6.5304,6.3299,6.2948,6.345,6.4153,6.345,6.6231,7.0799,7.5579,7.81,7.9537,8.0674,8.6739,9.4383,10.0811,10.2502,10.2806,10.4092,10.5682,10.69,10.69,10.321,9.773,9.0406,8.365,7.7103,7.0592,6.9361,7.2586,8.2409,8.9681,9.179,8.5048,8.5244,8.5094,8.2583,8.2307,8.2784,8.4014,8.4165,8.4165,8.4165,9.5515,10.3117,10.4613,10.9607,11.2165,11.1675,11.7338,12.0262,12.0262,11.7319,11.3807,10.9858,10.8828,10.4565,9.8119,9.9586,10.0304,10.0304,10.0304,9.9615,9.7605,8.5746,8.0273,7.9394,7.9394,7.9394,7.9394,7.9394,7.9394,7.9394,0.0,0.0,0.0,0.0,0.0,0.0,0.0,0.0,0.0,0.0,5.7038,5.9191,0.0,0.0,0.0,0.0,0.0,0.0,0.0,0.0,5.5561,5.3352,5.1569,5.0723,5.0879,5.287,5.4895,5.6867,6.1028,6.4592,6.7541,6.8594,6.9622,7.0683,7.0164,6.9891,6.9891,6.9973,7.0071,7.0049,6.8695,6.8373,6.8547,0.0,6.4982,6.5434,6.35,6.4053,6.5082,6.124,6.6578,7.4988,7.5707,7.6155,7.7214,8.0913,8.9825,9.9187,10.1792,10.2806,10.372,10.6291,10.7204,10.7373,10.7001,9.8937,9.0616,8.7376,7.7441,6.9351,6.9049,6.925,7.4049,8.8324,9.5067,9.5538,8.7228,8.5998,8.5998,8.5998,8.5998,8.5998,8.5998,8.5998,8.5998,8.5998,9.4859,10.0979,10.2394,10.2817,10.3895,10.581,11.3733,11.8484,11.9687,11.5902,10.9975,10.192,9.9975,10.0244,10.2488,10.2488,10.2488,10.2488,10.2488,10.1201,9.832,8.8762,8.2821,7.9796,7.9495,7.9394,7.9394,7.9394,7.9394,7.9419,0.0,0.0,0.0,0.0,0.0,0.0,0.0,0.0,0.0,0.0,5.7934,5.8797,0.0,0.0,0.0,0.0,0.0,0.0,0.0,0.0,0.0,5.1388,5.0267,5.0254,5.1308,5.1102,5.3373,5.8415,5.9227,6.2208,6.7054,6.6771,6.7069,6.7707,6.712,6.6865,6.689,6.7375,6.7383,6.6904,6.7167,6.6657,6.5685,6.4806,6.4028,0.0,6.2973,6.3073,6.3274,6.2521,6.79,7.5647,8.0016,8.2888,8.6473,9.5721,9.9975,10.1825,10.2401,10.4295,10.6291,10.6798,10.8794,10.9978,10.7475,10.162,9.4795,8.8039,7.7441,6.8874,6.7041,6.8196,7.4049,8.8324,9.5067,9.5538,8.7228,8.5998,8.5998,8.5998,8.5998,8.5998,8.5998,8.5998,8.5998,8.5998,8.7755,9.2821,10.1988,10.4523,10.4912,10.3206,10.4674,10.9121,11.6501,10.876,10.2849,9.9226,10.0992,10.2009,10.2488,10.2488,10.2488,10.2488,10.2488,10.2219,10.1527,9.7416,9.0349,8.193,8.0097,7.9394,7.9394,7.9394,7.9394,7.9645,0.0,0.0,0.0,0.0,0.0,0.0,0.0,5.4062,5.642,6.0127,5.9632,6.045,6.4468,6.5157,6.4997,0.0,0.0,0.0,0.0,0.0,0.0,5.0877,5.041,5.1115,5.3006,5.262,5.4663,5.908,0.0,6.2454,6.5738,6.6006,6.5757,6.5086,6.5819,6.5199,6.3642,6.567,6.6589,6.6664,6.6564,6.6162,6.5559,6.5383,6.125,0.0,6.1076,6.2822,6.2998,6.4153,7.1841,8.1452,8.3995,8.9438,9.5916,10.0984,10.2502,10.2806,10.4396,10.5817,10.7272,10.8794,10.9099,10.7185,9.9988,9.5176,8.9667,8.1181,7.4039,6.9125,6.8045,6.8723,7.1654,7.8409,8.5577,8.8829,8.4827,9.0178,9.2402,8.6727,8.5998,8.5998,8.5998,8.5998,8.5998,8.5998,8.5998,8.8794,9.5331,10.1178,10.3805,10.2518,10.3805,10.5896,10.8875,10.455,10.189,10.0603,10.189,10.2488,10.2488,10.2488,10.2488,10.2488,10.2488,10.2488,10.2398,10.1112,9.3542,8.2558,8.1503,8.1102,8.1102,8.1102,8.1102,8.1252,0.0,0.0,0.0,0.0,0.0,0.0,5.366,5.6375,5.9098,6.1456,6.2384,6.3473,6.5238,6.5735,6.5161,0.0,0.0,0.0,0.0,0.0,0.0,0.0,0.0,0.0,5.5408,0.0,0.0,6.002,6.1859,0.0,0.0,0.0,0.0,0.0,6.5583,6.4628,6.2445,6.5173,6.6589,0.0,0.0,6.6338,6.6112,0.0,0.0,0.0,0.0,6.2822,6.3174,6.5358,7.3605,8.297,8.297,9.2006,10.2178,10.0515,9.9972,10.101,10.5617,10.7373,10.8388,11.079,10.7778,10.1736,9.2002,8.6238,8.0897,7.3488,7.0656,6.9361,6.9361,6.9361,6.9361,6.9361,7.5678,8.0223,7.9269,9.2643,9.929,9.0551,8.7476,8.5998,8.5998,8.5998,8.5998,8.5998,8.5998,8.6952,8.9187,9.8242,10.3326,10.3326,10.4792,10.3404,9.8997,9.8968,9.8968,9.8997,10.139,10.2488,10.2488,10.2488,10.2488,10.2488,10.2488,10.2488,10.2488,10.2488,9.495,8.3336,8.2859,8.2683,8.2734,8.3211,8.3386,8.3311,0.0,0.0,0.0,0.0,0.0,0.0,5.5224,6.0058,6.3635,6.4153,6.6695,6.7924,6.6183,6.5634,6.5474,0.0,0.0,0.0,0.0,0.0,0.0,0.0,0.0,0.0,0.0,0.0,0.0,6.2184,6.2879,0.0,0.0,0.0,0.0,0.0,0.0,6.594,6.5706,6.6728,0.0,0.0,0.0,0.0,0.0,0.0,0.0,0.0,0.0,6.2822,6.3174,6.5358,6.8307,7.1001,7.1001,8.5498,10.112,9.3825,9.1668,9.3894,10.4075,10.8896,11.1095,11.1298,10.3466,9.4197,8.8426,7.8763,7.0758,6.9908,6.9486,6.9361,6.9361,6.9361,6.9361,6.9361,7.1811,7.2238,6.8196,8.7797,10.2082,10.114,9.2087,8.5998,8.5998,8.5998,8.5998,8.5998,8.5998,8.6952,8.9187,9.9984,10.6019,10.6019,10.3984,9.7889,8.7671,8.7561,8.7561,8.7671,9.7731,10.2488,10.2488,10.2488,10.2488,10.2488,10.2488,10.2488,10.2488,10.2488,9.5863,8.5496,8.3462,8.2683,8.2909,8.4943,8.5671,8.542,0.0,0.0,0.0,0.0,0.0,0.0,5.615,6.0663,6.4161,6.4856,6.6128,6.6576,6.5695,6.571,6.5234,6.3992,0.0,0.0,0.0,0.0,0.0,0.0,0.0,0.0,0.0,0.0,6.2054,6.4653,6.4874,0.0,0.0,0.0,0.0,0.0,0.0,6.5,6.3265,6.5583,0.0,0.0,0.0,0.0,0.0,0.0,0.0,0.0,0.0,0.0,5.474,5.657,5.782,5.9582,6.5551,7.3482,8.1899,8.8666,9.0638,9.2996,10.3902,10.9099,11.0198,10.4922,9.9086,9.1715,8.0732,7.3672,6.9361,6.9361,6.9361,6.9361,6.9361,6.9361,6.9361,6.9361,7.0179,7.1058,7.1962,8.8248,10.0693,10.2309,9.2716,8.5998,8.5998,8.5998,8.6575,8.7881,8.7956,8.778,8.7354,9.2925,9.5488,9.4156,9.31,9.0444,8.6023,8.5998,8.5998,8.6084,9.0444,9.2612,9.2821,9.9484,10.2488,10.2488,10.2488,10.2488,10.2488,10.2488,9.99,9.5183,8.7676,8.4667,8.4767,8.5671,8.5998,8.4789,0.0,0.0,0.0,0.0,0.0,5.5203,5.6304,6.0459,6.3985,6.4906,6.5107,6.4978,6.4518,6.4146,6.3338,6.1765,6.2184,0.0,0.0,0.0,0.0,0.0,0.0,0.0,0.0,0.0,6.4391,6.6112,6.6112,6.6187,0.0,0.0,6.5446,6.3908,0.0,0.0,0.0,0.0,0.0,0.0,0.0,0.0,0.0,0.0,0.0,0.0,0.0,0.0,0.0,0.0,0.0,5.2624,5.959,6.1799,6.5277,8.3076,8.9412,9.3179,10.4998,10.9775,10.9264,10.0716,9.6563,9.0781,7.6052,7.1033,6.9361,6.9361,6.8924,6.8472,6.8472,6.8999,6.9361,6.9361,6.9361,7.0757,7.4548,8.3676,9.0825,9.3383,8.9168,8.5998,8.5998,8.5998,8.6676,8.8207,8.8283,8.763,8.6098,8.7454,8.7605,8.6073,8.5998,8.5998,8.5998,8.5998,8.5998,8.5998,8.5998,8.5998,8.6307,9.4038,9.7632,9.7858,10.1074,10.2488,10.2488,10.2488,10.2488,10.136,9.0337,8.5998,8.5998,8.5998,8.3619,7.8975,0.0,0.0,0.0,0.0,0.0,5.317,5.542,6.0111,6.3615,6.4438,6.4655,6.4232,6.2728,6.0361,5.9016,5.9393,6.1294,0.0,0.0,0.0,0.0,0.0,0.0,0.0,0.0,0.0,6.6112,6.6112,6.6112,6.6413,6.6965,6.6965,6.6965,6.6965,0.0,0.0,0.0,0.0,0.0,0.0,0.0,0.0,6.6112,0.0,0.0,0.0,0.0,0.0,0.0,0.0,0.0,0.0,0.0,5.1523,5.5713,7.6746,8.6539,9.3658,10.7595,11.1399,10.9264,10.0716,9.6563,9.0781,7.6052,7.1033,6.9361,6.9361,6.7693,6.6137,6.6137,6.7945,6.9361,6.9361,6.9361,7.0229,7.2439,7.1025,7.0563,7.2778,8.0754,8.5998,8.5998,8.5998,8.5998,8.6023,8.6023,8.6023,8.5998,8.6023,8.6023,8.5998,8.5998,8.5998,8.5998,8.5998,8.5998,8.5998,8.5998,8.5998,8.5998,8.611,8.6196,8.6838,9.7759,10.2488,10.2488,10.2488,10.2488,10.136,9.0337,8.5998,8.5998,8.5998,7.7987,6.6892,0.0,0.0,0.0,0.0,0.0,0.0,5.0699,5.5269,5.8872,5.9477,5.9919,6.0002,5.9473,5.927,5.9259,5.923,6.162,0.0,0.0,0.0,0.0,0.0,0.0,0.0,0.0,6.6488,6.6112,6.6112,6.6112,6.6212,6.6388,6.6388,6.6388,6.6388,6.6388,6.6714,0.0,6.6438,0.0,0.0,0.0,6.6112,6.6287,0.0,0.0,0.0,0.0,0.0,0.0,0.0,0.0,0.0,0.0,0.0,0.0,6.9293,8.0414,8.9671,9.774,10.1201,10.188,9.9166,9.1313,8.0312,6.5162,6.1179,6.2272,6.8217,6.7668,6.6112,6.6112,6.6689,6.7668,6.92,6.817,6.7945,7.0179,7.2489,7.3644,7.2816,7.5226,7.9319,8.542,8.5998,8.5998,8.5998,8.5998,8.5998,8.5998,8.5998,8.5998,8.5998,8.7454,8.7529,8.5998,8.5998,8.5998,8.5998,8.5998,8.5998,8.5998,8.5998,9.0122,9.7433,10.0949,10.2488,10.2488,10.2488,10.2488,10.2206,9.8675,9.2716,8.5998,8.5998,7.7847,6.5454,0.0,0.0,0.0,0.0,0.0,0.0,4.8434,5.1552,5.4655,5.74,5.7255,5.6941,5.7312,5.7126,5.6953,5.7218,5.9722,0.0,0.0,0.0,0.0,0.0,0.0,0.0,6.8045,6.6789,6.6112,6.6112,6.6112,6.6112,6.6112,6.6112,6.6112,6.6112,6.6112,6.6488,0.0,6.6413,0.0,0.0,6.6112,6.6112,6.6363,0.0,0.0,0.0,0.0,0.0,0.0,0.0,0.0,0.0,0.0,0.0,0.0,0.0,7.4547,8.1879,8.9537,9.2823,9.3211,8.9687,8.2757,7.328,5.9727,5.6582,5.791,6.2635,6.1926,6.0519,6.0519,6.0519,6.2481,6.8419,6.9677,7.0355,7.1736,7.3594,7.5527,7.7511,7.7737,7.9595,8.4265,8.5496,8.396,7.9208,8.3254,8.5998,8.5998,8.5998,8.5998,8.5998,8.7354,8.7379,8.5998,8.6851,8.7253,8.7253,8.7253,8.9019,9.2193,9.2193,9.6003,10.2488,10.2488,10.2488,0.0,10.3595,10.3984,10.3984,10.3984,9.9791,9.3088,8.7868,7.7847,6.48,0.0,0.0,0.0,0.0,0.0,0.0,0.0,4.8769,5.1121,5.7196,5.6034,5.5038,5.6009,5.4043,5.3105,5.4004,5.6333,0.0,0.0,0.0,0.0,0.0,0.0,0.0,6.9426,6.7417,6.6338,6.6338,6.6187,6.6162,6.6237,6.6137,6.6112,6.6112,6.6287,6.6262,6.6112,6.6112,6.6212,6.6363,6.6513,6.603,0.0,0.0,0.0,0.0,0.0,0.0,0.0,0.0,0.0,0.0,0.0,0.0,0.0,0.0,0.0,0.0,0.0,8.5721,8.3646,7.5129,7.2841,7.0107,6.0032,5.7104,0.0,5.5237,5.3212,5.1582,5.1445,5.1426,5.5033,6.6281,7.2261,7.5402,7.5552,7.4347,7.6507,8.4767,8.5922,8.5169,8.311,8.3944,7.9675,6.7843,7.881,8.5998,8.5998,8.5998,8.5998,8.5998,8.5998,8.5998,8.5998,8.8032,8.9111,8.9287,8.9287,9.4029,10.2787,10.2787,10.2787,10.2787,10.2787,10.2787,10.2997,10.56,10.7134,10.7749,10.7749,10.7207,10.4786,9.1911,7.9,6.5613,0.0,0.0,0.0,0.0,0.0,0.0,0.0,0.0,0.0,0.0,5.2523,5.2854,5.3052,5.3191,5.3555,0.0,0.0,0.0,0.0,0.0,0.0,0.0,0.0,0.0,6.9451,6.8924,6.8673,6.8673,6.694,6.6564,6.7392,6.6513,6.6112,6.6187,6.7894,6.7719,6.6112,6.6112,6.7091,6.8798,7.0506,6.5376,0.0,0.0,0.0,0.0,5.4023,5.4863,0.0,0.0,0.0,0.0,0.0,0.0,0.0,0.0,7.0631,7.2504,7.529,0.0,7.5865,7.5381,7.3996,7.2026,0.0,6.1525,5.6761,6.4247,5.9172,5.3008,5.168,5.1426,5.23,5.5129,6.2871,6.9049,7.0757,7.6381,8.1102,8.3211,8.4993,8.5822,8.527,7.6866,7.0093,6.7088,7.881,8.5998,8.5998,8.5998,8.5998,8.5998,8.5998,8.5998,8.5998,8.6525,8.7605,8.9287,8.9287,9.4998,10.551,10.551,10.551,10.551,10.551,10.551,10.569,10.8323,11.3649,12.0367,12.0367,11.4726,10.5787,10.0514,8.9217,7.4625,0.0,0.0,0.0,0.0,0.0,0.0,0.0,0.0,0.0,0.0,5.1523,5.2226,5.2637,5.3262,5.4023,0.0,0.0,0.0,0.0,0.0,0.0,0.0,6.4473,6.8181,7.0865,6.9953,6.7047,6.2325,6.1123,6.0874,6.1416,6.0852,6.051,6.0835,6.6787,6.8773,6.7643,6.7643,6.8346,6.9461,7.0732,0.0,0.0,0.0,0.0,0.0,5.5195,5.5801,0.0,5.6582,5.9927,6.3955,0.0,0.0,0.0,0.0,7.1008,7.274,7.274,7.274,7.3016,7.4222,7.3619,7.274,7.274,6.6677,6.2612,6.8288,6.4906,5.9128,5.2576,5.209,5.0716,4.4952,5.259,6.1689,6.8469,7.6205,8.193,8.3939,8.4341,8.2543,7.766,7.0958,6.9389,7.5229,8.2037,8.5998,8.5998,8.5998,8.5998,8.5998,8.5998,8.5998,8.5998,8.7002,8.8107,8.9287,8.9287,9.2538,9.8713,10.4059,10.6408,10.6408,10.6408,10.7096,10.8749,11.5963,12.2132,12.6622,12.5201,11.6539,10.4433,10.2997,9.399,8.0543,0.0,0.0,0.0,0.0,0.0,0.0,0.0,0.0,0.0,0.0,0.0,0.0,0.0,0.0,0.0,0.0,0.0,0.0,0.0,0.0,0.0,0.0,6.0677,6.5565,7.1309,7.042,6.4646,5.4023,5.4023,5.416,5.4414,5.4414,5.4414,5.4805,6.3546,6.7415,6.7415,6.7415,6.7415,6.7415,6.7415,0.0,0.0,0.0,0.0,0.0,0.0,0.0,0.0,5.6894,6.4194,7.3192,7.2841,0.0,0.0,0.0,0.0,0.0,7.0204,7.0204,7.0613,7.2336,7.1405,7.0227,6.9887,6.8428,6.7507,6.9064,6.8196,6.3806,5.3331,5.2637,5.0022,3.9077,4.5677,5.5848,6.6344,7.2972,7.8082,8.1817,8.2878,7.8896,6.7915,6.6875,7.2266,8.505,8.5998,8.5998,8.5998,8.5998,8.5998,8.5998,8.5998,8.5998,8.5998,8.7856,8.8961,8.9287,8.9287,8.9287,8.9635,9.9345,10.4686,10.6408,10.6827,10.8503,11.1694,12.2065,12.7234,12.7983,12.317,11.3596,10.2488,10.2488,9.5497,8.3916,0.0,0.0,0.0,0.0,0.0,0.0,0.0,0.0,0.0,0.0,0.0,0.0,0.0,0.0,0.0,0.0,0.0,0.0,0.0,0.0,0.0,5.709,6.3178,6.6409,6.5911,6.9984,6.6263,5.4023,5.4023,5.4765,5.6191,5.6191,5.6191,5.6297,5.7906,5.8618,5.8618,5.8618,5.8618,5.8618,5.8618,0.0,0.0,0.0,0.0,0.0,0.0,0.0,0.0,5.8262,6.6331,7.5201,7.3318,0.0,0.0,0.0,0.0,0.0,5.911,5.911,6.1235,7.0397,6.5865,5.8722,5.7209,5.6636,5.8852,6.7598,6.2421,5.5324,5.2031,5.166,5.0648,4.7383,5.1888,5.7005,6.0334,6.2924,6.4672,6.534,7.7272,8.0645,6.816,6.6875,7.2266,8.505,8.5998,8.5998,8.5998,8.5998,8.5998,8.5998,8.5998,8.5998,8.5998,8.6349,8.7429,8.9287,8.9287,8.9287,8.9378,9.1116,9.722,10.6528,10.8742,11.1226,11.3664,11.331,11.7988,12.4128,11.0993,10.4458,10.2488,10.2488,9.5497,8.3916,0.0,0.0,0.0,0.0,0.0,0.0,0.0,0.0,0.0,0.0,0.0,0.0,0.0,0.0,0.0,0.0,0.0,0.0,0.0,5.5801,5.6074,5.6387,6.1584,6.4583,6.4706,6.9914,6.991,6.4104,5.8274,5.6289,5.7969,5.7969,5.7969,5.7969,5.7969,5.7969,5.7969,5.7969,5.7969,5.791,0.0,0.0,0.0,0.0,0.0,0.0,0.0,0.0,0.0,0.0,6.2685,6.7882,7.2986,0.0,0.0,0.0,0.0,0.0,5.6582,5.6582,5.804,6.3934,6.0969,5.6367,5.5586,5.541,5.6809,6.1551,5.7996,5.3496,5.1758,5.1426,5.209,5.4101,5.6445,5.8594,6.0332,6.7787,7.0936,6.5205,7.1087,7.3342,6.7466,6.6875,7.2266,8.505,8.5998,8.5998,8.5998,8.5998,8.5998,8.5998,8.5998,8.5998,8.5998,8.5998,8.7103,8.9287,8.9287,8.9287,8.9287,8.9287,9.2174,9.7597,10.4986,10.97,11.1914,10.9311,11.001,11.1949,10.5224,10.3386,10.3702,9.6278,8.6034,7.4759,0.0,0.0,0.0,0.0,0.0,0.0,0.0,0.0,0.0,0.0,0.0,0.0,0.0,0.0,0.0,0.0,0.0,0.0,0.0,5.5371,5.5742,5.5898,5.897,6.1339,6.2777,6.9308,7.1676,6.9535,6.1286,5.6368,5.4832,5.4832,5.4832,5.4832,5.4832,5.4832,5.4832,5.4832,5.6459,5.9062,0.0,0.0,0.0,0.0,0.0,0.0,0.0,0.0,0.0,0.0,0.0,0.0,0.0,0.0,0.0,6.0153,5.6894,5.6027,5.3126,5.2454,5.342,5.7542,5.6973,5.5488,5.5898,5.5996,5.5879,5.5469,5.498,5.4101,5.2363,5.2695,5.4687,5.9062,6.0117,6.1832,6.6024,7.345,7.5427,6.7299,6.664,6.6875,6.6875,6.6875,7.2266,8.505,8.5998,8.6249,8.6751,8.6274,8.5998,8.5998,8.5998,8.5998,8.5998,8.5998,8.6851,8.8534,8.9036,8.9287,8.9287,8.9287,8.9287,8.9956,10.1378,10.7904,10.9827,10.4009,10.0408,9.8732,9.9212,10.0626,10.1121,9.0641,7.8554,6.7441,0.0,0.0,0.0,0.0,0.0,0.0,0.0,0.0,0.0,0.0,0.0,0.0,0.0,0.0,0.0,0.0,0.0,0.0,0.0,5.5058,5.541,5.6484,5.6863,5.7096,5.7202,6.7376,6.8633,6.0166,5.941,5.3124,4.1892,4.1892,4.1892,4.1892,4.1892,4.1892,4.1892,4.1892,4.8521,5.918,5.9062,0.0,0.0,0.0,0.0,0.0,0.0,0.0,0.0,0.0,0.0,0.0,0.0,0.0,6.0215,5.9266,5.7851,5.412,4.2988,3.995,4.2661,5.3944,5.4277,5.2226,5.3848,5.4219,5.375,5.2129,5.4258,5.5879,5.416,5.6465,5.9238,6.1211,6.2871,6.798,7.9529,7.2159,6.5286,6.4594,6.5879,6.6875,6.6875,6.6875,7.2266,8.505,8.5998,8.6927,8.8935,8.7103,8.5998,8.5998,8.5998,8.5998,8.5998,8.5998,8.6098,8.6249,8.8283,8.9287,8.9287,8.9287,8.9287,8.9956,10.1378,10.7904,10.9142,9.3788,8.7298,8.7374,8.9437,9.0303,9.043,8.9433,8.0631,6.9043,0.0,0.0,0.0,0.0,0.0,0.0,0.0,0.0,0.0,0.0,0.0,0.0,0.0,0.0,0.0,0.0,0.0,0.0,5.357,5.4609,5.5098,5.5,5.6015,5.6582,5.6582,6.1663,6.2605,5.918,5.2133,4.6248,4.1563,4.1563,4.1163,4.0481,4.0481,4.0481,4.0481,4.0481,4.3279,4.7613,4.7613,4.4683,0.0,0.0,0.0,0.0,0.0,0.0,0.0,0.0,5.918,5.918,5.918,5.918,5.918,5.918,5.7969,5.4012,4.1976,3.8718,3.9733,4.4321,5.0113,5.6962,6.5737,6.8823,6.7535,5.9415,5.8027,5.5408,4.6137,4.5513,4.9837,6.0051,6.9602,7.7826,8.3941,8.0747,7.4856,6.6852,6.5527,6.5703,6.6758,6.6875,7.2266,8.505,8.5998,8.6349,8.7178,8.6425,8.5998,8.5998,7.8246,7.7987,8.5911,8.5998,8.5998,8.5998,8.6851,8.7956,8.9287,8.9287,8.9287,8.9982,10.3113,10.4423,9.6701,8.9124,8.6826,8.8283,9.0467,9.1321,9.0343,8.1702,6.8899,5.5546,0.0,0.0,0.0,0.0,0.0,0.0,0.0,0.0,0.0,0.0,0.0,0.0,0.0,0.0,0.0,0.0,0.0,0.0,5.0567,5.3325,5.4883,5.4844,5.6484,5.7148,5.6601,5.832,5.918,5.918,4.7803,4.2218,4.2218,4.1857,4.1456,4.1016,4.0655,4.0695,4.1016,4.1016,4.3074,4.6094,4.2133,4.0481,0.0,0.0,0.0,0.0,0.0,0.0,0.0,0.0,5.918,5.918,5.918,5.918,5.918,5.918,5.832,5.4666,4.2063,3.8718,3.8651,3.825,4.7424,5.8929,6.7929,7.4804,7.615,6.4876,6.1191,5.5643,4.1385,3.8718,4.3586,5.8518,7.262,8.2407,8.4667,8.5571,8.1208,6.8411,6.582,6.5586,6.6758,6.6875,7.0485,7.9325,8.3733,8.5998,8.5998,8.5998,8.5998,8.5998,7.3541,7.1081,7.9909,8.3297,8.532,8.5998,8.5998,8.6776,8.8283,8.8961,8.9287,8.9891,9.9494,9.5493,8.216,8.1196,8.1711,8.367,9.004,9.2576,9.0904,7.7132,5.8351,3.9557,0.0,0.0,0.0,0.0,0.0,0.0,0.0,0.0,0.0,0.0,4.2361,0.0,0.0,0.0,0.0,0.0,0.0,0.0,4.5932,5.1073,5.4597,5.6416,5.8151,5.8268,5.6514,5.8151,5.9068,5.9068,4.7665,4.2218,4.2178,4.1016,4.1096,4.2178,4.1016,4.1136,4.2218,4.2218,4.8754,5.817,4.5531,4.0481,4.0481,0.0,0.0,0.0,0.0,0.0,0.0,0.0,5.9087,5.918,5.918,5.918,5.918,5.918,5.918,5.6254,4.2396,3.8691,3.8397,3.736,4.6897,5.6562,5.6601,6.8385,7.6452,6.6483,6.2949,5.6948,4.1542,3.8731,4.3204,5.7022,7.0589,8.0147,8.2332,8.4567,8.1275,6.8536,6.6962,6.6875,6.6875,6.6875,6.6875,6.6875,7.881,8.5998,8.5998,8.5998,8.5973,8.5861,7.3441,6.6816,6.6816,7.7211,8.3654,8.5749,8.5861,8.5998,8.6073,8.8283,8.9287,8.9262,8.9146,8.0658,6.7031,6.875,6.9433,7.0951,8.6335,9.2406,9.0757,7.6846,5.112,2.3042,0.0,0.0,0.0,0.0,0.0,0.0,0.0,0.0,0.0,3.6941,3.9265,0.0,0.0,0.0,0.0,0.0,0.0,0.0,4.0818,4.24,4.3868,4.5189,4.5747,4.5453,4.4012,4.5407,4.6432,4.7254,4.3887,4.2218,4.2178,4.1016,4.1096,4.2218,4.1857,4.1897,4.2218,4.2218,4.9427,5.986,4.6902,4.1203,4.0481,0.0,0.0,0.0,0.0,0.0,0.0,0.0,0.0,0.0,6.0957,6.0156,5.918,5.918,5.918,5.586,4.0446,3.6246,3.8891,4.9804,5.3639,5.543,5.7851,6.2791,6.9386,7.7813,7.0062,5.6948,4.1542,3.9412,4.4136,5.7117,7.0589,7.962,8.0273,8.2257,8.2276,7.8523,7.1441,6.6875,6.6875,6.6875,6.6875,6.6875,7.881,8.5998,8.5998,8.5998,8.1832,7.2876,6.7701,6.4492,6.3262,6.6323,6.8919,7.0773,7.9468,8.4491,8.6023,8.6676,8.7002,8.6499,7.7419,7.1702,6.8711,6.9219,6.8711,6.8265,7.4018,7.6335,7.4473,6.0103,4.1302,2.3042,0.0,0.0,0.0,0.0,0.0,0.0,0.0,0.0,0.0,3.6941,3.7996,3.8718,0.0,0.0,0.0,0.0,0.0,0.0,3.9412,3.9412,3.9746,4.0441,4.0481,4.0147,3.9426,4.0107,4.0842,4.1523,4.2004,4.1964,4.1523,4.1269,4.1537,4.2218,4.2218,4.2218,4.2218,4.2218,4.9786,6.0979,5.3181,4.6394,4.1122,0.0,0.0,0.0,0.0,0.0,0.0,0.0,0.0,0.0,6.1484,6.1015,5.911,5.3389,5.1714,4.9705,3.9954,3.7301,4.052,5.378,5.6601,5.6621,5.8711,5.998,6.3894,7.5032,6.958,5.9721,4.9706,4.7877,5.0421,5.802,7.0589,7.9394,7.9394,8.1277,8.2683,8.2683,7.2791,6.6113,6.6816,6.623,6.5879,6.5879,7.3059,7.7378,7.7378,7.7378,7.3868,6.6088,6.4199,6.0293,5.4044,5.3906,5.7063,6.342,7.1505,7.6504,7.8599,8.3708,8.3229,7.801,7.0977,6.8476,6.9394,6.8691,6.7793,6.6972,6.8008,6.8418,6.5908,4.5438,3.1264,2.2445,0.0,0.0,3.5725,3.6901,0.0,0.0,0.0,0.0,0.0,0.0,3.8036,3.8718,0.0,0.0,0.0,0.0,0.0,0.0,0.0,4.0481,4.0481,4.0481,4.0481,4.0481,4.0481,4.0481,4.0481,4.0481,4.1537,4.1523,4.0508,4.167,4.2218,4.2218,4.2218,4.2325,4.2512,4.2178,4.8878,5.993,6.1155,5.4628,4.3678,4.1507,0.0,0.0,0.0,0.0,0.0,0.0,0.0,0.0,5.9411,5.9889,5.7173,4.4317,4.0334,4.0147,4.0147,4.1056,4.3944,5.2202,5.6855,5.9414,5.9414,5.9297,6.0117,6.3398,6.4082,6.3555,6.1816,6.0215,5.918,5.918,6.9573,7.7956,7.9241,8.1102,8.2382,8.2382,7.1615,6.4765,6.6465,6.5078,6.4082,6.4082,6.4082,6.4082,6.4082,6.4082,6.4082,6.4082,6.1315,5.4233,4.2184,4.2178,4.8186,5.9923,6.1593,6.4045,6.734,7.8928,7.7983,6.7168,6.8594,6.9219,6.9101,6.75,6.6875,6.6875,6.6875,6.6077,6.1509,3.3367,2.2378,2.167,0.0,0.0,3.6941,3.8143,0.0,0.0,0.0,0.0,0.0,0.0,3.8571,0.0,0.0,0.0,0.0,0.0,0.0,0.0,0.0,4.0481,4.0481,4.0481,4.0481,4.0481,4.0481,4.0481,4.0481,4.0481,4.0735,4.0735,4.0508,4.167,4.2218,4.2218,4.2218,4.3233,4.4797,4.2031,4.2523,4.6028,5.7173,6.0003,5.6304,4.5816,4.2004,0.0,0.0,0.0,0.0,0.0,0.0,0.0,4.6269,4.5803,4.4466,4.137,3.9159,3.7702,3.7702,4.5233,5.3566,5.5553,5.8613,6.1191,6.1191,6.0156,5.9765,6.1836,6.2285,6.1758,6.0039,5.9414,5.918,5.918,6.1604,6.7298,7.7931,7.9796,8.0097,8.0097,6.9509,6.293,6.4707,6.3281,6.2285,6.2285,6.2285,6.2285,6.2285,6.2285,6.2285,6.2285,5.189,4.4572,4.0842,4.175,4.3552,4.6387,4.7696,5.4924,6.6982,6.9741,7.016,6.8808,6.7832,6.7441,6.7383,6.7031,6.6875,6.6875,6.6875,6.0137,4.7916,2.8846,2.1672,2.3296,0.0,0.0,0.0,0.0,0.0,0.0,0.0,0.0,0.0,0.0,0.0,0.0,0.0,4.0107,0.0,0.0,4.0481,4.0481,4.0481,4.0481,4.0481,4.0481,4.0481,4.0735,4.131,4.131,4.1029,4.0481,4.0481,4.0481,4.0481,4.1096,4.167,4.2258,4.2806,4.3447,4.3888,4.1497,4.0802,4.2559,5.6154,6.2226,6.1383,4.7452,4.2218,4.2218,4.2218,0.0,0.0,0.0,0.0,0.0,0.0,0.0,4.0481,4.0481,3.9599,3.9605,4.3921,5.1352,5.8027,5.8828,6.039,6.1484,6.0683,5.5219,5.2152,5.915,6.0508,6.0215,5.9355,5.918,5.918,5.918,5.918,6.1604,6.8708,7.444,7.8189,7.9269,6.8896,6.207,6.2988,6.2226,6.1719,6.1719,6.1719,6.1367,6.0566,6.0508,6.0508,6.0508,4.8083,4.135,4.131,3.5319,3.559,4.2218,4.2846,4.7677,5.6207,6.3571,6.7383,6.8183,6.7265,6.6875,6.6875,6.6875,6.6875,6.6175,5.8119,5.054,4.2148,2.6937,2.6297,3.4188,0.0,0.0,0.0,0.0,0.0,0.0,0.0,0.0,0.0,0.0,0.0,0.0,0.0,4.0481,4.0481,0.0,0.0,0.0,4.0481,4.0481,4.0481,4.0481,3.8227,3.8533,4.1884,4.1924,4.1456,4.0481,4.0481,4.0481,4.0481,4.0481,4.1096,4.2258,4.3233,4.3127,4.2151,4.1203,4.135,4.3089,5.4026,5.9248,5.9184,4.6895,4.2218,4.2218,4.2218,4.2218,4.2031,4.0869,0.0,0.0,0.0,0.0,4.0481,4.0481,4.0481,4.215,4.9643,5.5521,5.9941,6.1367,6.1719,6.125,5.959,5.1217,4.667,5.708,5.918,5.918,5.918,5.918,5.918,5.918,5.918,5.918,5.918,6.7303,7.3861,7.5758,6.7217,6.1269,6.1269,6.1269,6.1269,6.1269,6.1269,6.0683,5.9238,5.918,5.918,5.918,4.7258,4.1243,4.2218,3.0799,2.9628,3.8583,4.1038,4.2833,4.4417,5.7082,6.3027,6.3396,6.5804,6.6699,6.6406,6.6113,6.4668,6.1255,4.7324,4.2031,4.0797,2.9526,3.3908,4.5745,0.0,0.0,0.0,0.0,0.0,0.0,0.0,0.0,0.0,0.0,3.8718,3.9159,4.0334,4.0481,4.0481,4.0481,4.0481,4.0481,4.0481,0.0,0.0,4.0481,2.9373,2.8702,4.0451,4.0695,4.0628,4.0481,4.0481,4.0481,4.0481,4.0481,4.1096,4.2218,4.2405,4.2365,4.2218,4.2044,4.2071,4.2331,4.404,4.5003,4.488,4.3003,4.2218,4.2218,4.2218,4.2218,4.2031,4.0869,4.0481,0.0,0.0,0.0,4.0481,4.0481,4.0481,4.0778,4.1954,5.161,6.1426,6.166,6.1719,6.125,5.959,5.7888,5.7174,5.8844,5.918,5.918,5.918,5.918,5.918,5.918,5.918,5.918,5.918,6.0456,6.1581,6.1846,6.0481,5.9531,5.9531,5.9531,5.9531,5.9531,5.9531,5.9414,5.918,5.918,5.918,5.918,4.7951,4.2071,4.2218,4.0391,3.4281,2.4307,3.6383,4.2833,4.4008,4.6078,4.7623,4.9204,6.1578,6.5996,6.4551,6.3047,5.5738,4.5148,4.1943,4.131,4.2084,4.1255,4.2963,4.5745,0.0,0.0,0.0,0.0,0.0,0.0,0.0,0.0,0.0,0.0,0.0,3.9893,4.0401,4.0481,4.0481,4.0481,4.0481,4.0481,4.0481,4.0481,3.7102,2.9642,2.3669,2.677,4.0238,4.0481,4.0481,4.0481,4.0481,4.0481,4.0481,4.0481,4.1096,4.2218,4.2218,4.2218,4.2218,4.2218,4.2218,4.2218,4.2218,4.2218,4.2218,4.2218,4.2218,4.2218,4.2218,4.2218,4.2138,4.163,4.1456,4.1456,4.1456,0.0,0.0,0.0,4.0481,4.0481,4.0481,5.0167,6.0273,6.0273,5.5052,4.9666,4.8933,4.867,4.867,4.867,5.4279,5.918,5.918,5.918,5.918,5.918,5.918,5.918,5.918,5.918,5.918,5.918,5.918,5.918,5.918,5.918,5.918,5.918,5.918,5.918,5.918,5.918,5.9629,6.0566,5.5745,4.9648,4.2231,4.2218,3.908,3.311,3.9233,4.2833,4.4008,4.4008,4.4289,4.5145,5.1355,5.3262,5.1901,5.1115,4.7023,4.1243,4.139,4.2579,4.4249,4.4797,4.5304,4.5745,0.0,0.0,0.0,0.0,0.0,0.0,0.0,0.0,0.0,0.0,0.0,3.6723,4.0104,0.0,0.0,0.0,4.0481,4.0481,4.0481,4.0481,3.4491,2.1033,2.0539,2.677,4.0238,4.0481,4.0481,4.0481,4.0481,4.0481,4.0481,4.1096,4.2004,4.3086,4.2472,4.2218,4.2218,4.2218,4.2218,4.2218,4.2218,4.2218,4.1759,3.7959,3.6681,3.6873,3.6873,3.706,3.7683,4.1365,4.2659,4.1966,3.8144,3.6369,0.0,0.0,0.0,4.0481,4.0481,4.969,5.9062,5.8613,4.9426,4.0481,4.0481,4.0481,4.0481,4.0481,5.0421,5.918,5.918,5.918,5.918,5.918,5.6591,5.449,5.449,5.7174,5.918,5.918,5.918,5.918,5.918,5.918,5.918,5.918,5.627,5.449,5.449,5.7419,5.9765,6.1035,6.1074,5.4996,4.2331,4.2218,4.2218,4.2218,4.2218,4.2833,4.4008,4.4008,4.4008,4.3995,4.3674,4.306,4.1965,3.8431,3.8644,4.1497,4.2659,4.4182,4.5745,4.5745,4.5745,4.5745,0.0,0.0,0.0,0.0,0.0,0.0,0.0,0.0,0.0,0.0,0.0,2.6394,3.9105,4.0481,4.0481,4.0481,4.0481,4.0481,4.0481,4.0481,3.4491,2.1033,2.0539,0.0,4.0238,4.0481,4.0481,4.0481,4.0481,4.0481,4.0508,4.2766,4.4436,4.5451,4.3233,4.2218,4.2218,4.2218,4.2218,4.2218,4.2218,4.2218,4.0678,2.63,2.1574,2.248,2.248,2.2872,2.5415,3.9303,4.3901,4.1416,2.701,2.2459,2.2445,0.0,0.0,0.0,4.0481,4.969,5.8789,5.7129,4.8587,4.0481,4.0481,4.0481,4.0481,4.0481,5.0421,5.918,5.918,5.918,5.918,5.918,4.9239,4.1516,4.1516,5.1697,5.918,5.918,5.918,5.918,5.918,5.918,5.918,5.918,4.8185,4.1516,4.1516,5.2735,5.9238,5.9297,5.9297,5.379,4.2331,4.2218,4.2218,4.2218,4.2218,4.2833,4.4008,4.4008,4.4008,4.3928,4.2806,4.2285,4.1178,2.7932,3.0853,4.3928,4.509,4.5638,4.5745,4.5745,4.5745,4.5745,0.0,0.0,0.0,0.0,0.0,0.0,0.0,0.0,0.0,0.0,0.0,0.0,0.0,4.0481,4.0481,4.0481,4.0481,4.0481,4.0481,4.0481,3.8361,3.3606,2.5039,2.677,4.0238,4.0481,4.0481,4.0481,4.0481,4.0481,4.04,3.3711,3.0831,3.1614,3.9738,4.3354,4.342,4.4142,3.8227,2.8367,2.8635,2.8182,2.6658,2.1593,2.0153,2.0858,2.0858,2.1496,2.3215,2.8732,3.0676,2.9585,2.3825,2.176,2.1367,2.098,3.0119,4.0481,4.0481,4.3772,4.7017,4.6401,4.2802,3.9559,4.0294,4.0481,4.0481,4.0481,4.4102,4.9706,5.7663,5.918,5.918,5.918,4.867,4.0481,4.0481,4.434,5.0189,5.8225,5.918,5.918,5.918,5.918,5.5797,4.7849,4.3053,4.0481,4.0481,4.4803,5.0886,5.8936,5.918,5.3702,4.2331,4.2218,4.2619,4.3354,4.3354,4.3207,4.2576,3.3636,2.9541,2.9427,2.939,2.9199,2.9311,3.4806,4.017,4.5171,4.5571,4.5745,4.5745,4.5745,4.5745,4.5745,0.0,0.0,0.0,2.0539,0.0,1.9963,1.9963,2.0295,2.0539,2.0539,0.0,0.0,0.0,0.0,4.0481,4.0481,4.0481,4.0481,4.0481,4.0842,4.0882,4.0481,2.7646,2.677,4.0238,4.0481,4.0481,4.0481,4.0481,3.8227,3.3662,2.5856,1.9803,1.5872,2.5108,3.1852,3.6509,3.7285,3.1123,2.0878,2.1279,2.0492,1.9135,1.9732,2.0207,2.0539,2.0539,2.1055,2.1882,2.2886,2.3097,2.2852,2.2466,2.1937,2.1367,2.0967,2.6974,3.4725,3.9335,4.0481,4.0481,4.0481,3.9893,3.9306,3.9306,3.9599,3.9893,3.9893,3.9893,4.3812,5.6854,5.918,5.918,5.918,5.2176,4.6804,4.6804,4.6804,4.9806,5.8264,5.918,5.918,5.918,5.918,5.4015,4.1423,4.0481,4.0481,4.0481,4.0481,4.6197,5.8844,5.9746,5.4328,4.2331,4.2619,4.0817,3.6668,3.6488,3.5972,3.4947,2.5867,2.1848,2.2059,2.2466,2.5263,3.0406,4.1188,4.5972,4.6293,4.5892,4.5745,4.5745,4.5745,4.5745,4.5745,2.0539,2.0539,2.0539,2.0539,2.0539,2.0539,2.0539,2.0539,2.0539,2.0539,0.0,0.0,0.0,0.0,0.0,4.0508,4.0508,4.0481,4.0481,4.1563,4.171,4.0588,2.7673,2.6528,3.9592,3.9861,3.9956,3.9916,3.9956,3.3236,2.0539,2.0018,1.2834,0.0,0.0,0.7772,2.0778,2.1169,2.1441,2.1441,2.1455,2.0756,1.9752,2.0363,2.0614,2.0614,2.0614,2.0594,2.0804,2.2554,2.2764,2.2289,2.2323,2.1937,2.1455,2.1441,2.1014,2.3282,0.0,0.0,0.0,4.0481,4.0481,3.9853,3.7555,3.7889,3.8691,3.8718,3.8718,4.293,5.6666,5.918,5.918,5.918,5.918,5.918,5.918,5.918,5.918,5.918,5.918,5.918,5.918,5.918,5.4015,4.1423,4.0481,4.0481,4.0481,4.0481,4.6094,5.8225,6.0225,5.5006,4.2331,4.3017,3.6255,2.2303,2.172,2.1455,2.1496,2.2093,2.2676,2.3219,2.3219,3.1538,4.5046,4.5581,4.64,4.7322,4.6186,4.5745,4.5745,4.5745,4.5745,4.5745,2.0539,2.0539,2.0539,2.0539,2.0539,2.0539,2.0539,2.0539,2.0539,0.0,0.0,0.0,4.0481,4.0481,4.0802,4.167,4.0949,4.0481,4.0481,4.1563,4.2071,4.175,2.8065,2.2286,2.5918,2.6018,2.5875,2.5459,2.5875,2.4157,2.0278,1.0271,0.3605,0.0,0.0,0.2243,0.6576,1.7008,2.1441,2.1475,2.1916,2.1367,2.0417,2.1441,2.2113,2.2479,2.2479,2.1652,2.0614,2.1123,2.1177,2.119,2.2059,2.2235,2.2004,2.1564,2.1014,2.1294,2.503,0.0,0.0,0.0,0.0,0.0,3.964,3.8437,3.7662,3.8544,3.8718,4.293,5.6666,5.918,5.918,5.918,5.918,5.918,5.918,5.918,5.918,5.918,5.918,5.918,5.918,5.918,5.4015,4.1423,4.0481,4.0481,4.0481,4.0481,4.2133,4.562,4.6889,4.5889,4.2218,3.2972,2.602,2.1686,2.153,2.1672,2.2113,2.271,2.3063,2.3219,2.3219,2.5626,3.0265,4.1234,4.5932,4.6186,4.5852,4.5745,4.5745,4.5745,4.5745,4.5745,2.0539,2.0539,2.0539,2.0539,2.0539,2.0539,2.0539,2.0539,2.0539,0.0,0.0,0.0,4.0481,4.0481,4.0762,4.1416,4.0869,3.8092,3.2495,3.2761,3.3176,3.3176,2.5008,2.0539,2.0539,2.0539,2.0363,2.0031,1.4628,1.1939,1.1811,0.3734,0.0,0.0,0.0,0.3308,0.9529,1.8167,2.1808,2.1848,2.2201,2.2072,2.1652,2.1597,2.1808,2.2113,2.2113,2.1597,2.0912,2.0912,2.1089,2.1421,2.2113,2.216,2.1896,2.1543,2.1014,2.0539,2.0539,2.6152,3.2124,3.2124,0.0,0.0,3.9214,3.9412,3.8611,3.9306,3.9052,4.1185,4.9222,5.1039,5.308,5.8357,5.918,5.918,5.918,5.918,5.918,5.918,5.918,5.918,5.918,5.918,5.6138,4.8888,4.3518,4.0481,4.0481,4.0481,4.0481,4.0481,4.1603,3.9373,3.3637,2.5597,2.1543,2.1441,2.1686,2.2004,2.2357,2.269,2.2852,2.2852,2.2852,2.2852,2.3968,3.8898,4.5304,4.5745,4.5745,4.5745,4.5745,4.5745,4.5451,4.5024,0.0,2.0594,2.0539,2.0539,2.0539,2.0539,2.0539,2.0539,2.0539,0.0,3.2124,4.0508,4.0655,4.0548,3.9861,3.8361,3.8227,3.3236,2.1294,2.0539,2.0539,2.0539,2.0539,1.9776,1.8224,1.8224,1.8224,1.8224,0.6045,0.0,0.0,0.0,0.0,0.0,0.0,0.806,2.1584,2.2113,2.2378,2.2445,2.2445,2.2642,2.2764,2.1231,2.0648,2.0648,2.0648,2.098,2.1441,2.1441,2.176,2.216,2.2303,2.1937,2.1441,2.1441,2.1014,2.0539,2.0539,2.0539,2.0539,2.0539,2.0539,0.0,3.5597,3.9261,4.0107,4.0254,3.9452,3.8718,3.8718,3.9452,4.3826,5.5126,5.8241,5.918,5.918,5.918,5.918,5.918,5.918,5.918,5.918,5.918,5.918,5.918,4.7613,4.0481,4.0481,4.0481,4.0481,4.0481,4.0087,3.3883,2.1472,2.0878,2.0912,2.1441,2.2059,2.2337,2.2344,2.3978,2.3797,2.2235,2.2235,2.3053,2.5497,3.8673,4.469,4.5745,4.5745,4.5665,4.5558,4.5558,4.4797,4.3821,2.1177,2.0878,2.0539,2.0539,2.0539,2.0539,2.0539,2.0539,2.0539,2.0539,3.2124,4.0842,4.1777,4.1056,3.6123,2.5282,2.4417,2.3298,2.0673,2.0539,2.0539,2.0539,2.0539,1.5275,0.4246,0.3988,0.3988,0.3988,0.1289,0.0,0.0,0.0,0.0,0.0,0.0,0.8283,2.216,2.2289,2.2622,2.3042,2.3042,2.2249,2.1068,2.1211,2.1265,2.1265,2.1265,2.1333,2.1441,2.1441,2.119,2.1068,2.2038,2.1937,2.1441,2.1441,2.1014,2.0539,2.0539,2.0539,2.0539,2.0539,2.0539,0.0,2.3779,3.1311,3.7889,3.8865,3.8865,3.8718,3.8718,3.8143,3.8724,4.2179,5.1949,5.918,5.918,5.918,5.918,5.918,5.918,5.918,5.918,5.918,5.918,5.918,4.7613,4.0481,4.0481,4.0481,4.0481,4.0481,3.0299,2.3371,2.0716,2.1089,2.1319,2.1441,2.2059,2.2337,2.2751,3.4395,3.3167,2.1618,2.1618,2.7917,3.8551,4.239,4.469,4.5745,4.5745,4.5171,4.4329,4.4329,4.3594,4.2699,2.1319,2.0946,2.0539,2.0539,2.0539,2.0539,2.0539,2.0539,2.0539,2.0539,3.2124,3.8183,3.2005,3.089,2.778,2.1033,2.0539,2.0539,2.0539,2.0539,2.0539,2.0539,2.0824,1.7699,1.0885,0.3685,0.0,0.0,0.0,0.0,0.0,0.0,0.0,0.0,0.0,0.8309,2.2337,2.2337,2.2676,2.3219,2.3219,2.2323,2.1014,2.1319,2.1441,2.1441,2.1441,2.1441,2.1441,2.1441,2.1245,2.1034,2.1353,2.1652,2.1774,2.1177,2.077,2.0539,2.0539,2.0539,2.0539,2.0539,2.0539,0.0,0.0,2.4704,2.8931,2.9512,2.9592,2.9592,2.9592,2.9121,3.1095,3.8399,4.5432,4.9806,4.9806,5.5306,5.918,5.918,5.918,5.918,5.918,5.918,5.918,5.918,5.3327,4.7142,4.0818,4.0481,3.7469,3.0761,2.4047,2.0682,2.098,2.1279,2.1441,2.1441,2.174,2.1896,2.2281,3.6609,3.8967,3.1827,3.1827,3.5707,4.2258,4.2873,4.3461,4.4035,4.465,4.4516,4.3928,4.334,4.2726,4.2298,2.1353,2.0946,2.0539,2.0539,2.0539,2.0539,2.0539,2.0648,2.0661,2.056,2.9881,3.2495,2.1668,2.0539,2.0539,2.0539,2.0539,1.9427,1.6688,1.9057,2.0594,2.0716,2.1177,2.1496,2.1618,0.7436,0.0,0.0,0.0,0.0,0.0,0.0,0.0,0.0,0.0,0.8202,2.2181,2.2289,2.2676,2.2925,1.9879,1.9826,2.1441,2.1441,2.1441,2.1441,2.1441,2.1441,2.1441,2.1441,2.1367,2.1231,2.0967,2.1475,2.195,2.0858,2.0539,2.0539,2.0539,2.0539,2.116,2.3669,2.242,2.0539,0.0,0.0,0.0,2.0539,2.0539,2.0573,2.0702,2.0716,2.419,3.4894,3.6601,3.7604,4.0104,4.9366,5.5786,5.557,5.5371,5.5334,5.5628,5.7795,5.918,5.918,5.693,5.1217,4.1047,4.0481,3.4356,2.092,2.0648,2.0946,2.1441,2.1441,2.1441,2.1441,2.1319,2.1265,2.1653,3.5574,4.2004,4.2218,4.2218,4.2218,4.2218,4.2218,4.2218,4.2325,4.3273,4.3674,4.3527,4.2579,4.2218,4.2258,2.1421,2.0946,2.0539,2.0539,2.0539,2.0539,2.0539,2.1001,2.1143,2.0614,2.178,2.2174,2.0673,2.0539,2.0539,2.0539,2.0539,1.5313,0.3071,1.367,2.079,2.1319,2.1408,2.1686,2.2235,0.7652,0.0,0.0,0.0,0.0,0.0,0.0,0.0,0.0,0.0,0.7946,2.1584,2.2113,2.2676,2.2056,0.8141,1.0138,2.1441,2.1441,2.1441,2.1441,2.1441,2.1441,2.1441,2.1441,2.1089,2.0824,2.1828,2.1862,2.1408,2.0736,2.0539,2.0539,2.0539,2.0539,2.3409,3.524,2.9268,2.0539,2.0539,0.0,2.0539,2.0539,0.0,2.0702,2.1245,0.0,0.0,2.2644,2.2792,2.6904,3.8836,4.2573,4.3811,4.2727,4.1733,4.1507,4.2474,5.2735,5.918,5.918,4.8905,4.1999,4.0602,4.0481,3.4356,2.092,2.1055,2.1367,2.1441,2.1441,2.1441,2.1441,2.0892,2.0648,2.1024,3.4538,4.1243,4.2218,4.2218,4.2218,4.2218,4.2218,4.2218,4.2218,4.2365,4.2432,4.2405,4.2258,4.2218,4.2365,2.1441,2.0946,2.0539,2.0539,2.0539,2.0539,2.0539,2.1055,2.1353,2.1089,2.075,2.0539,2.0539,1.3341,0.8603,0.8603,1.6912,1.576,0.0922,0.5393,1.2439,2.103,2.1102,2.1367,2.2323,1.6179,0.8685,0.0,0.0,0.0,0.0,0.0,0.0,0.0,0.0,0.78,2.098,2.1937,2.2676,2.2578,1.5305,1.1082,0.9013,0.9033,1.4181,2.1441,2.1441,2.1441,2.1387,2.1034,2.1211,2.1672,2.2181,2.1937,2.1319,2.0716,2.079,2.098,2.0627,2.0539,2.1906,2.7512,2.4661,2.0539,2.0539,2.0539,2.0648,2.1001,0.0,0.0,0.0,0.0,0.0,0.0,2.1068,2.2976,2.8598,2.9799,3.2773,3.9722,3.3117,3.1454,3.9687,4.5278,4.5172,3.7372,3.1596,3.1914,4.0064,4.0481,3.8259,3.3292,3.3305,2.9628,2.1441,2.1089,2.0912,2.0912,2.0661,2.0539,2.092,3.4356,4.1122,4.2218,4.2218,4.2619,4.3207,4.2512,4.2218,4.2218,4.2218,4.2659,4.3233,4.3233,4.3233,4.3314,2.1441,2.1089,2.0736,2.0573,2.0539,2.0594,2.077,2.1157,1.9956,1.6076,1.8558,2.079,2.079,0.8307,0.0,0.0,1.3855,1.6296,0.1037,0.0,0.6442,2.0778,2.1177,2.1441,2.2323,2.2181,1.6805,0.5907,0.1883,0.0,0.0,0.0,0.0,0.0,0.0,0.7659,2.0594,2.1475,2.2378,2.2708,1.7539,0.9246,0.0406,0.4354,1.2347,2.1441,2.1441,2.1441,2.1367,2.0926,2.1265,2.1882,2.2038,2.1686,2.1102,2.0661,2.0858,2.1102,2.0661,2.0539,2.0539,2.0539,2.0539,2.0539,2.0539,2.0661,2.0912,2.1353,2.1441,0.0,0.0,0.0,2.0926,2.1367,0.0,2.1441,2.1441,2.1441,2.4835,3.3987,2.6394,2.4291,3.411,3.4994,3.0999,2.1287,1.9997,2.4146,3.4434,3.847,4.1016,4.2178,4.2218,3.7138,2.6725,2.2537,2.0539,2.0539,2.0539,2.242,2.6286,3.6111,4.1122,4.2218,4.2218,4.2913,4.3928,4.306,4.2512,4.2218,4.2218,4.2766,4.3527,4.3527,4.3714,4.4008,2.1441,2.1421,2.1231,2.0648,2.0539,2.0736,2.1319,2.1421,1.6465,0.2556,1.272,2.1408,2.1408,0.8563,0.0,0.0,1.3136,1.538,0.0905,0.0,0.6442,2.0778,2.1984,2.2303,2.2337,2.1774,2.1183,2.0771,0.6844,0.0,0.0,0.0,0.0,0.0,0.0,0.7659,2.0539,2.0573,2.1618,2.1906,0.682,0.0424,0.1481,1.5434,2.1063,2.1441,2.1441,2.1441,2.1441,2.1421,2.1055,2.0702,2.1279,2.1055,2.056,2.0539,2.056,2.056,2.0539,2.0539,2.0539,2.0539,2.0539,2.0539,2.0539,2.1001,2.1421,2.1441,2.1441,2.1441,2.1441,2.1421,2.1421,2.1441,2.1441,0.0,0.0,2.1441,2.1349,2.1124,2.0786,2.0673,2.116,2.116,2.092,2.0539,1.9997,2.0162,2.1139,3.3494,4.1016,4.2178,4.2218,4.1434,3.9927,2.7029,2.0539,2.0539,2.0539,2.7271,3.9861,4.0238,4.1122,4.2218,4.2218,4.2913,4.4008,4.3968,4.3273,4.2218,4.2218,4.2258,4.2285,4.2285,4.302,4.4008,2.1441,2.1441,2.1245,2.0648,2.0539,1.7518,0.859,0.7291,0.5505,0.0673,0.4164,0.7294,0.7293,0.2854,0.0,0.0,0.4441,0.5186,0.0273,0.0,0.6446,2.0758,1.2483,1.2107,2.204,1.2447,0.7241,0.7248,0.2421,0.0,0.0,0.0,0.0,0.0,0.0,0.2541,0.7527,1.6688,1.5569,0.7449,0.2075,0.0,0.0539,0.5371,0.7291,0.8493,1.7963,2.1441,2.1387,2.098,2.0716,2.0573,2.079,2.0702,2.0539,2.0539,2.0539,2.0539,2.0539,2.0838,2.1143,2.1143,2.1143,2.1034,2.0627,2.0702,2.0967,2.1353,2.1441,2.1441,2.1441,2.1441,2.1441,2.1441,2.1441,2.1441,0.0,2.1441,2.1211,2.0614,2.0539,2.0539,2.0539,2.0539,2.0539,2.0539,1.9997,1.9922,2.0505,2.4795,3.1786,4.1925,4.2218,4.167,4.0481,3.5976,2.9268,2.0673,2.9508,3.6111,4.0508,4.1269,4.1857,4.2258,4.306,4.3634,4.4008,4.4008,4.3314,4.2218,4.2218,4.2218,4.2218,4.2218,4.298,4.4008,2.0064,2.1299,2.1245,2.0648,1.6429,1.0271,0.1289,0.0,0.0,0.0,0.0,0.0,0.0,0.0,0.0,0.0,0.0,0.2314,0.7946,0.3025,0.4175,1.3396,0.4883,0.4519,1.4159,0.4966,0.0,0.0,0.0,0.0,0.0,0.0,0.0,0.0,0.0,0.0,0.0538,0.9487,0.8102,0.0,0.0,0.0,0.054,0.6176,0.7959,0.8765,1.8101,2.1441,2.1353,2.075,1.7199,1.3213,1.3213,1.3213,1.4121,1.9121,2.0702,2.0858,2.0858,2.1143,2.1387,2.1177,2.1279,2.1279,2.0682,2.0539,2.0716,2.1319,2.1441,2.1441,2.1441,2.1441,2.1441,2.1441,2.1441,2.1367,0.0,2.1123,2.1055,2.0878,2.0661,2.0539,2.0539,2.0539,2.0451,2.0241,1.9875,1.9922,2.0505,2.503,2.9792,3.4646,3.9238,4.1243,4.0481,4.0481,3.6209,2.7771,3.6356,4.0695,4.1122,4.1884,4.2432,4.2913,4.3674,4.3754,4.338,4.3821,4.3314,4.2258,4.2686,3.9688,3.5685,4.0404,4.298,4.4008,1.783,2.1001,2.1211,2.0648,0.9118,0.0,0.0,0.0,0.0,0.0,0.0,0.0,0.0,0.0,0.0,0.0,0.0,0.6262,2.1036,0.8262,0.0,0.0,0.0,0.0,0.0,0.0,0.0,0.0,0.0,0.0,0.0,0.0,0.0,0.0,0.0,0.0,0.0,0.0,0.0,0.0,0.0,0.0,0.1624,1.645,2.1301,2.0367,2.0367,2.0367,2.0283,1.9728,1.0805,0.0,0.0,0.0,0.2706,1.6456,2.1001,2.1441,2.1441,2.1441,2.1299,2.0736,2.1001,2.1245,2.0661,2.0539,2.0702,2.1279,2.1387,2.1408,2.1441,2.1421,2.1408,2.1441,2.1421,2.119,2.0627,2.0539,2.075,2.1333,2.0892,2.0539,2.0539,2.0526,2.0275,1.9752,1.9678,1.9908,2.0471,3.3203,3.4913,2.268,3.4118,4.0481,4.0481,4.0481,4.0225,3.9483,4.0225,4.1096,4.2218,4.2285,4.2953,4.4075,4.4075,4.342,4.2405,4.3527,4.2937,4.1361,4.2495,3.4509,2.3906,3.7318,4.302,4.4008,1.783,2.0661,2.0716,2.0573,0.9118,0.0,0.0,0.0,0.0,0.0,0.0,0.0,0.0,0.0,0.0,0.0,0.0,0.1637,0.5683,0.2248,0.0,0.0,0.0,0.0,0.0,0.0,0.0,0.0,0.0,0.0,0.0,0.0,0.0,0.0,0.0,0.0,0.0,0.0,0.0,0.0,0.0,0.0,0.0405,0.4369,0.5709,0.5505,0.5505,0.5505,0.55,0.5326,0.2926,0.0,0.0,0.0,0.2847,1.6984,2.1319,2.1441,2.1441,2.1441,2.1408,2.1245,2.098,2.0736,2.0573,2.0539,2.0573,2.0736,2.077,2.0912,2.1353,2.1068,2.0912,2.1367,2.1068,2.0716,2.056,2.0539,2.0594,2.075,2.0627,2.0539,2.0539,2.0139,2.001,2.0295,1.9908,1.9732,1.9875,3.2984,3.8977,3.5737,3.8745,4.0481,4.0481,4.0481,3.5474,2.5776,3.5743,4.1096,4.2258,4.3127,4.4182,4.5304,4.5304,4.4623,4.3567,4.3888,3.7468,2.7486,2.7689,2.5591,2.408,3.8281,4.3741,4.4115,1.9314,1.5824,1.1516,1.1516,0.5112,0.0,0.0,0.0,0.0,0.0,0.0,0.0,0.0,0.0,0.0,0.0,0.0,0.3007,1.0054,1.024,1.0135,1.0152,0.3642,0.0,0.0,0.0,0.0,0.0,0.0,0.0,0.0,0.0,0.3271,0.899,0.899,0.9136,0.8968,0.2608,0.0,0.0,0.0,0.0,0.0,0.6716,0.5274,0.0,0.0,0.0,0.0,0.0,0.0,0.0,0.0,0.0,0.2766,1.7197,2.1441,2.1441,2.1441,2.1441,2.1441,2.1441,2.098,2.0539,2.0539,2.0539,2.0539,2.0539,2.0539,2.0648,2.098,2.098,2.0967,2.1034,2.077,2.0539,2.0539,2.0539,2.0539,2.0539,2.0539,2.0438,2.0187,2.0085,2.0085,2.0153,1.9854,1.9766,2.0031,3.3072,4.0481,4.0481,3.486,3.1742,3.1742,3.1742,2.8012,2.0546,2.8146,3.5391,4.2285,4.3995,4.5131,4.5745,4.5745,4.509,4.4008,4.4008,3.912,3.1132,2.4774,2.2337,2.3282,3.1538,3.8587,4.4182,2.1333,0.9785,0.0,0.0,0.0,0.0,0.0,0.0,0.0,0.0,0.0,0.0,0.0,0.0,0.0,0.0,0.0,0.5913,2.0048,2.0462,2.0167,2.0167,0.7244,0.0,0.0,0.0,0.0,0.0,0.0,0.0,0.0,0.0,0.7328,2.0539,2.0539,1.9831,1.7783,0.5231,0.0,0.0,0.0,0.0,0.1547,1.5275,1.1931,0.0,0.0,0.0,0.0,0.0,0.0,0.0,0.0,0.0,0.2823,1.7147,2.1441,2.1455,2.153,2.1496,2.1441,2.1441,2.1055,2.0648,2.056,2.0539,2.0539,2.0539,2.0539,2.0539,2.0539,2.1034,2.1265,2.075,2.0594,2.0539,2.0539,2.0539,2.0539,2.0539,2.0539,0.0,1.982,2.0241,2.0295,1.9712,1.98,2.0119,2.0627,3.1557,3.7848,3.7848,2.6528,2.0539,2.0539,2.0539,2.0573,2.0661,2.0661,2.8223,4.2512,4.4583,4.5531,4.5531,4.5531,4.4943,4.385,4.1948,4.1165,3.9931,2.7227,2.2337,2.2337,2.2337,3.1538,4.4142,2.1421,0.9785,0.0,0.0,0.0,0.0,0.0,0.0,0.0,0.0,0.0,0.0,0.0,0.0,0.0,0.0,0.0,0.1237,0.4086,0.4133,0.4076,0.4076,0.1428,0.0,0.0,0.0,0.0,0.0,0.0,0.0,0.0,0.0,0.7328,2.0539,2.0539,1.4216,0.3627,0.1072,0.0,0.0,0.0,0.0,0.1547,1.5275,1.1931,0.0,0.0,0.0,0.0,0.0,0.0,0.0,0.0,0.0,0.2823,1.7147,2.1441,2.1543,2.2038,2.1808,2.1441,2.1441,2.1353,2.1157,2.0648,2.0539,2.0539,2.0539,2.0539,2.0539,2.0539,2.1034,2.1408,2.1299,2.0858,2.0539,2.0539,2.0539,2.0539,2.0539,2.0539,2.0505,2.0397,2.0485,2.0295,1.9712,2.058,2.1177,2.1279,2.2958,2.4039,2.4039,2.1668,2.0539,2.0539,2.0539,2.079,2.1279,2.1279,2.9075,4.3714,4.4115,4.4302,4.4302,4.4302,4.4182,4.3031,3.1015,2.6147,2.5881,2.3282,2.2337,2.2337,2.2337,3.1538,4.4035,1.0241,0.4747,0.0,0.0,0.0,0.0,0.0,0.0,0.0,0.0,0.0,0.0,0.0,0.0,0.0,0.0,0.0,0.0,0.0,0.0,0.0,0.0,0.0,0.0,0.0,0.0,0.0,0.0,0.0,0.0,0.0,0.0,0.3476,0.9894,0.9914,0.623,0.0,0.0,0.0,0.0,0.0,0.4246,1.1424,1.7964,1.1931,0.0,0.0,0.0,0.0,0.0,0.4971,1.1122,1.1122,1.1122,1.2489,1.9763,2.1686,2.1509,2.1794,2.1672,2.1441,2.1441,2.1441,2.1279,2.0682,2.0539,2.0539,2.0539,2.0539,2.0539,2.0539,2.1034,2.1333,2.1014,2.0736,2.0539,2.0539,2.0539,2.0539,2.0539,2.0824,2.1001,2.1001,2.1001,2.0892,2.0614,2.1123,2.1441,2.1441,2.058,2.0085,2.0085,2.0383,2.0539,2.0539,2.0858,2.1157,2.1441,2.176,2.567,3.3026,4.0596,4.4008,4.4008,4.4008,4.4008,4.2912,2.8303,2.2337,2.2337,2.2337,2.2337,2.2337,2.2337,3.1538,4.4075,0.0,0.0,0.0,0.0,0.0,0.0,0.0,0.0,0.0,0.0,0.0,0.0,0.0,0.0,0.0,0.0,0.0,0.0,0.0,0.0,0.0,0.0,0.0,0.0,0.0,0.0,0.0,0.0,0.0,0.0,0.0,0.0,0.0,0.0,0.0,0.0,0.0,0.0,0.0,0.0,0.0,0.6427,1.6429,1.9382,1.1931,0.0,0.0,0.0,0.0,0.0,0.9523,2.1441,2.1441,2.1441,2.153,2.2004,2.1896,2.1597,2.1475,2.1441,2.1441,2.1441,2.1441,2.1279,2.0682,2.0539,2.0539,2.0539,2.0539,2.0539,2.0539,2.0926,2.1143,2.079,2.0627,2.0539,2.0539,2.0539,2.0539,2.0539,2.0967,2.1245,2.1245,2.1367,2.1441,2.1441,2.1319,2.1245,2.1245,2.0119,1.9522,1.9664,2.0241,2.0539,2.0539,2.1143,2.1509,2.1631,2.2113,2.2337,2.2751,3.7372,4.4008,4.4008,4.4008,4.2251,3.8453,2.7082,2.2337,2.2337,2.2337,2.2337,2.2613,2.5736,3.4105,4.4142,0.0,0.0,0.0,0.0,0.0,0.0,0.0,0.0,0.0,0.0,0.0,0.0,0.0,0.0,0.0,0.0,0.0,0.0,0.0,0.0,0.0,0.0,0.0,0.0,0.0,0.0,0.0,0.0,0.0,0.0,0.0,0.0,0.0,0.0,0.0,0.0,0.0,0.0,0.0,0.0,0.0,0.0774,0.3219,1.5781,1.1931,0.0,0.0,0.0,0.0,0.0,0.9523,2.1441,2.1441,2.1441,2.1455,2.1509,2.1862,2.2127,2.1584,2.1441,2.1441,2.1441,2.1441,2.1279,2.0682,2.0539,2.0539,2.0539,2.0539,2.0539,2.0539,2.0594,2.079,2.1279,2.0892,2.0539,2.0539,2.0539,2.0539,2.0539,2.0594,2.0627,2.0627,2.1123,2.1441,2.1441,2.0926,2.0627,2.0627,1.9501,1.9094,1.9644,2.0241,2.0539,2.0539,2.1143,2.172,2.2249,2.2303,2.2337,2.2751,3.7372,4.4008,4.4008,4.4008,3.6546,2.4247,2.2875,2.2337,2.2337,2.2337,2.2337,2.3841,3.7081,4.278,4.4008,0.0,0.0,0.0,0.0,0.0,0.0,0.0,0.0,0.0,0.0,0.0,0.0,0.0,0.0,0.0,0.0,0.0,0.0,0.0,0.0,0.0,0.0,0.0,0.0,0.0,0.0,0.0,0.0,0.0,0.0,0.0,0.0,0.0,0.0,0.0,0.0,0.0,0.0,0.0,0.0,0.0,0.0,0.066,0.6086,0.4762,0.0,0.0,0.0,0.0,0.0,0.3764,1.0052,1.8748,2.1441,2.1441,2.1441,2.1618,2.174,2.1509,2.1441,2.1441,2.1441,2.1177,2.0838,2.0594,2.0539,2.0539,2.0539,2.0539,2.0539,2.0539,2.0539,2.0614,2.0858,2.1001,2.0946,2.0594,2.0539,2.0539,2.0539,2.0539,2.0682,2.1055,2.0967,2.1055,2.1408,2.0878,2.0383,2.0031,1.9223,1.9047,1.9644,1.9888,2.0187,2.0539,2.1143,2.1564,2.1794,2.1794,2.1794,2.2212,3.7209,4.4008,4.4008,4.4008,4.0754,3.4654,2.5865,2.2337,2.2337,2.2337,2.2337,2.3013,2.8857,3.1015,3.0939,0.0,0.0,0.0,0.0,0.0,0.0,0.0,0.0,0.0,0.0,0.0,0.0,0.0,0.0,0.0,0.0,0.0,0.0,0.0,0.0,0.0,0.0,0.0,0.0,0.0,0.0,0.0,0.0,0.0,0.0,0.0,0.0,0.0,0.0,0.0,0.0,0.0,0.0,0.0,0.0,0.0,0.0,0.0398,0.4537,0.3476,0.0,0.0,0.0,0.0,0.0,0.0,0.1749,1.192,1.7945,2.1441,2.1441,2.1441,2.1441,2.1441,2.1441,2.1441,2.1441,2.1123,2.075,2.0573,2.0539,2.0539,2.0539,2.0539,2.0539,2.0539,2.0539,1.9121,1.5143,1.8284,2.1034,2.0594,2.0539,2.0539,2.0539,2.0383,2.0526,2.1123,2.079,2.079,2.1387,2.0878,2.0363,1.9942,1.9345,1.9223,1.9644,1.9834,2.0119,2.0539,2.1143,2.1441,2.1441,2.1441,2.153,2.2109,3.7175,4.4008,4.4008,4.4008,4.1505,3.6542,2.647,2.2337,2.2337,2.2337,2.5179,2.8604,2.4037,2.2337,2.2289,0.0,0.0,0.0,0.0,0.0,0.0,0.0,0.0,0.0,0.0,0.0,0.0,0.0,0.0,0.0,0.0,0.0,0.0,0.0,0.0,0.0,0.0,0.0,0.0,0.0,0.0,0.0,0.0,0.0,0.0,0.0,0.0,0.0,0.0,0.0,0.0,0.0,0.0,0.0,0.0,0.0,0.0,0.1418,1.5143,1.1811,0.0,0.0,0.0,0.0,0.0,0.0,0.0,0.0269,1.0052,2.1441,2.1441,2.1441,2.1441,2.1441,2.1441,2.1441,2.1441,2.1441,2.1279,2.0682,2.0539,2.0539,2.0539,2.0539,2.0539,2.0539,2.0539,1.6041,0.2448,1.1683,2.0539,2.0539,2.0539,2.0539,2.0539,2.0031,1.9908,2.0485,2.0539,2.079,2.1387,2.0878,2.0539,2.0526,1.9976,1.9664,1.9664,2.0227,2.0539,2.0539,2.1143,2.1441,2.1441,2.1441,2.176,2.2731,3.7361,4.4008,4.4008,4.4008,3.5471,2.1768,2.2093,2.2337,2.2337,2.2337,3.1782,4.3478,2.8044,2.2337,2.2337,0.0,0.0,0.0,0.0,0.0,0.0,0.0,0.0,0.0,0.0,0.0,0.0,0.0,0.0,0.0,0.0,0.0,0.0,0.0,0.0,0.0,0.0,0.0,0.0,0.0,0.0,0.0,0.0,0.0,0.0,0.0,0.0,0.0,0.0,0.0,0.0,0.0,0.0,0.0,0.0,0.0,0.0,0.0516,0.489,0.3862,0.0,0.0,0.0,0.0,0.0,0.0,0.0,0.0,0.9785,2.1441,2.1441,2.1441,2.1441,2.1441,2.1441,2.1441,2.1441,2.1441,2.1279,2.0682,2.0539,2.0539,2.0539,2.0539,2.0539,2.0539,1.2834,0.5147,0.0774,0.3734,0.6555,0.6555,1.4622,2.0539,2.0539,2.0736,2.0946,2.1143,2.079,2.0627,2.0804,1.9888,1.9501,1.9922,1.9766,1.9664,1.9664,2.0241,2.0736,2.1157,2.1353,2.1441,2.1441,2.1441,2.176,2.2751,3.7372,4.4008,4.4008,4.4008,3.5461,2.2279,3.2797,3.1277,2.2337,2.2337,3.1429,4.2739,2.7841,2.2337,2.2289,0.0,0.0,0.0,0.0,0.0,0.0,0.0,0.0,0.0,0.0,0.0,0.0,0.0,0.0,0.0,0.0,0.0,0.0,0.0,0.0,0.0,0.0,0.0,0.0,0.0,0.0,0.0,0.0,0.0,0.0,0.0,0.0,0.0,0.0,0.0,0.0,0.0,0.0,0.0,0.0,0.0,0.0,0.0,0.0,0.0,0.0,0.0,0.0,0.0,0.0,0.0,0.0,0.0,0.9785,2.1441,2.1441,2.1441,2.1441,2.1441,2.1441,2.1441,2.1441,2.1441,2.1279,2.0682,2.0539,1.8988,1.3861,1.6933,1.886,1.3729,0.5787,0.0,0.0,0.0,0.0,0.0,1.1811,2.0539,2.0539,2.0878,2.119,2.1421,2.1102,2.079,2.056,1.9854,1.959,1.9976,1.9786,1.9766,1.9976,2.0349,2.0824,2.1441,2.1672,2.1672,2.1441,2.1672,2.2093,2.295,3.1838,3.8853,4.4008,4.4008,3.5525,2.2475,3.1999,3.0463,2.291,2.8751,3.3056,3.4799,2.5598,2.2337,2.2289,0.0,0.0,0.0,0.0,0.0,0.0,0.0,0.0,0.0,0.0,0.0,0.0,0.0,0.0,0.0,0.0,0.0,0.0,0.0,0.0,0.0,0.0,0.0,0.0,0.0,0.0,0.0,0.0,0.0,0.0,0.0,0.0,0.0,0.0,0.0,0.0,0.0,0.0,0.0,0.0,0.0,0.0,0.0,0.0,0.0,0.0,0.0,0.0,0.0,0.0,0.0,0.0,0.0,0.9816,2.1496,2.1455,2.1441,2.1441,2.1441,2.1441,2.1441,2.1441,2.1408,2.1231,2.0661,1.9776,1.5393,0.2577,1.0143,1.5143,0.2319,0.0,0.0,0.0,0.0,0.0,0.0,1.1811,2.0539,2.0539,2.0539,2.077,2.1387,2.1441,2.119,2.0594,2.0505,2.0485,2.0485,1.9997,1.9976,2.0526,2.0539,2.0824,2.1441,2.2038,2.2059,2.1509,2.2072,2.2656,2.3205,2.2656,3.0274,4.4102,4.303,3.4884,2.2391,2.2357,2.2337,2.3746,3.8373,3.515,2.2337,2.2337,2.2337,2.2337,0.0,0.0,0.0,0.0,0.0,0.0,0.0,0.0,0.0,0.0,0.0,0.0,0.0,0.0,0.0,0.0,0.0,0.0,0.0,0.0,0.0,0.0,0.0,0.0,0.0,0.0,0.0,0.0,0.0,0.0,0.0,0.0,0.0,0.0,0.0,0.0,0.0,0.0,0.0,0.0,0.0,0.0,0.0,0.0,0.0,0.0,0.0,0.0,0.0,0.0,0.0,0.0,0.0,1.0096,2.2038,2.1584,2.1441,2.1441,2.1441,2.1441,2.1441,2.1441,2.1089,2.0716,2.0573,1.2319,0.3991,0.0645,0.2577,0.3862,0.0645,0.0,0.0,0.0,0.0,0.0,0.0,1.1811,2.0539,2.0539,2.0539,2.077,2.1387,2.1441,2.119,2.0594,2.0119,1.9875,1.9875,2.0173,2.0397,2.0539,2.0539,2.0824,2.1441,2.2038,2.2269,2.2127,2.2269,2.2656,2.3219,2.3083,3.1102,4.4625,3.3058,2.6236,2.2974,2.2534,2.2337,2.2627,2.6452,2.5608,2.2337,2.2337,2.2337,2.2337,0.0,0.0,0.0,0.0,0.0,0.0,0.0,0.0,0.0,0.0,0.0,0.0,0.0,0.0,0.0,0.0,0.0,0.0,0.0,0.0,0.0,0.0,0.0,0.0,0.0,0.0,0.0,0.0,0.0,0.0,0.0,0.0,0.0,0.0,0.0,0.0,0.0,0.0,0.0,0.0,0.0,0.0,0.0,0.0,0.0,0.0,0.0,0.0,0.0,0.0,0.0,0.0,0.0,1.0192,2.2269,2.195,2.1652,2.1441,2.1441,2.1441,2.1441,2.1441,2.119,2.0878,2.0614,0.9884,0.0,0.0,0.0,0.0,0.0,0.0,0.0,0.0,0.0,0.0,0.0,1.1811,2.0539,2.0539,2.079,2.1089,2.1408,2.1441,1.8534,1.1703,1.6687,2.0064,2.0064,2.0363,2.0539,2.0539,2.0539,2.0824,2.1441,2.2038,2.2337,2.2337,2.2337,2.2656,2.3219,2.3219,2.7735,3.4917,2.6761,2.3219,2.3171,2.2588,2.2337,2.2337,2.2337,2.25,2.2744,2.2744,2.2744,2.2744,0.0,0.0,0.0,0.0,0.0,0.0,0.0,0.0,0.0,0.0,0.0,0.0,0.0,0.0,0.0,0.0,0.0,0.0,0.0,0.0,0.0,0.0,0.0,0.0,0.0,0.0,0.0,0.0,0.0,0.0,0.0,0.0,0.0,0.0,0.0,0.0,0.0,0.0,0.0,0.0,0.0,0.0,0.0,0.0,0.0,0.0,0.0,0.0,0.0,0.0,0.0,0.0,0.0,0.8664,1.9388,2.1646,2.1971,2.1564,2.1455,2.1441,2.1441,2.1441,2.1441,2.1299,2.079,0.9953,0.0,0.0,0.0,0.0,0.0,0.0,0.0,0.0,0.0,0.0,0.0,1.0012,1.8224,2.0278,2.1068,2.1441,2.1441,1.9431,1.3128,0.091,1.0851,1.8303,2.0412,2.0539,2.0539,2.0539,2.0627,2.0967,2.1564,2.2072,2.2337,2.2337,2.2337,2.2601,2.3083,2.3083,2.313,2.3219,2.3219,2.3219,2.3171,2.2588,2.2337,2.2337,2.2337,2.269,2.3219,2.3219,2.3219,2.3219,0.0,0.0,0.0,0.0,0.0,0.0,0.0,0.0,0.0,0.0,0.0,0.0,0.0,0.0,0.0,0.0,0.0,0.0,0.0,0.0,0.0,0.0,0.0,0.0,0.0,0.0,0.0,0.0,0.0,0.0,0.0,0.0,0.0,0.0,0.0,0.0,0.0,0.0,0.0,0.0,0.0,0.0,0.0,0.0,0.0,0.0,0.0,0.0,0.0,0.0,0.0,0.0,0.0,0.1542,0.5873,1.8557,2.2269,2.2093,2.1584,2.1441,2.1441,2.1441,2.1441,2.1421,2.1319,1.0254,0.0,0.0,0.0,0.0,0.0,0.0,0.0,0.0,0.0,0.0,0.0,0.1804,0.7451,1.9121,2.1068,2.1441,2.1441,1.0457,0.2417,0.0134,0.2004,0.8307,1.9923,2.0539,2.0539,2.0539,2.1034,2.1597,2.2201,2.2289,2.2337,2.2337,2.2337,2.2391,2.2479,2.2479,2.2744,2.3219,2.3219,2.3219,2.3171,2.2588,2.2337,2.2337,2.2337,2.269,2.3219,2.3219,2.3219,2.3219,0.0,0.0,0.0,0.0,0.0,0.0,0.0,0.0,0.0,0.0,0.0,0.0,0.0,0.0,0.0,0.0,0.0,0.0,0.0,0.0,0.0,0.0,0.0,0.0,0.0,0.0,0.0,0.0,0.0,0.0,0.0,0.0,0.0,0.0,0.0,0.0,0.0,0.0,0.0,0.0,0.0,0.0,0.0,0.0,0.0,0.0,0.0,0.0,0.0,0.0,0.0,0.0,0.0,0.0,0.1371,0.8201,1.5703,2.1794,2.1509,2.1441,2.1441,2.1441,2.1441,2.1353,2.1034,1.0079,0.0,0.0,0.0,0.0,0.0,0.0,0.0,0.0,0.0,0.0,0.0,0.6427,1.3341,1.977,2.1068,2.1441,2.1441,0.8452,0.0,0.0,0.0,0.2788,0.9133,1.6429,2.0539,2.0539,2.1441,2.2059,2.2337,2.2337,2.2337,2.2337,2.2337,2.2337,2.2337,2.2337,2.2656,2.3219,2.3219,2.3042,2.273,2.2445,2.2337,2.2337,2.2337,2.269,2.3219,2.3219,2.3219,2.3219,0.0,0.0,0.0,0.0,0.0,0.0,0.0,0.0,0.0,0.0,0.0,0.0,0.0,0.0,0.0,0.0,0.0,0.0,0.0,0.0,0.0,0.0,0.0,0.0,0.0,0.0,0.0,0.0,0.0,0.0,0.0,0.0,0.0,0.0,0.0,0.0,0.0,0.0,0.0,0.0,0.0,0.0,0.0,0.0,0.0,0.0,0.0,0.0,0.0,0.0,0.0,0.0,0.0,0.0,0.0,0.0,1.0186,2.1441,2.1441,2.1441,2.1441,2.1441,2.1441,2.1319,2.0858,1.0028,0.0,0.0,0.0,0.0,0.0,0.0,0.0,0.0,0.0,0.116,0.4374,1.3861,2.0539,2.0539,2.1068,2.1441,2.1441,0.8452,0.0,0.0,0.0,0.0,0.0,1.3094,2.0614,2.075,2.1652,2.2127,2.2127,2.2269,2.2337,2.2337,2.2201,2.2201,2.2337,2.2337,2.2656,2.3219,2.3083,2.2764,2.2337,2.2337,2.2337,2.2337,2.2337,2.269,2.3219,2.3219,2.3219,2.3219,0.0,0.0,0.0,0.0,0.0,0.0,0.0,0.0,0.0,0.0,0.0,0.0,0.0,0.0,0.0,0.0,0.0,0.0,0.0,0.0,0.0,0.0,0.0,0.0,0.0,0.0,0.0,0.0,0.0,0.0,0.0,0.0,0.0,0.0,0.0,0.0,0.0,0.0,0.0,0.0,0.0,0.0,0.0,0.0,0.0,0.0,0.0,0.0,0.0,0.0,0.0,0.0,0.0,0.0,0.0,0.0,1.0186,2.1441,2.1441,2.1441,2.1441,2.1441,2.1441,2.1421,2.1387,1.0303,0.0,0.0,0.0,0.0,0.0,0.0,0.0,0.0,0.0,0.4503,1.7194,1.9904,2.0539,2.0539,2.1068,2.1441,2.1441,0.8452,0.0,0.0,0.0,0.0,0.0,1.3094,2.0804,2.1353,2.1455,2.1509,2.1509,2.2059,2.2337,2.2337,2.1774,2.1794,2.2337,2.2337,2.2656,2.3185,2.2642,2.2378,2.2337,2.2337,2.2337,2.2337,2.2337,2.269,2.3219,2.3219,2.3219,2.3219,0.0,0.0,0.0,0.0,0.0,0.0,0.0,0.0,0.0,0.0,0.0,0.0,0.0,0.0,0.0,0.0,0.0,0.0,0.0,0.0,0.0,0.0,0.0,0.0,0.0,0.0,0.0,0.0,0.0,0.0,0.0,0.0,0.0,0.0,0.0,0.0,0.0,0.0,0.0,0.0,0.0,0.0,0.0,0.0,0.0,0.0,0.0,0.0,0.0,0.0,0.0,0.0,0.0,0.0,0.1749,1.0724,1.7147,2.1441,2.1441,2.1441,2.1441,2.1441,2.1441,2.1333,2.0967,1.0063,0.0,0.0,0.0,0.0,0.0,0.0,0.0,0.0,0.7199,1.4495,1.9776,2.0539,2.0682,2.1055,2.1299,1.7945,0.8985,0.3226,0.0,0.0,0.0,0.0,0.0,1.3094,2.0824,2.1421,2.1441,2.1441,2.1441,2.1672,2.1774,2.1774,2.1543,2.1564,2.1794,2.216,2.2466,2.2656,2.2445,2.2337,2.2337,2.2337,2.2337,2.2337,2.2337,2.2479,2.273,2.3083,2.3219,2.3219,0.0,0.0,0.0,0.0,0.0,0.0,0.0,0.0,0.0,0.0,0.0,0.0,0.0,0.0,0.0,0.0,0.0,0.0,0.0,0.0,0.0,0.0,0.0,0.0,0.0,0.0,0.0,0.0,0.0,0.0,0.0,0.0,0.0,0.0,0.0,0.0,0.0,0.0,0.0,0.0,0.0,0.0,0.0,0.0,0.0,0.0,0.0,0.0,0.0,0.0,0.0,0.0,0.0,0.0,0.1883,1.1793,1.7812,2.0367,1.5938,1.4734,1.5805,2.0227,2.1441,2.0131,1.5154,0.6832,0.0,0.0,0.0,0.0,0.0,0.0,0.0,0.0,1.1492,2.0539,2.0539,2.0702,2.098,2.1387,2.1441,1.754,0.7646,0.2669,0.0,0.0,0.0,0.1933,0.6174,1.5536,2.1014,2.1421,2.1441,2.1441,2.1441,2.1441,2.1441,2.1441,2.1441,2.1441,2.1455,2.2059,2.2337,2.2337,2.2337,2.2235,2.2072,2.2269,2.2337,2.2337,2.2337,2.2337,2.2411,2.3008,2.3097,2.294,0.0,0.0,0.0,0.0,0.0,0.0,0.0,0.0,0.0,0.0,0.0,0.0,0.0,0.0,0.0,0.0,0.0,0.0,0.0,0.0,0.0,0.0,0.0,0.0,0.0,0.0,0.0,0.0,0.0,0.0,0.0,0.0,0.0,0.0,0.0,0.0,0.0,0.0,0.0,0.0,0.0,0.0,0.0,0.0,0.0,0.0,0.0,0.0,0.0,0.0,0.0,0.0,0.0,0.0,0.0,0.0,1.0052,1.8083,0.3898,0.0,0.336,1.7673,2.1302,1.7673,0.3226,0.0,0.0,0.0,0.0,0.0,0.0,0.0,0.0,0.0,1.1516,2.0539,2.0539,2.1055,2.1441,2.1441,2.1441,2.1441,2.1441,0.8496,0.0129,0.0,0.0129,0.6174,1.9776,2.1123,2.1441,2.1441,2.1441,2.1441,2.1441,2.1441,2.1441,2.1441,2.1441,2.1441,2.1455,2.2059,2.2337,2.2337,2.2337,2.1984,2.1496,2.2093,2.2337,2.2337,2.2337,2.2337,2.2411,2.2995,2.2832,2.2337,0.0,0.0,0.0,0.0,0.0,0.0,0.0,0.0,0.0,0.0,0.0,0.0,0.0,0.0,0.0,0.0,0.0,0.0,0.0,0.0,0.0,0.0,0.0,0.0,0.0,0.0,0.0,0.0,0.0,0.0,0.0,0.0,0.0,0.0,0.0,0.0,0.0,0.0,0.0,0.0,0.0,0.0,0.0,0.0,0.0,0.0,0.0,0.0,0.0,0.0,0.0,0.0,0.0,0.0,0.0,0.0,0.3092,0.5505,0.1211,0.0,0.105,0.5343,1.3594,1.7152,0.3132,0.0,0.0,0.0,0.0,0.0,0.0,0.0,0.0,0.0,1.195,2.1177,2.1177,2.0967,2.0967,2.1387,2.1068,2.0804,2.0804,1.6889,1.0399,0.0774,0.899,1.6308,2.0888,2.1333,2.1441,2.1441,2.1034,2.1014,2.1441,2.1441,2.1441,2.1441,2.1441,2.1441,2.1455,2.2059,2.2337,2.2323,2.1896,2.1597,2.1455,2.1631,2.195,2.2337,2.2337,2.2337,2.2357,2.2534,2.2215,2.1706,0.0,0.0,0.0,0.0,0.0,0.0,0.0,0.0,0.0,0.0,0.0,0.0,0.0,0.0,0.0,0.0,0.0,0.0,0.0,0.0,0.0,0.0,0.0,0.0,0.0,0.0,0.0,0.0,0.0,0.0,0.0,0.0,0.0,0.0,0.0,0.0,0.0,0.0,0.0,0.0,0.0,0.0,0.0,0.0,0.0,0.0,0.0,0.0,0.0,0.0,0.0,0.0,0.0,0.0,0.0,0.0,0.0,0.0,0.0,0.0,0.0,0.0,0.6252,1.0271,0.1933,0.0,0.0,0.0,0.0,0.0,0.0,0.0,0.1828,0.7211,1.5363,2.1089,2.1089,2.077,2.0682,2.1034,2.077,1.8352,1.2962,1.2447,1.1168,0.8352,1.6087,2.1055,2.1421,2.1441,2.1441,2.1441,2.0858,2.0716,2.1089,2.1089,2.1211,2.1441,2.1441,2.1441,2.1455,2.1808,2.1984,2.1971,2.1597,2.1441,2.1441,2.1441,2.1652,2.1984,2.1984,2.1984,2.1984,2.1984,2.176,2.1441,0.0,0.0,0.0,0.0,0.0,0.0,0.0,0.0,0.0,0.0,0.0,0.0,0.0,0.0,0.0,0.0,0.0,0.0,0.0,0.0,0.0,0.0,0.0,0.0,0.0,0.0,0.0,0.0,0.0,0.0,0.0,0.0,0.0,0.0,0.0,0.0,0.0,0.0,0.0,0.0,0.0,0.0,0.0,0.0,0.0,0.0,0.0,0.0,0.0,0.0,0.0,0.0,0.0,0.0,0.0,0.0,0.0,0.0,0.0,0.0,0.0,0.0,0.0,0.0,0.0,0.0,0.0,0.0,0.0,0.0,0.0,0.0938,0.5969,1.843,2.0539,2.0539,2.0539,2.0539,2.0539,2.0539,1.9382,1.3729,0.116,0.116,0.7076,1.958,2.1123,2.1441,2.1441,2.1441,2.1441,2.1441,2.0858,2.0539,2.0539,2.0539,2.0838,2.1441,2.1441,2.1441,2.1441,2.1441,2.1441,2.1441,2.1441,2.1441,2.1441,2.1441,2.1441,2.1441,2.1441,2.1441,2.1441,2.1441,2.1441,2.1441,0.0,0.0,0.0,0.0,0.0,0.0,0.0,0.0,0.0,0.0,0.0,0.0,0.0,0.0,0.0,0.0,0.0,0.0,0.0,0.0,0.0,0.0,0.0,0.0,0.0,0.0,0.0,0.0,0.0,0.0,0.0,0.0,0.0,0.0,0.0,0.0,0.0,0.0,0.0,0.0,0.0,0.0,0.0,0.0,0.0,0.0,0.0,0.0,0.0,0.0,0.0,0.0,0.0,0.0,0.0,0.0,0.0,0.0,0.0,0.0,0.0,0.0,0.0,0.0,0.0,0.0,0.0,0.0,0.0,0.0,0.0,0.8821,1.7062,2.0051,2.0539,2.0539,2.0539,2.0539,2.0539,2.0539,1.1036,0.3219,0.0258,0.9756,1.7487,2.0942,2.1367,2.1441,2.1441,2.1441,2.1441,2.1441,2.0858,2.0539,2.0539,2.0539,2.0838,2.1441,2.1441,2.1441,2.1441,2.1441,2.1441,2.1441,2.1441,2.1441,2.1441,2.1441,2.1441,2.1441,2.1441,2.1441,2.1441,2.1441,2.1441,2.1441,0.0,0.0,0.0,0.0,0.0,0.0,0.0,0.0,0.0,0.0,0.0,0.0,0.0,0.0,0.0,0.0,0.0,0.0,0.0,0.0,0.0,0.0,0.0,0.0,0.0,0.0,0.0,0.0,0.0,0.0,0.0,0.0,0.0,0.0,0.0,0.0,0.0,0.0,0.0,0.0,0.0,0.0,0.0,0.0,0.0,0.0,0.0,0.0,0.0,0.0,0.0,0.0,0.0,0.0,0.0,0.0,0.0,0.1481,0.8318,1.0186,0.8553,0.1717,0.0,0.0,0.0,0.0,0.0,0.0,0.0,0.2062,0.8603,1.5648,2.0539,2.0539,2.0539,2.0539,2.0539,1.4883,1.0659,1.0659,0.4374,0.2577,0.9118,1.6301,2.079,2.1387,2.1441,2.1441,2.1441,2.1441,2.1441,2.1441,2.0858,2.0539,2.0539,2.0539,2.0702,2.1014,2.1014,2.1157,2.1421,2.1143,2.1014,2.1014,2.1014,2.1177,2.1441,2.1441,2.1441,2.1441,2.1441,2.1441,2.1441,2.1441,2.1441,2.1441,0.0,0.0,0.0,0.0,0.0,0.0,0.0,0.0,0.0,0.0,0.0,0.0,0.0,0.0,0.0,0.0,0.0,0.0,0.0,0.0,0.0,0.0,0.0,0.0,0.0,0.0,0.0,0.0,0.0,0.0,0.0,0.0,0.0,0.0,0.0,0.0,0.0,0.0,0.0,0.0,0.0,0.0,0.0,0.0,0.0,0.0,0.0,0.0,0.0,0.0,0.0,0.0,0.0,0.0,0.0,0.0,0.1749,0.6306,1.8216,1.9563,1.4867,0.2957,0.0,0.0,0.0,0.0,0.0,0.0,0.0,0.3497,1.4897,1.6939,1.6939,1.6939,1.6939,1.6939,1.6939,0.7199,0.0903,0.3219,0.3476,0.7964,1.9382,2.0539,2.079,2.1387,2.1441,2.1441,2.1441,2.1441,2.1387,2.1279,2.0804,2.0539,2.0539,2.0539,2.0539,2.0539,2.0539,2.0804,2.1265,2.077,2.0539,2.0539,2.0539,2.0878,2.1441,2.1441,2.1441,2.1441,2.1441,2.1441,2.1441,2.1441,2.1441,2.1441,0.0,0.0,0.0,0.0,0.0,0.0,0.0,0.0,0.0,0.0,0.0,0.0,0.0,0.0,0.0,0.0,0.0,0.0,0.0,0.0,0.0,0.0,0.0,0.0,0.0,0.0,0.0,0.0,0.0,0.0,0.0,0.0,0.0,0.0,0.0,0.0,0.0,0.0,0.0,0.0,0.0,0.0,0.0,0.0,0.0,0.0,0.0,0.0,0.0,0.0,0.0,0.0,0.0,0.0,0.0,0.0,0.8848,1.8887,2.0891,1.2324,0.2421,0.0539,0.0,0.0,0.0,0.0,0.0,0.0,0.0,0.0531,0.2459,0.2835,0.2835,0.2835,0.2835,0.2835,0.2835,0.116,0.4374,1.6301,1.7703,1.8485,2.0278,2.0539,2.079,2.1387,2.1441,2.1441,2.1441,2.1441,2.119,2.0682,2.0573,2.0539,2.0539,2.0539,2.0539,2.0539,2.0539,2.0573,2.0661,2.0573,2.0539,2.0539,2.0539,2.0878,2.1441,2.1441,2.1441,2.1441,2.1441,2.1441,2.1441,2.1441,2.1441,2.1441,0.0,0.0,0.0,0.0,0.0,0.0,0.0,0.0,0.0,0.0,0.0,0.0,0.0,0.0,0.0,0.0,0.0,0.0,0.0,0.0,0.0,0.0,0.0,0.0,0.0,0.0,0.0,0.0,0.0,0.0,0.0,0.0,0.0,0.0,0.0,0.0,0.0,0.0,0.0,0.0,0.0,0.0,0.0,0.0,0.0,0.0,0.0,0.0,0.0,0.0,0.0,0.0,0.0,0.0,0.0,0.0,0.4487,0.9386,0.9386,0.4782,0.0,0.0,0.0,0.0,0.0,0.0,0.0,0.0,0.0,0.0,0.0,0.0,0.0,0.0,0.0,0.0,0.0,0.0,0.5109,1.8904,2.0539,2.0682,2.1014,2.1034,2.1157,2.1421,2.1441,2.1441,2.1441,2.1123,2.0824,2.0539,2.0539,2.0539,2.0539,2.0539,2.0539,2.0539,2.0539,2.0539,2.0539,2.0539,2.0539,2.0539,2.0539,2.0702,2.0967,2.1299,2.1441,2.1441,2.1441,2.1441,2.1441,2.1441,2.1441,2.1441]}]]